GFSNGP_700_spd_000.txt.gz
Wind_Speed
18 18 20 25 26 25 24 27 24 30 28 28 33 28 28 29 31 42 43 41 45 47 48 47 48 52 48 41 44 48 52 55 57 55 47 39 32 31 28 28 30 30 31 30
25 17 17 30 31 17 9 20 28 29 34 33 29 29 25 30 45 48 45 48 50 48 54 50 47 41 39 45 49 53 54 54 51 45 38 35 34 31 32 32 28 30 35 36
16 20 20 21 3 13 25 22 24 32 31 29 30 33 31 40 51 51 48 50 44 52 48 38 40 42 43 46 52 54 53 48 40 39 34 34 31 31 34 36 36 36 37 37
13 18 1 17 19 29 24 19 27 27 31 36 36 35 38 47 50 51 48 50 51 49 38 35 41 45 47 49 51 50 44 40 38 33 31 34 38 37 35 34 35 36 37 37
10 10 20 32 20 19 28 32 28 28 30 33 33 43 47 52 50 39 50 49 31 32 35 39 42 46 49 50 49 45 38 36 34 36 36 33 31 32 32 32 34 35 36 36
17 8 5 21 25 22 22 31 16 20 24 46 42 43 47 49 56 45 52 37 33 40 43 42 44 45 45 45 43 38 39 38 35 33 33 33 32 31 33 36 37 37 35 36
26 20 22 27 15 16 17 21 34 45 42 37 38 42 46 43 52 49 35 40 43 43 39 40 43 43 42 41 41 38 35 35 30 31 34 33 32 35 37 38 36 36 36 35
16 9 11 5 20 31 38 45 46 48 43 41 43 41 45 43 44 35 40 43 39 39 42 43 44 42 38 38 34 36 38 29 32 35 33 33 35 38 38 37 36 36 34 33
21 23 40 44 45 31 38 41 41 44 43 36 45 41 34 27 31 36 40 44 40 40 42 43 44 40 37 33 36 31 27 31 34 32 33 36 39 39 36 35 34 34 35 35
34 38 34 30 30 31 36 37 42 40 33 44 42 35 30 29 33 38 42 39 39 41 42 42 40 36 33 29 27 27 29 32 33 33 35 38 38 35 34 33 34 36 36 35
36 32 35 32 33 35 38 39 35 43 34 34 30 33 33 34 35 38 38 37 40 42 42 40 38 36 32 27 27 27 30 31 32 35 37 37 33 31 32 34 36 38 37 34
39 30 36 34 35 34 37 43 44 33 32 34 30 33 33 36 42 39 37 38 43 45 42 39 38 35 31 28 26 28 28 30 33 35 35 33 29 29 31 33 36 35 33 32
32 36 31 31 36 35 35 31 32 33 31 34 36 34 38 43 41 39 40 42 45 47 41 38 38 33 29 25 25 26 29 32 33 33 30 28 28 31 32 33 33 32 31 28
27 29 31 30 28 29 31 29 32 34 35 37 40 44 45 41 42 42 44 45 45 43 37 35 32 30 23 24 25 27 29 31 31 28 27 26 29 30 33 35 31 29 27 28
33 29 28 31 29 28 32 36 38 38 39 45 49 46 43 43 45 46 44 44 43 37 34 31 28 22 22 24 26 28 28 27 25 24 24 27 29 30 34 33 31 30 26 24
30 31 32 31 29 34 36 39 42 42 49 52 53 52 49 48 48 46 44 42 40 34 30 25 18 19 21 23 24 23 22 23 22 22 25 27 27 30 32 30 30 29 26 25
30 33 30 33 34 34 36 39 44 50 55 55 50 49 51 50 49 44 41 39 34 29 23 15 16 19 20 20 19 20 21 21 22 23 25 25 26 30 30 29 29 27 26 26
32 31 33 34 36 38 42 46 50 50 46 46 48 49 48 46 46 42 39 36 29 23 15 14 16 18 19 17 18 19 20 22 23 23 22 22 25 29 29 28 27 27 26 25
28 31 32 37 43 47 49 50 46 45 44 46 46 44 42 42 40 36 35 32 23 16 12 15 17 18 17 18 18 19 19 21 22 21 21 21 24 27 28 27 26 26 26 25
31 35 41 48 50 51 47 42 43 43 43 43 41 40 39 37 34 32 33 26 19 11 14 16 16 17 17 17 17 18 19 21 22 21 20 20 22 25 27 27 25 24 24 24
41 47 49 50 48 44 40 40 42 42 40 39 39 38 37 33 31 33 29 22 15 12 15 15 16 16 17 17 16 17 19 21 21 21 20 20 22 24 25 25 24 23 22 21
48 49 45 42 39 39 39 41 40 41 42 38 35 36 34 30 30 28 21 20 12 13 15 14 15 16 16 16 15 15 17 20 19 19 19 19 21 22 23 23 23 22 21 20
42 40 38 38 39 39 39 40 41 42 40 36 34 32 29 26 27 21 19 17 13 14 15 15 15 16 16 15 15 16 17 18 18 18 18 19 21 22 22 22 21 20 19 18
37 37 36 35 36 37 38 37 34 30 32 31 31 28 25 25 21 16 17 13 14 15 16 16 16 17 16 15 15 16 16 17 18 19 19 20 21 22 23 21 20 19 18 17
34 33 34 34 35 36 37 37 36 34 31 29 27 24 22 20 14 12 14 13 14 15 17 18 17 17 17 15 14 14 15 16 18 19 20 22 23 23 23 22 20 18 17 16
31 31 33 35 34 34 35 36 36 33 29 27 26 23 18 13 10 12 14 14 16 17 18 18 17 16 15 14 13 14 16 18 19 20 21 21 22 23 23 23 21 19 18 16
28 30 33 33 31 32 35 36 34 31 26 26 22 15 13 13 12 13 15 14 16 17 17 17 15 14 14 14 14 15 17 18 19 20 20 21 22 23 23 23 22 19 17 17

GFSNGP_700_spd_003.txt.gz
Wind_Speed
14 15 17 21 21 20 22 23 17 24 25 27 24 26 25 31 33 34 36 43 47 46 46 46 48 50 34 30 38 42 46 50 53 52 47 43 41 38 36 32 32 36 37 36
20 12 14 26 27 10 2 10 18 21 26 27 27 28 33 34 35 37 43 49 50 51 47 53 48 35 30 37 44 46 49 51 49 45 40 40 37 36 35 36 38 38 35 34
10 12 19 20 4 11 20 24 20 21 26 28 29 31 31 36 41 47 52 53 50 47 49 39 32 36 39 40 44 47 48 46 44 40 39 39 39 35 33 33 32 31 31 34
10 15 2 14 23 28 24 13 18 25 29 28 35 29 32 46 45 45 48 47 38 39 34 33 37 38 38 41 44 46 46 43 40 38 37 36 33 31 30 30 31 34 37 37
5 7 18 27 10 14 17 27 22 25 23 28 38 36 47 45 46 44 40 33 44 34 36 37 35 38 41 43 45 44 43 42 37 36 36 34 33 31 30 33 37 39 38 37
12 6 5 16 22 25 24 25 14 18 29 42 43 45 41 35 37 34 29 27 31 33 34 36 39 42 44 45 44 42 40 39 35 35 33 34 32 33 36 39 39 37 35 36
18 12 18 23 13 12 11 16 28 33 39 42 42 39 31 42 38 29 24 26 30 32 34 37 40 43 45 45 43 39 36 38 34 32 34 33 34 37 40 39 35 35 35 35
12 9 8 6 21 28 37 46 34 37 39 37 28 33 44 35 33 28 25 30 31 34 36 38 41 43 44 43 40 37 33 30 29 31 32 34 37 38 37 34 34 35 36 36
16 23 28 36 39 38 40 38 34 36 37 39 40 46 35 31 27 28 29 33 36 38 39 40 43 42 42 39 36 34 29 27 29 31 33 36 38 36 33 33 36 37 37 37
32 30 31 31 31 29 33 33 37 39 43 45 42 35 36 30 33 33 36 40 41 39 38 40 42 41 40 37 36 32 28 27 29 31 34 36 35 33 32 34 36 38 38 35
31 30 30 31 30 32 36 34 42 43 41 34 33 31 34 37 38 41 44 43 40 38 39 41 42 38 36 36 33 30 26 28 29 32 35 34 32 30 32 34 38 39 37 35
32 30 32 32 32 30 35 41 40 36 31 32 35 36 38 41 45 43 39 39 41 41 42 43 42 36 36 34 31 25 25 27 30 32 32 30 27 29 30 33 37 35 34 34
30 31 31 34 36 39 39 37 33 29 33 34 36 38 44 48 45 41 42 44 46 46 44 41 35 34 34 30 23 23 25 28 29 29 27 25 26 29 31 32 32 34 33 30
22 29 34 34 36 35 35 29 31 33 33 35 39 43 48 49 45 46 49 49 47 46 41 36 33 31 29 20 21 23 26 27 26 25 23 24 26 28 32 33 31 30 30 28
29 34 33 30 32 33 31 33 38 38 38 41 46 48 46 46 48 48 47 47 44 39 36 32 30 26 18 19 22 23 21 22 22 21 22 24 24 27 32 32 31 31 28 27
30 28 30 31 31 31 34 37 41 44 48 51 52 46 45 44 46 43 43 43 37 35 32 29 24 15 16 19 20 18 19 20 20 20 21 21 23 26 30 31 30 30 28 27
25 28 32 33 34 37 40 42 46 50 51 48 44 43 43 43 42 39 39 36 33 32 28 23 15 14 17 18 16 16 18 19 20 21 20 20 21 25 28 31 29 29 29 28
29 30 32 34 38 41 43 48 48 46 43 42 42 44 42 39 39 37 35 32 31 27 22 17 13 15 16 17 16 16 16 19 20 21 20 20 21 23 26 29 29 27 27 27
27 29 32 35 39 46 47 45 43 42 40 42 44 42 41 38 35 34 32 30 27 20 18 14 15 15 16 16 15 15 15 18 20 21 20 19 20 22 24 26 27 27 25 25
29 32 38 43 44 42 41 40 39 40 41 42 42 43 40 35 33 30 27 27 20 17 15 14 15 15 16 16 15 15 15 17 20 20 19 19 19 21 23 23 24 25 25 23
36 41 43 41 39 38 37 38 39 40 40 41 41 37 33 31 29 27 25 23 17 15 13 15 15 16 16 16 15 15 15 17 19 19 19 19 19 20 22 23 22 21 22 23
41 39 39 39 38 37 36 37 38 38 39 39 37 36 34 31 27 23 24 19 14 12 13 15 16 16 16 16 16 16 16 17 17 19 19 20 20 20 21 22 22 20 19 20
39 39 36 36 37 37 37 36 37 37 38 38 37 34 31 29 25 22 21 16 12 11 13 15 17 16 16 16 16 16 16 15 16 18 19 21 21 22 22 21 21 20 17 17
35 34 35 33 34 35 36 35 35 35 36 37 36 30 27 27 22 22 16 11 10 11 13 15 17 17 17 16 16 15 14 14 16 18 20 21 22 22 22 22 21 19 18 16
33 31 30 31 31 33 35 35 33 34 35 33 31 26 26 24 23 17 11 10 11 11 13 16 19 19 17 16 14 14 14 15 17 18 20 21 21 22 23 23 23 21 18 16
28 29 30 28 28 31 35 35 33 34 35 34 29 23 22 18 15 13 11 10 13 12 15 18 19 18 15 14 14 14 15 17 18 18 20 21 21 22 23 23 22 21 20 16
27 27 28 28 30 32 34 33 32 32 33 33 27 20 18 16 16 15 14 15 14 14 15 17 18 17 15 14 14 15 17 18 18 19 19 20 21 21 21 22 22 22 21 19

GFSNGP_700_spd_006.txt.gz
Wind_Speed
12 14 18 17 15 15 19 20 17 18 19 19 19 23 27 28 23 26 32 41 43 43 43 40 39 36 34 32 32 35 40 45 47 48 47 44 40 37 37 37 35 35 35 35
17 17 16 19 24 17 8 13 17 18 20 14 25 30 25 27 28 33 43 44 46 44 36 34 33 31 32 34 36 39 43 46 48 47 44 40 37 36 36 33 32 31 30 31
8 13 24 13 3 5 12 12 13 12 13 23 22 22 26 35 37 40 42 42 40 37 32 32 32 32 33 35 39 42 45 47 47 45 42 37 35 32 31 30 30 32 35 37
9 15 4 5 16 22 14 11 10 16 18 24 20 23 30 42 41 40 35 39 39 35 29 30 29 31 34 36 41 43 45 45 44 42 38 35 32 31 29 32 35 37 37 35
3 6 21 13 4 8 10 17 19 19 21 31 27 35 29 41 36 34 42 37 32 30 26 28 31 34 36 40 43 46 45 43 39 38 39 32 32 32 34 37 37 35 33 34
9 5 5 3 17 20 15 14 14 22 34 34 36 38 37 32 35 40 29 30 27 27 28 32 35 39 42 44 46 46 44 40 36 35 33 32 32 34 37 37 35 34 34 35
11 11 13 16 14 10 9 13 31 33 36 28 33 36 41 36 30 28 29 27 27 31 36 38 38 41 43 46 46 45 41 37 34 32 30 31 33 35 36 34 34 33 36 37
7 8 7 6 16 22 27 33 36 36 35 33 40 37 32 31 28 25 28 32 35 38 41 40 40 42 44 45 44 42 37 34 32 28 29 31 34 34 33 33 33 36 37 39
13 18 21 27 28 30 29 32 33 34 32 39 36 33 31 29 30 33 36 39 43 45 44 40 42 44 44 43 41 36 36 33 28 27 29 31 34 32 32 31 35 36 39 40
25 27 19 23 28 32 31 31 36 31 38 38 36 32 34 34 34 38 41 46 46 42 42 42 43 44 41 40 37 36 36 30 25 28 29 30 31 30 30 33 34 38 40 37
25 25 23 26 29 37 29 34 32 35 37 33 31 31 34 36 39 43 46 43 41 43 45 45 44 42 39 32 35 38 30 23 25 27 29 28 27 26 27 31 35 37 36 36
27 20 25 30 33 26 33 34 33 32 29 28 32 36 37 40 44 44 42 42 43 44 44 45 43 37 33 31 33 30 20 21 25 26 26 25 23 25 28 30 34 35 34 34
27 28 26 25 28 32 30 28 29 28 30 35 36 37 42 47 47 43 41 42 44 43 44 41 37 33 29 28 28 18 18 22 23 23 22 21 22 23 25 31 33 30 32 33
28 27 25 27 33 28 27 30 29 30 33 36 41 45 46 44 42 40 41 42 42 40 40 36 34 28 26 24 15 16 19 19 20 20 19 20 20 21 25 29 31 30 32 32
26 24 26 30 27 27 28 29 32 34 39 44 48 45 43 42 40 41 41 39 38 37 35 33 30 23 21 15 15 17 16 17 18 18 19 18 18 20 24 28 30 30 30 31
26 26 25 24 25 28 29 32 38 42 46 47 43 42 40 40 41 39 39 37 36 34 32 30 22 19 14 15 16 16 15 16 17 18 19 18 19 20 23 26 28 29 29 29
21 22 24 26 28 30 36 39 43 46 41 40 39 38 40 40 39 38 37 34 33 31 31 23 18 15 15 16 16 15 15 15 17 18 19 18 18 19 22 24 26 27 28 28
21 24 27 29 31 37 39 43 39 39 38 37 38 38 38 39 40 38 33 31 29 28 25 19 14 14 16 16 16 16 15 15 16 18 19 18 18 18 20 23 24 25 26 27
24 26 27 30 34 40 39 38 39 38 36 36 37 37 38 38 36 34 30 28 26 26 21 17 13 15 16 16 16 16 15 15 15 18 19 18 17 18 19 22 23 23 24 24
24 27 30 35 39 37 38 36 37 35 36 37 37 37 38 37 37 34 31 26 24 24 20 16 13 15 16 16 15 15 15 15 16 18 18 18 18 18 19 21 22 23 22 22
28 32 37 36 36 36 34 35 34 35 35 36 37 38 39 37 35 31 28 24 23 23 19 15 13 15 15 15 15 15 15 16 16 17 18 18 19 20 20 20 21 21 21 20
34 34 34 35 35 35 33 32 33 35 37 35 35 38 38 36 32 26 25 21 23 21 18 14 14 14 16 15 15 15 15 15 15 15 17 18 19 20 20 20 20 20 20 19
32 35 35 35 36 33 30 29 30 32 34 32 34 37 37 35 30 28 25 22 22 18 16 14 14 15 17 17 15 15 15 14 14 15 17 18 20 20 20 20 20 20 20 19
34 34 35 34 32 31 29 27 29 30 32 31 32 34 36 33 26 25 23 19 16 15 15 14 15 16 18 18 16 15 14 14 15 16 17 18 20 21 21 21 21 21 20 19
34 33 32 30 30 31 30 30 32 33 33 31 31 31 32 27 24 19 17 13 12 13 15 15 16 17 18 17 15 14 14 14 15 17 18 19 19 20 21 21 20 21 21 20
32 31 29 29 29 30 32 34 35 36 34 30 29 29 28 25 21 18 17 14 14 14 15 16 17 18 18 17 16 15 15 15 16 17 18 18 18 19 20 20 20 21 22 22
31 28 27 27 30 33 34 35 35 33 31 30 29 28 28 24 21 21 20 18 17 16 17 16 17 20 20 18 17 17 17 16 17 17 18 18 18 18 19 19 20 21 23 24

GFSNGP_700_spd_009.txt.gz
Wind_Speed
10 13 14 16 17 16 18 20 21 22 20 21 19 15 15 15 18 23 24 30 40 41 41 41 39 34 31 28 31 31 37 40 43 46 48 45 44 44 41 39 37 34 32 31
17 10 12 17 20 20 18 13 16 18 19 15 11 15 18 23 25 23 39 38 37 38 42 36 25 28 28 30 28 32 38 35 39 41 43 42 43 41 38 34 30 30 32 32
7 18 24 9 3 2 7 11 11 13 14 15 15 17 25 29 25 36 38 40 39 41 33 25 26 27 28 28 33 34 35 34 33 42 42 40 38 31 28 29 28 28 27 27
10 12 3 2 11 16 14 12 10 11 11 9 16 24 30 34 31 38 40 40 39 33 32 31 29 29 34 28 35 33 34 38 34 43 40 34 28 26 27 25 27 27 28 31
2 8 19 8 1 3 10 14 13 9 11 20 30 34 22 28 39 40 38 35 34 30 30 34 30 32 34 39 37 33 34 31 39 39 28 29 26 27 25 26 28 29 32 34
7 4 4 2 9 13 13 14 13 17 22 40 36 29 25 37 38 37 32 26 26 28 30 30 31 33 33 35 38 44 25 44 42 34 32 27 28 25 25 27 30 36 33 37
9 9 12 12 20 11 6 11 21 28 35 31 28 26 34 37 33 23 22 25 27 28 30 33 41 38 34 35 36 41 32 30 40 32 30 32 25 25 27 28 33 34 37 38
6 7 8 6 9 17 19 24 30 34 28 35 30 35 33 29 25 23 25 28 29 31 34 43 36 35 36 34 35 41 23 40 40 29 31 26 23 25 29 28 31 35 37 39
9 14 19 26 29 26 24 28 29 28 24 21 32 26 24 21 23 26 28 30 32 32 37 33 34 34 35 39 36 35 38 39 34 31 27 21 24 24 28 28 32 35 38 39
21 21 22 23 21 24 31 32 34 26 31 27 23 23 22 25 28 30 31 34 31 32 33 35 37 37 35 39 34 32 31 34 31 25 22 25 21 23 25 29 30 34 37 36
29 27 25 21 25 27 31 27 32 34 29 30 28 26 26 29 31 32 34 30 34 33 35 38 38 37 36 39 35 29 29 28 24 20 23 24 25 25 25 27 29 33 34 34
28 26 28 27 33 26 24 27 31 27 29 29 29 28 29 32 34 32 34 35 32 33 36 36 40 42 38 36 30 27 24 18 18 19 20 22 22 24 25 24 28 31 31 32
23 29 28 36 32 18 23 24 27 29 30 30 30 28 32 34 33 39 32 32 36 39 41 41 40 38 37 32 25 20 17 17 17 18 19 21 23 22 22 27 30 31 31 31
27 29 27 25 22 23 23 26 30 28 28 26 34 40 38 38 39 38 39 41 42 41 40 38 38 37 34 27 20 16 17 17 15 17 18 21 22 22 22 25 27 30 32 30
26 20 23 20 21 21 25 27 29 31 34 40 39 39 40 40 39 40 39 41 42 40 37 35 34 33 28 21 17 18 18 16 16 16 18 20 21 21 22 24 26 27 28 29
23 23 24 17 20 25 27 28 33 37 41 39 40 40 38 38 38 38 39 39 38 35 34 33 32 28 22 18 17 18 19 16 16 16 18 19 20 20 21 23 25 26 26 27
24 22 17 20 24 26 29 32 37 39 38 40 39 38 37 38 37 37 38 39 36 34 33 30 29 26 21 18 17 18 18 17 16 16 17 19 20 20 21 22 24 25 25 25
18 18 20 23 26 29 33 36 38 38 38 38 37 37 37 37 37 39 38 38 35 32 31 29 26 23 20 18 17 17 18 17 16 16 17 19 19 20 21 22 23 24 25 25
18 20 23 26 29 32 35 36 37 37 36 35 35 35 36 35 37 38 37 37 32 30 26 27 24 22 20 18 17 17 16 16 16 15 16 18 19 20 21 22 23 24 24 24
20 23 26 28 31 35 34 35 36 37 34 33 32 35 36 33 37 38 38 35 29 27 26 25 23 20 19 18 17 17 15 15 16 16 15 16 18 20 21 21 22 22 23 23
23 26 29 32 33 33 35 35 36 34 32 30 31 34 34 34 36 38 39 32 28 26 24 25 22 20 18 18 18 16 16 15 16 15 14 15 17 19 20 21 22 22 22 23
28 32 33 32 34 35 35 36 34 32 31 29 30 34 35 35 36 38 35 30 27 25 24 23 20 18 18 17 18 18 17 16 15 14 14 15 17 19 20 21 21 22 22 22
33 32 33 34 35 36 36 33 32 32 31 31 32 35 36 35 35 38 33 26 24 22 18 18 18 19 18 18 19 20 17 16 15 14 15 16 17 18 19 20 20 21 21 21
32 33 35 35 36 35 34 31 31 31 31 33 34 35 35 34 31 33 31 26 23 20 16 16 17 18 18 19 20 20 17 15 15 15 16 17 18 18 18 19 19 19 19 20
33 33 33 34 34 32 30 30 31 34 34 35 33 32 31 31 33 31 29 24 22 21 18 17 17 18 19 20 21 19 18 17 16 16 17 17 18 18 18 18 18 18 19 20
30 31 32 32 31 28 27 30 33 35 35 35 34 31 30 30 30 30 28 24 22 23 23 22 21 20 19 20 22 21 20 18 18 18 18 18 18 18 18 18 19 18 19 20
30 29 29 27 25 27 31 35 37 36 36 36 33 29 29 29 28 28 27 25 23 22 23 24 23 22 25 27 26 23 22 20 20 20 20 19 19 19 19 19 20 20 21 22

GFSNGP_700_spd_015.txt.gz
Wind_Speed
4 5 5 8 12 12 12 14 15 17 12 7 14 15 12 15 20 22 23 33 40 40 38 42 41 39 38 37 35 37 39 41 46 48 47 46 50 53 41 32 34 37 38 36
2 5 7 13 2 4 2 5 10 11 9 11 13 18 21 22 23 26 33 42 39 38 41 42 39 38 34 39 40 39 41 44 47 46 43 48 51 45 26 33 35 38 33 41
2 5 6 4 4 5 7 9 10 11 14 19 23 24 25 25 26 34 42 40 38 40 40 35 32 33 41 40 41 45 49 49 42 43 48 50 54 33 31 34 35 35 35 40
4 3 1 6 11 15 13 11 12 11 13 21 24 27 26 29 33 39 37 34 37 34 26 28 33 40 43 45 48 50 47 43 41 42 42 45 41 22 31 34 33 34 37 34
3 3 9 3 7 11 11 13 16 23 25 24 21 22 31 38 38 36 30 34 28 25 28 35 41 44 45 47 47 44 45 44 44 41 41 39 34 26 31 33 33 38 34 31
7 4 6 6 9 14 14 17 17 18 20 21 28 31 33 34 29 31 34 33 32 34 38 40 42 44 45 43 44 46 46 48 45 40 38 34 31 30 24 28 36 33 30 30
13 8 7 11 15 12 10 15 20 23 24 31 32 33 32 30 30 31 33 32 35 37 39 41 40 40 40 41 44 46 47 44 40 37 33 29 28 26 29 32 30 29 28 28
9 7 10 7 14 16 21 26 25 28 33 32 30 34 27 28 30 31 32 33 37 40 40 39 40 40 40 43 44 43 41 41 38 34 29 27 24 24 25 25 26 25 25 27
14 11 20 23 21 27 28 28 28 32 30 31 35 30 26 26 29 30 31 36 38 40 41 40 40 39 40 41 42 39 38 37 34 30 25 21 19 20 21 23 24 24 25 28
20 23 21 18 26 29 32 32 30 28 33 33 27 21 23 27 29 31 34 37 39 40 40 39 38 37 39 41 41 35 34 33 30 26 20 18 18 20 21 22 22 23 25 27
31 27 23 28 30 31 34 32 31 34 35 25 20 23 26 28 31 34 34 36 38 39 38 39 38 37 39 40 37 33 31 29 25 22 20 17 18 18 20 21 22 23 24 26
35 33 32 31 31 31 32 34 34 33 28 22 22 25 27 30 32 33 36 38 39 37 37 39 38 38 40 39 35 32 29 25 22 21 19 17 16 18 20 21 21 21 22 24
27 29 29 30 30 30 29 32 34 23 20 21 25 26 29 31 33 35 37 38 37 37 37 38 39 37 38 37 34 30 28 22 21 20 19 17 17 18 18 19 21 21 22 24
29 30 30 29 29 29 29 27 18 19 21 23 25 28 32 33 35 37 37 36 35 36 36 38 37 37 37 34 31 29 26 22 19 20 17 17 17 18 19 20 21 22 24 25
29 28 27 28 28 26 22 22 19 20 22 25 29 32 32 34 36 37 35 33 34 34 36 36 37 37 32 29 28 25 22 21 18 17 17 16 17 17 18 19 21 23 25 25
24 26 29 25 23 22 19 17 19 23 26 30 32 32 34 35 37 35 32 32 32 33 35 37 37 32 28 27 25 22 20 19 18 17 17 17 16 17 17 17 19 21 23 23
23 28 26 23 20 15 15 18 23 27 30 33 33 33 35 37 37 34 31 30 31 33 34 37 35 29 26 24 23 20 18 18 19 18 18 17 16 16 15 16 18 20 22 23
23 23 20 18 14 13 18 23 28 31 33 32 34 36 36 37 36 34 32 32 32 34 35 36 33 28 24 22 21 19 18 17 18 18 18 17 16 16 14 15 17 19 21 22
18 18 15 11 12 18 23 29 33 34 33 34 36 36 36 35 34 34 33 34 34 35 33 32 31 27 24 23 20 18 16 16 18 18 17 17 16 15 14 14 16 18 20 21
15 11 11 14 18 24 29 32 33 32 33 35 36 36 34 33 33 34 34 34 34 34 32 31 30 26 24 22 18 16 16 17 18 18 17 17 16 14 14 15 16 17 18 19
13 14 16 21 25 30 33 32 32 33 33 34 34 32 31 32 33 35 35 34 32 31 30 29 28 25 23 20 17 15 16 17 18 18 18 17 16 15 15 16 16 16 17 17
16 18 24 28 32 31 30 30 31 33 33 32 29 27 28 30 32 33 33 33 31 30 29 27 27 24 22 19 18 17 15 16 17 18 18 17 16 16 16 16 16 17 16 16
21 25 28 30 29 29 29 30 32 34 32 28 26 26 29 32 33 34 34 32 31 28 28 27 26 24 22 21 20 19 18 17 17 18 19 19 18 18 18 18 18 17 17 16
27 27 27 27 28 28 30 30 31 30 29 28 28 29 33 34 35 34 34 31 30 29 28 27 26 24 22 21 20 22 22 20 20 19 20 21 20 20 20 20 19 19 18 17
24 25 27 27 28 30 31 32 31 31 29 31 31 32 34 34 37 33 33 30 29 29 28 26 25 24 23 23 22 22 24 25 24 24 27 26 24 23 22 22 21 21 20 19
25 26 28 30 31 31 31 31 33 34 33 32 33 33 33 34 32 31 30 29 29 28 27 26 26 25 24 25 25 25 24 24 26 27 27 26 25 24 24 23 23 23 23 21
27 29 31 33 32 33 35 36 35 33 31 33 33 32 32 31 31 30 29 28 27 26 26 26 27 27 27 27 27 27 27 26 26 26 27 28 25 25 24 24 24 24 25 25

GFSNGP_700_spd_018.txt.gz
Wind_Speed
8 9 10 10 9 10 14 14 12 16 16 15 23 20 20 22 22 24 25 26 29 37 42 43 42 44 42 42 41 42 43 43 45 49 53 40 40 45 48 47 40 24 27 31
11 10 9 10 8 5 6 7 10 9 13 16 20 20 20 20 24 25 27 32 37 40 42 41 44 42 42 40 41 44 44 47 50 45 41 38 41 42 40 31 36 26 31 34
6 10 10 7 13 6 7 12 14 16 21 21 21 19 19 21 24 27 30 36 40 39 40 42 39 40 39 40 42 44 47 48 41 40 40 41 40 38 34 28 26 27 30 32
5 7 1 8 9 8 9 14 18 19 20 20 20 22 25 29 29 32 34 37 36 36 37 37 37 37 39 41 44 46 43 41 39 39 39 40 40 34 30 21 24 26 31 29
5 8 10 11 16 11 8 12 18 19 22 23 25 27 26 29 35 37 36 34 33 35 35 35 36 38 40 43 43 40 40 40 40 41 39 37 37 31 25 23 24 24 26 29
9 4 6 7 12 12 11 19 5 13 16 18 24 27 29 37 36 32 30 32 32 32 34 36 37 40 42 40 39 39 40 41 42 40 38 37 33 30 28 26 24 24 27 30
18 11 10 16 15 13 10 13 18 17 15 20 23 29 33 33 33 32 31 31 32 32 34 36 39 40 41 38 37 38 40 41 39 37 37 33 30 27 23 20 22 24 27 27
14 11 12 14 14 17 19 25 25 21 22 26 29 30 32 33 32 29 28 29 32 33 35 38 39 39 38 38 39 39 38 38 36 35 33 28 25 20 18 19 21 24 25 24
17 12 15 23 26 25 27 26 28 27 27 29 32 29 32 33 27 25 27 30 32 34 36 38 38 37 38 40 40 38 37 36 35 32 27 24 20 19 18 19 22 23 23 23
25 28 27 26 29 28 27 28 28 29 31 35 26 35 30 25 23 25 28 30 32 34 36 36 36 37 38 39 38 36 35 33 32 28 23 21 20 18 18 19 21 22 21 22
30 31 31 30 27 25 30 32 30 30 32 32 37 32 24 21 24 27 29 31 32 34 36 35 36 37 38 35 35 36 33 31 29 26 22 21 19 18 17 18 20 21 22 23
35 30 33 36 36 30 28 28 28 33 36 32 31 23 20 22 27 28 30 32 34 35 35 34 35 37 38 35 37 35 30 29 27 24 22 21 20 18 18 18 20 20 22 23
30 30 30 30 28 28 29 30 36 31 33 26 20 19 23 27 29 30 32 34 35 36 34 34 34 36 37 37 35 31 28 28 25 21 22 20 20 18 16 17 20 20 21 23
31 31 30 29 29 29 31 36 29 30 23 18 20 24 28 30 32 32 34 36 36 35 33 33 33 35 37 37 31 29 28 26 22 18 20 20 20 18 17 16 17 18 19 21
26 27 25 29 32 34 38 27 21 19 16 20 23 28 31 33 33 34 35 36 35 34 32 33 34 35 36 35 29 28 25 23 20 19 19 19 19 18 16 16 17 17 18 20
28 28 26 28 30 35 21 16 12 13 18 24 29 32 34 33 34 35 36 37 36 35 33 34 35 35 34 32 28 25 23 22 19 18 19 18 18 17 16 16 15 16 18 19
24 27 30 38 29 14 10 12 12 18 23 29 33 34 33 34 35 36 36 35 35 35 34 35 35 34 32 31 28 24 22 22 20 19 19 18 17 16 16 16 14 15 16 17
22 28 22 25 13 12 12 12 17 23 28 33 34 33 34 35 36 36 35 34 34 34 34 34 34 31 30 29 27 24 22 21 19 19 18 19 18 17 17 16 15 15 15 16
25 19 10 15 14 14 12 17 23 30 34 33 33 33 34 35 35 35 34 33 33 34 34 33 32 29 29 28 27 24 21 19 19 18 18 19 18 17 17 16 15 15 15 15
7 10 10 13 15 13 19 27 31 33 31 31 31 33 34 33 33 32 32 33 34 35 34 33 31 29 28 26 25 22 19 18 18 17 19 20 18 17 17 16 16 16 16 15
10 16 17 19 19 22 28 31 30 28 28 28 31 32 32 30 30 30 32 34 33 34 33 31 29 28 27 26 23 20 18 18 18 18 19 20 19 18 17 17 17 17 17 16
14 17 17 20 25 29 29 27 27 26 28 29 30 31 31 29 29 31 31 33 33 32 31 29 28 27 26 25 23 20 19 18 18 18 18 18 18 18 18 18 19 19 18 18
17 19 24 28 29 26 25 26 26 29 31 31 30 30 31 31 32 34 35 34 33 31 29 28 27 26 26 25 23 22 21 20 21 22 21 21 19 19 20 20 21 21 21 20
24 27 27 25 25 26 27 27 30 31 33 33 34 34 34 34 33 33 34 35 32 31 30 29 27 25 25 25 24 23 22 22 23 24 24 24 24 25 27 25 23 23 23 23
23 23 24 25 27 28 31 33 35 35 36 36 36 34 33 34 36 35 32 33 33 31 29 27 26 25 25 25 25 25 24 24 25 25 26 29 29 31 29 27 26 25 24 24
22 23 25 27 29 32 35 38 39 40 39 38 36 35 34 35 35 34 32 32 32 29 28 26 25 25 25 25 26 26 27 27 27 27 27 27 28 29 29 30 29 26 25 25
24 26 29 32 33 37 39 41 43 43 40 39 39 36 38 37 34 32 32 32 30 27 26 25 25 25 25 27 29 30 30 30 28 28 29 30 30 29 29 29 31 30 28 28

GFSNGP_700_spd_021.txt.gz
Wind_Speed
10 9 9 10 12 14 16 16 14 13 17 17 21 26 26 25 24 24 27 27 28 30 35 38 37 39 40 42 43 44 43 42 44 46 46 46 45 43 40 37 36 31 31 28
12 12 13 15 15 17 18 18 21 23 24 19 21 25 26 26 25 27 28 28 33 37 37 37 37 37 39 41 43 43 42 44 45 44 44 44 44 41 38 36 30 29 25 26
7 12 13 14 19 17 14 15 14 19 18 19 21 22 24 25 27 27 28 32 35 38 39 35 35 38 40 41 42 43 44 45 45 45 44 44 42 39 37 33 26 22 25 25
6 6 1 15 14 17 18 17 17 18 20 19 19 18 24 26 26 28 30 33 39 40 35 34 36 38 39 40 41 43 45 45 46 45 44 43 39 36 35 30 25 25 24 24
6 11 14 13 15 18 19 18 16 18 17 18 20 21 25 25 28 31 35 39 38 36 33 34 36 38 39 41 43 43 43 44 43 44 43 39 37 35 33 28 24 23 23 24
11 5 6 10 11 14 19 24 17 9 16 18 19 23 21 25 29 34 34 36 37 32 31 34 36 38 40 42 42 42 42 41 42 42 40 37 35 33 29 25 23 21 23 26
22 15 13 18 18 17 16 16 11 20 20 21 21 21 25 31 33 32 32 32 30 29 32 35 37 39 41 41 40 40 40 40 39 39 37 36 34 30 25 21 21 22 24 25
16 13 15 20 21 20 16 17 24 24 23 20 19 25 28 31 32 31 28 26 27 31 34 35 37 39 40 39 38 39 38 36 37 38 35 34 30 25 23 22 21 22 24 25
17 14 18 18 16 20 27 27 29 27 25 25 24 29 32 29 31 23 22 25 30 32 33 35 37 38 38 37 37 38 36 37 38 37 33 32 27 24 24 22 21 22 23 24
27 28 27 28 27 32 34 32 28 28 29 29 29 33 23 39 23 21 23 28 31 32 34 35 37 37 37 35 36 36 36 37 36 34 31 29 26 23 23 21 20 21 22 23
30 28 29 30 32 32 32 31 29 33 30 29 30 35 33 21 18 22 26 30 32 33 35 36 37 36 36 34 35 37 38 35 32 32 30 26 24 23 22 21 20 20 21 22
33 27 30 30 29 30 32 33 30 30 30 31 34 26 18 18 21 24 28 32 33 34 35 36 37 36 34 34 35 37 38 34 31 31 27 25 23 22 21 21 20 19 20 22
32 30 32 32 32 30 28 27 29 30 29 33 25 13 15 19 23 28 32 34 34 34 36 38 37 35 34 34 35 36 37 32 30 27 24 23 23 21 21 21 19 20 19 21
30 30 31 29 29 28 28 29 30 30 32 30 13 13 19 24 29 32 33 33 34 36 37 37 36 35 36 36 36 35 35 32 29 26 24 22 22 22 21 20 17 17 19 20
27 28 28 28 29 30 31 32 33 35 23 12 12 16 23 29 32 32 33 34 36 37 36 36 36 36 36 36 35 33 32 31 28 26 24 23 22 22 21 19 18 16 17 18
32 32 31 31 31 32 34 39 33 17 10 11 15 22 28 31 32 33 34 36 37 37 36 36 36 35 35 34 32 30 31 30 27 26 23 22 22 21 21 19 18 17 16 17
31 31 31 29 29 33 31 16 16 11 7 14 22 27 30 31 31 33 35 37 36 35 35 34 33 34 34 32 30 30 30 29 28 25 23 21 21 21 20 19 18 17 16 16
26 29 27 26 25 22 14 11 9 6 14 22 28 30 28 30 32 34 36 35 34 33 33 34 36 34 33 31 29 29 29 28 27 23 22 21 21 20 20 19 19 18 17 17
23 24 28 19 14 15 10 9 8 15 23 28 27 28 29 31 33 34 35 34 31 32 33 35 35 33 32 30 29 28 28 26 25 21 22 21 20 21 21 20 19 18 17 18
3 4 7 10 11 9 14 19 21 25 28 28 29 29 31 33 34 35 35 33 31 35 36 37 34 32 30 29 29 27 26 24 23 21 22 21 21 21 22 21 19 18 19 19
6 9 13 17 19 19 21 25 30 31 29 29 29 31 33 35 34 35 36 35 32 35 36 37 33 31 30 29 28 26 25 23 23 22 22 22 21 22 21 21 20 19 20 21
10 15 16 18 21 24 29 31 30 28 29 29 32 34 35 36 35 36 37 36 35 35 35 34 32 31 31 30 27 26 24 23 23 24 25 24 24 23 22 20 20 21 22 22
15 17 20 23 27 28 26 27 28 29 31 34 36 37 37 39 39 39 38 35 36 35 34 33 33 32 31 29 27 26 25 24 24 24 26 26 27 27 27 26 25 25 26 24
20 24 26 25 25 26 27 28 30 32 35 37 38 39 40 41 40 37 37 36 36 36 34 33 34 32 30 28 26 26 25 25 25 25 26 28 28 29 31 32 30 31 30 29
24 24 25 26 28 29 31 33 36 38 41 43 43 43 42 41 41 40 39 38 36 36 34 33 33 31 29 28 27 26 26 26 27 28 29 29 30 31 31 31 31 32 31 31
25 26 27 28 30 33 37 40 43 45 47 47 45 40 40 42 43 41 40 38 36 35 33 33 31 29 28 27 27 27 28 30 30 31 31 31 31 31 32 32 33 33 32 32
24 27 30 32 35 39 42 45 47 47 46 43 44 43 43 42 35 34 33 35 34 32 31 31 29 28 28 28 28 29 29 29 30 31 31 30 29 29 29 30 31 29 27 28

GFSNGP_700_spd_024.txt.gz
Wind_Speed
13 10 10 11 12 14 16 17 16 19 20 14 15 18 19 22 25 28 30 28 28 28 29 32 38 37 36 36 37 40 42 45 47 48 48 47 47 46 45 42 39 35 33 28
16 15 14 16 17 19 20 21 24 23 23 16 15 17 21 25 29 29 28 28 28 28 31 37 34 33 35 37 39 41 44 46 47 48 47 47 48 46 44 39 36 33 28 26
7 14 16 18 23 23 24 26 23 22 16 17 17 18 19 20 22 26 27 27 28 32 35 34 33 36 37 38 40 41 43 45 46 47 47 47 46 44 41 37 34 30 27 25
6 8 2 18 18 17 20 21 23 23 19 18 19 18 20 21 22 25 27 28 32 35 35 35 35 36 35 38 39 41 43 45 45 45 45 44 42 40 37 34 31 28 25 25
6 10 17 16 20 21 23 21 23 24 19 19 18 22 23 21 20 25 27 30 32 32 33 34 33 33 36 38 40 42 44 44 44 44 42 40 40 38 35 32 29 26 24 23
11 6 6 13 15 16 18 28 28 22 17 16 21 26 19 16 19 24 28 34 36 32 32 31 32 35 36 38 40 42 43 42 42 41 40 40 39 35 33 30 26 24 23 23
20 16 13 19 22 21 14 22 12 11 16 26 26 24 21 21 23 27 30 33 31 28 28 30 34 36 38 40 41 42 41 39 40 40 40 39 36 34 31 28 26 25 23 22
11 10 12 15 18 18 17 17 17 23 26 29 27 26 25 23 25 31 33 28 25 25 28 32 35 38 39 40 41 41 39 38 38 39 39 36 34 33 30 27 26 24 23 23
13 13 18 23 26 27 24 24 27 32 31 29 29 29 29 27 31 29 32 22 22 25 29 34 37 38 39 40 40 39 37 37 38 39 37 33 33 32 28 26 24 23 22 22
25 25 25 25 27 27 28 30 30 31 30 30 30 30 30 26 35 33 18 18 22 27 32 35 37 37 39 40 40 39 37 36 37 38 35 32 31 29 26 25 24 22 21 21
29 29 29 26 27 27 29 30 30 30 31 30 32 28 29 36 29 22 15 19 25 30 34 36 36 37 39 40 40 38 37 36 36 37 34 32 29 27 25 24 23 21 20 21
31 25 27 28 28 29 31 32 32 33 32 29 28 31 35 33 17 11 16 23 29 34 35 35 36 37 38 40 39 37 36 36 36 35 33 30 28 27 25 23 22 21 19 20
33 31 33 32 31 30 29 30 30 28 26 27 30 34 32 23 9 14 22 27 32 33 33 35 35 36 37 37 37 36 35 34 33 32 31 29 27 26 24 23 22 21 20 19
28 28 30 26 28 29 30 29 27 27 27 27 37 30 14 7 12 20 26 29 30 31 33 34 35 35 35 34 34 34 34 32 30 30 29 28 26 24 23 23 21 20 20 19
31 31 31 32 32 32 31 30 27 27 34 30 28 10 5 11 18 24 27 27 28 31 33 34 34 33 31 33 34 34 33 31 29 29 28 27 25 24 23 23 22 21 19 19
33 32 31 31 31 30 29 28 31 33 33 19 4 8 15 19 25 25 25 26 29 31 33 34 32 30 32 34 33 33 32 30 29 29 28 26 23 23 22 22 21 20 19 19
28 28 28 29 29 25 25 31 30 22 14 5 10 14 17 24 25 24 26 28 30 33 35 35 33 33 35 36 34 32 30 29 28 28 27 25 22 22 22 22 21 20 19 19
25 26 24 21 26 26 22 20 16 18 17 13 19 22 23 25 24 25 29 30 32 35 35 35 35 34 36 36 34 31 29 29 27 27 26 24 22 22 22 22 21 21 20 20
19 16 15 16 16 15 14 9 10 17 24 26 26 25 24 24 26 29 33 35 35 36 36 35 36 36 36 35 33 31 30 28 27 26 24 23 22 22 22 22 21 21 20 19
1 1 3 6 7 9 14 20 25 27 27 26 24 25 25 27 31 34 36 38 37 37 38 37 37 37 37 36 34 31 29 28 27 26 24 23 23 23 23 23 22 20 20 20
7 7 10 13 18 21 22 23 25 27 27 26 27 28 30 32 35 36 38 41 38 38 37 36 36 37 37 35 34 31 29 28 27 26 25 24 24 25 26 26 25 24 21 19
13 18 20 20 20 22 26 29 29 28 28 29 30 33 35 37 40 41 41 41 40 40 39 37 36 36 35 33 33 31 28 28 27 26 25 25 25 25 26 28 29 28 27 26
15 16 18 22 24 25 25 26 27 28 29 32 35 38 41 43 45 46 45 43 42 41 40 39 38 37 35 33 32 30 27 26 26 26 25 25 26 27 28 30 30 32 33 33
18 20 21 22 24 24 25 26 29 31 35 38 41 44 46 46 47 42 40 41 42 42 41 39 38 37 34 32 31 29 27 26 26 26 26 27 28 29 30 30 32 32 32 32
20 20 22 23 25 28 30 33 36 39 41 43 45 44 42 41 43 43 41 41 39 34 32 34 35 33 32 31 29 27 27 27 27 28 28 29 29 30 31 31 31 32 33 33
21 23 24 27 30 33 37 40 43 45 46 47 48 47 45 42 40 39 38 36 34 31 30 32 32 31 30 28 28 27 27 27 27 28 28 28 29 30 30 30 30 29 29 31
24 25 27 30 35 39 42 45 46 47 48 48 49 47 46 44 42 40 38 36 32 31 30 28 30 30 29 27 27 27 26 25 26 27 26 28 30 30 31 31 30 27 27 28

GFSNGP_700_spd_027.txt.gz
Wind_Speed
16 13 10 12 13 16 19 19 17 21 22 17 17 16 13 15 20 23 27 29 28 29 30 31 31 34 37 35 32 34 34 37 39 42 43 44 45 45 45 44 44 40 35 31
16 17 16 17 17 19 21 23 27 28 27 19 16 14 14 14 16 21 25 29 30 31 31 31 32 36 35 30 32 34 35 38 40 42 43 44 44 45 44 44 42 37 33 29
8 15 16 16 24 25 26 27 26 28 25 20 19 17 16 17 17 17 21 27 28 28 30 30 34 31 30 32 33 34 36 38 40 42 43 44 44 43 42 41 38 34 30 28
6 6 2 16 18 18 19 18 21 24 25 22 21 20 18 16 19 19 20 22 24 27 29 34 33 31 31 31 32 34 37 39 41 43 43 43 42 41 39 38 35 32 28 25
5 8 15 14 15 20 23 22 22 23 21 23 21 18 15 19 22 19 18 20 23 27 31 34 32 31 29 30 33 36 38 40 42 43 43 41 39 39 37 36 33 30 26 24
9 5 5 5 12 18 21 24 21 16 17 17 13 19 24 26 22 19 17 20 24 30 33 30 28 26 28 32 35 37 39 40 42 42 41 38 38 38 35 34 32 28 25 24
16 12 10 12 16 17 10 14 14 13 12 12 21 28 28 24 20 20 22 23 28 33 29 26 24 25 29 33 37 38 39 41 42 40 38 37 38 37 34 34 30 26 25 24
8 7 8 5 7 10 15 24 21 17 19 26 29 28 25 23 22 21 24 30 34 29 25 20 21 27 31 35 38 39 40 41 40 38 36 36 35 34 32 31 27 24 24 23
11 11 18 23 23 21 22 22 21 22 26 28 29 28 27 26 25 26 31 29 31 23 14 19 24 27 33 35 38 39 41 41 38 36 35 35 34 32 30 29 25 24 23 22
22 21 21 23 24 23 22 23 22 24 26 29 30 31 30 34 32 30 41 27 28 14 15 21 27 28 32 36 38 40 40 38 37 35 34 33 32 31 28 27 25 23 23 22
26 23 22 20 23 24 25 26 26 27 27 28 29 30 30 32 32 37 32 21 16 12 19 23 26 29 33 36 37 38 36 34 33 32 32 31 30 29 26 25 23 23 22 21
24 23 27 27 27 28 30 30 29 29 29 30 29 26 27 28 34 32 26 13 12 16 21 23 27 31 33 35 35 34 31 31 31 32 31 29 28 26 24 24 23 22 21 21
28 28 27 25 25 26 27 27 28 30 29 27 27 29 29 34 35 32 9 8 13 18 22 25 27 29 32 33 31 29 31 32 32 31 29 28 28 26 23 23 22 21 22 20
25 26 26 27 29 29 29 29 29 27 27 26 29 33 28 28 21 7 10 13 16 20 23 24 27 30 31 30 29 30 32 31 32 30 28 27 27 25 23 22 21 21 22 21
27 29 31 31 30 30 28 27 25 24 26 30 25 30 24 9 6 13 15 17 19 21 24 26 28 30 29 29 30 31 33 31 31 29 27 26 26 25 23 21 20 20 21 21
30 28 27 27 26 25 26 27 21 21 23 23 23 12 8 14 17 17 17 18 20 23 25 28 28 29 29 31 32 33 33 31 29 28 28 27 26 25 22 20 19 19 20 20
25 24 24 24 24 24 20 22 21 21 18 14 11 13 20 20 19 20 20 20 22 25 27 29 29 31 33 34 34 33 33 32 30 29 27 26 25 23 21 19 19 19 19 20
25 27 23 20 17 15 13 7 8 6 8 20 27 28 23 20 20 20 21 24 27 28 28 33 34 35 35 35 35 34 33 32 31 29 28 26 24 22 21 20 19 19 19 19
15 13 8 5 4 5 8 13 20 25 27 24 20 18 18 20 22 23 26 28 31 32 32 36 38 37 36 36 36 35 34 33 31 30 28 26 24 22 21 21 20 20 19 19
7 7 8 10 14 17 19 18 17 18 19 19 19 21 21 22 25 28 31 34 35 38 40 40 40 39 37 36 37 36 34 33 31 29 27 25 24 23 22 22 22 22 22 22
5 9 13 14 14 15 17 19 19 20 22 22 24 25 28 30 33 36 39 41 41 42 41 40 39 39 38 38 38 37 35 33 30 28 26 24 23 23 23 23 23 24 25 25
13 12 12 15 17 18 19 20 22 24 25 27 29 32 36 38 40 42 43 44 44 43 42 40 39 39 37 37 37 36 33 31 29 27 25 23 22 22 22 23 24 26 27 28
10 13 14 15 17 19 20 22 24 27 29 32 35 38 41 43 45 47 47 45 44 42 41 39 39 35 31 31 33 32 29 28 28 25 24 23 23 23 24 25 25 27 28 29
12 14 16 17 19 21 23 25 28 31 34 37 41 43 45 46 46 46 45 43 40 39 39 36 35 31 30 34 34 31 27 27 27 24 23 23 23 24 24 23 24 25 26 27
16 17 18 20 23 25 28 31 35 38 41 43 45 46 47 47 47 46 44 43 41 40 38 35 32 29 28 30 30 28 27 25 25 26 23 22 23 24 23 23 24 25 26 27
18 19 22 24 27 31 35 39 43 45 47 48 48 49 49 49 50 49 47 44 40 37 35 32 29 29 28 26 30 29 27 25 25 25 24 22 22 23 23 23 25 27 27 26
20 22 24 28 33 37 42 45 47 48 48 50 51 51 51 49 47 44 42 39 35 32 29 28 29 29 27 25 27 28 27 26 25 26 23 22 22 23 24 26 27 27 26 26

GFSNGP_700_spd_030.txt.gz
Wind_Speed
19 15 13 13 12 18 21 18 12 14 15 13 15 18 19 18 17 20 23 26 30 34 37 35 35 35 38 38 32 35 32 31 32 34 36 38 40 42 42 42 41 42 42 39
18 19 18 18 18 18 18 20 24 23 26 20 20 19 18 19 17 18 21 24 28 33 35 35 34 37 39 33 35 33 32 31 32 34 37 39 39 41 41 41 42 41 39 35
7 15 17 16 24 25 25 26 26 23 22 23 24 20 18 19 17 16 17 20 25 28 32 33 35 38 34 37 33 32 30 30 33 35 37 38 39 40 41 41 40 38 35 34
6 3 3 12 15 15 17 17 19 20 23 25 25 20 19 19 15 15 19 22 24 27 31 33 36 34 36 35 32 28 28 31 33 37 38 39 40 40 39 39 37 35 34 32
5 7 12 15 14 14 15 15 17 20 20 22 19 18 20 16 18 23 23 22 23 25 29 32 35 38 36 33 25 25 29 31 36 37 38 40 40 39 37 36 35 34 33 28
7 4 4 6 8 13 16 12 4 6 11 14 14 16 11 22 27 25 23 22 23 25 28 34 35 42 32 23 22 27 30 35 36 37 39 40 40 37 34 34 33 32 31 26
15 9 8 12 12 11 3 4 12 22 19 15 13 17 25 29 24 22 21 21 20 26 32 39 41 31 24 20 23 29 32 35 36 38 40 40 38 36 34 32 32 31 28 25
7 6 6 1 7 8 12 20 20 19 14 18 23 26 28 27 27 27 24 28 28 30 33 40 28 25 19 22 27 28 33 36 38 40 40 38 36 34 33 30 30 28 26 24
7 5 13 18 13 16 21 23 23 22 21 23 27 30 30 30 30 30 30 34 41 35 35 39 22 16 23 22 24 31 34 36 38 39 36 33 32 32 30 29 28 27 25 23
16 14 14 18 19 21 21 23 24 25 26 28 30 33 34 34 33 33 34 36 35 34 37 16 18 22 18 22 27 31 33 36 36 33 32 32 32 29 27 28 27 25 23 22
19 17 18 19 23 25 25 26 27 28 29 29 29 31 31 32 33 32 32 34 35 36 21 17 15 14 19 24 27 30 33 33 32 32 33 32 30 27 27 26 25 24 22 21
18 20 22 23 25 26 24 25 26 27 27 26 27 28 28 26 28 31 35 34 31 19 13 10 14 18 21 25 27 30 32 32 32 32 31 29 28 28 27 25 25 22 21 21
23 23 25 24 24 25 26 28 29 30 31 31 29 27 27 29 32 35 29 18 11 9 10 13 16 21 23 26 29 30 32 33 32 32 30 28 28 27 26 26 24 22 21 21
25 23 23 22 25 29 30 30 29 27 26 25 25 27 30 30 30 21 9 10 11 11 12 16 21 23 25 28 30 31 32 32 32 30 29 28 28 28 27 26 25 23 20 20
25 25 26 29 28 27 26 25 25 26 24 24 26 24 21 15 8 13 15 17 17 15 18 21 23 26 28 30 32 32 32 33 31 30 30 29 29 28 26 26 25 23 21 20
26 26 23 23 23 22 23 24 19 20 17 14 12 9 11 18 25 27 25 17 16 18 21 24 26 29 31 32 34 35 35 32 32 32 31 30 29 28 27 26 25 23 21 20
19 21 22 23 22 18 14 12 11 8 9 8 12 20 25 26 21 18 18 19 20 22 25 28 30 33 34 36 37 37 37 35 34 34 32 31 30 29 27 25 24 22 21 20
14 12 12 12 10 8 7 6 7 10 14 18 18 16 16 17 18 20 22 23 25 28 30 32 35 37 39 38 38 38 38 37 36 35 34 32 31 29 27 25 24 23 21 21
9 8 7 5 5 7 9 11 12 12 14 15 16 17 19 21 23 24 26 28 31 34 36 37 38 39 40 40 39 39 39 38 38 36 35 33 31 29 27 25 24 24 23 23
6 5 5 6 8 8 9 10 12 12 14 16 18 20 21 23 27 31 34 36 37 39 41 42 42 42 40 40 39 40 39 38 38 37 34 32 30 28 27 25 24 24 24 24
5 5 6 8 9 11 11 12 14 16 18 21 24 27 30 32 35 38 40 42 43 45 46 46 44 43 41 39 38 37 34 32 33 33 30 29 30 28 25 24 23 22 22 23
7 8 9 11 12 12 14 15 17 20 23 26 29 32 35 38 41 43 44 46 47 46 46 44 42 41 39 38 36 32 32 34 35 32 28 28 29 27 24 23 23 23 23 24
9 11 12 13 14 15 17 20 22 26 28 31 35 39 42 45 46 48 49 48 49 48 47 46 43 40 38 36 33 28 33 35 34 30 28 27 28 26 24 23 23 24 24 24
12 13 14 15 16 19 21 22 25 29 33 38 41 44 46 47 47 48 50 51 50 49 47 45 42 39 35 33 31 27 32 31 30 28 27 27 27 28 25 23 23 24 23 23
15 16 17 19 21 22 24 28 32 37 41 44 46 46 47 50 52 50 48 46 44 43 41 38 35 32 30 26 29 29 30 31 31 29 27 27 27 27 25 23 22 23 22 21
17 18 20 21 23 26 30 35 40 44 46 48 48 50 50 48 45 44 43 42 41 39 37 35 32 29 28 29 29 29 30 29 28 27 26 26 26 27 25 21 22 22 22 24
20 21 23 25 28 33 37 42 45 46 47 49 50 48 45 44 43 42 42 41 40 38 36 33 31 28 28 29 29 28 28 28 27 26 26 26 26 27 26 23 22 22 23 23

GFSNGP_700_spd_033.txt.gz
Wind_Speed
19 11 10 10 10 13 20 21 18 17 15 14 14 15 13 15 15 16 21 24 30 31 33 35 39 41 41 42 41 41 43 40 30 33 33 33 33 35 39 40 41 41 41 40
13 13 16 14 16 16 18 20 22 23 23 20 19 14 15 15 17 16 19 22 24 26 31 36 40 41 42 42 41 42 44 33 32 32 31 31 35 39 38 40 40 39 40 38
9 8 8 15 22 22 21 21 20 22 22 16 15 16 13 13 17 17 19 21 22 24 30 35 38 38 41 40 43 44 37 34 32 30 28 33 37 37 38 39 39 38 38 36
5 4 1 10 12 13 13 16 18 19 19 19 19 15 18 15 13 15 15 18 23 26 30 34 36 40 37 42 45 42 39 31 27 29 32 33 35 38 39 39 38 36 35 34
5 8 11 13 12 11 7 6 7 7 9 11 14 16 19 15 15 15 20 25 26 27 29 33 37 34 39 43 43 44 35 28 25 29 32 33 37 38 39 39 36 33 32 33
8 4 4 2 7 8 8 7 3 6 8 13 17 15 12 17 22 24 30 29 26 25 27 29 33 37 40 44 48 41 24 23 28 30 32 36 38 38 38 37 35 34 31 30
11 7 6 9 12 9 6 4 10 15 26 21 13 13 20 23 31 34 33 32 29 28 27 31 38 42 45 49 40 31 22 28 25 30 35 37 38 36 34 34 33 32 32 30
8 6 6 6 4 2 7 15 17 23 22 24 20 23 28 31 32 33 32 33 32 31 33 38 43 50 43 30 28 23 25 23 27 32 35 37 36 34 33 33 33 32 31 30
7 3 9 9 14 14 19 22 22 24 23 24 24 24 24 34 33 33 32 36 36 40 42 44 46 38 37 28 25 16 20 23 29 33 35 35 35 34 33 31 33 31 30 28
11 4 7 9 16 16 19 21 24 25 26 27 28 29 26 35 33 33 36 37 36 38 39 40 38 35 23 23 16 17 22 27 31 34 34 33 32 33 35 33 32 30 28 26
13 13 11 7 9 21 24 25 26 25 25 27 26 27 30 32 33 34 35 35 37 38 39 38 29 21 16 15 17 21 25 29 31 33 33 34 34 34 34 31 29 27 26 26
9 16 18 18 27 27 28 27 26 27 29 31 29 30 32 31 31 31 32 35 36 38 30 19 18 18 18 18 21 24 28 30 32 34 35 34 35 33 32 30 27 26 25 26
19 21 23 25 28 28 27 27 30 32 32 31 29 28 28 29 30 32 31 28 20 17 18 19 21 24 20 21 24 28 30 32 34 35 35 35 35 35 32 30 28 26 25 25
23 23 26 22 25 26 29 31 29 27 26 27 26 22 22 23 18 10 11 19 26 30 30 25 18 20 23 25 29 31 33 34 36 36 36 36 34 34 32 31 30 28 27 24
27 24 23 24 26 26 24 23 24 24 20 21 17 13 11 12 15 19 27 25 23 21 20 21 23 25 30 32 33 34 36 38 38 38 36 36 35 34 32 31 30 28 27 26
25 25 24 22 20 21 22 19 15 15 13 11 12 15 17 17 17 18 20 20 21 21 23 26 28 30 34 35 37 38 40 42 42 41 39 37 35 34 32 31 30 29 27 25
21 18 17 17 14 11 9 9 9 9 10 11 13 13 13 14 16 18 20 22 23 24 26 30 32 34 37 39 40 41 41 34 37 41 39 39 38 36 34 32 31 30 28 26
12 11 9 8 7 8 8 8 8 9 10 11 12 13 15 17 19 21 23 25 27 29 32 37 38 39 40 41 42 43 41 42 41 38 37 35 36 36 34 33 32 30 28 26
7 7 7 8 8 8 8 9 9 10 11 12 13 15 17 20 24 28 31 34 36 39 41 43 46 46 46 45 44 44 43 42 41 40 37 35 34 33 32 31 31 28 27 26
8 8 7 7 8 9 10 11 12 12 13 15 17 20 23 26 30 34 37 40 43 46 48 49 50 50 48 46 45 44 41 38 37 35 33 33 34 33 28 29 31 30 26 25
7 8 9 11 12 13 13 13 14 15 18 20 23 26 29 32 36 40 43 46 48 50 50 50 50 51 49 47 45 40 39 38 36 33 33 35 34 30 28 30 29 29 26 24
11 12 14 15 15 15 15 16 17 19 22 25 28 31 35 39 42 46 48 49 50 52 54 53 51 49 47 44 42 40 37 35 30 31 34 35 32 30 29 29 30 30 27 25
15 15 16 16 16 16 17 19 21 23 26 29 33 37 42 46 48 49 51 51 52 51 49 47 47 45 42 39 35 31 31 29 26 34 34 33 32 31 30 29 30 31 30 26
15 15 16 17 17 18 20 22 24 27 30 35 40 44 47 49 49 50 50 48 47 46 44 43 43 40 38 36 31 30 28 28 31 31 33 33 31 30 29 28 28 29 28 24
16 17 18 18 19 21 23 24 27 32 36 41 45 47 48 50 51 49 47 46 44 43 43 43 42 40 38 36 33 31 32 32 31 32 31 30 28 27 26 26 26 27 27 24
18 19 20 21 22 24 26 29 33 38 43 46 47 49 50 49 46 44 44 43 42 43 44 44 43 40 36 34 31 29 30 32 30 29 28 27 27 26 26 26 26 26 26 24
21 22 22 24 25 27 30 35 39 43 46 47 48 49 47 44 43 42 42 42 42 42 41 40 38 34 32 29 27 27 26 26 25 24 25 25 25 25 26 26 26 27 26 26

GFSNGP_700_spd_036.txt.gz
Wind_Speed
18 19 8 10 9 9 15 18 20 18 15 13 14 11 9 11 11 14 14 21 21 25 31 34 41 40 34 37 40 42 43 41 41 48 39 38 28 28 27 33 33 35 38 38
14 12 14 16 17 16 17 17 19 20 19 16 15 16 18 12 13 15 16 18 26 29 32 38 38 35 36 39 42 46 40 40 42 43 44 32 26 26 33 34 33 36 36 36
8 9 10 14 21 19 21 19 18 19 18 16 17 18 14 13 11 17 18 19 19 26 25 24 29 33 36 40 45 44 39 41 45 48 39 26 27 33 30 32 36 36 36 36
6 6 2 10 7 11 9 9 11 12 10 9 13 12 17 21 15 15 13 17 16 19 23 26 28 30 37 43 43 41 42 45 41 31 29 26 27 25 27 34 38 37 34 32
6 10 11 13 7 6 4 2 3 3 3 5 11 14 14 10 14 16 18 18 21 27 24 25 30 34 38 40 42 44 47 46 38 28 23 30 24 24 30 34 36 35 34 30
9 4 4 2 8 6 4 4 3 7 8 8 17 14 11 10 15 20 23 28 31 26 24 25 30 33 35 39 43 48 51 43 32 23 24 23 26 29 33 35 34 35 34 30
11 6 6 7 10 12 4 3 7 9 15 24 17 13 17 22 24 25 29 30 31 24 23 30 35 37 41 44 48 48 39 31 24 26 19 25 30 33 35 34 33 33 33 29
12 6 7 10 6 4 9 10 14 21 21 21 20 19 19 20 24 29 29 30 32 34 34 38 40 42 43 48 45 39 34 31 21 19 22 26 30 34 36 35 34 32 32 32
7 1 7 8 10 8 12 17 19 19 20 20 23 21 19 17 25 31 33 35 38 38 36 34 34 39 42 41 41 34 28 22 19 21 25 28 32 35 35 35 34 29 31 32
11 5 5 8 9 10 18 19 17 22 24 25 25 22 21 24 28 34 36 36 34 31 32 32 37 42 37 28 26 23 24 26 24 25 28 31 33 34 35 35 34 32 31 30
10 12 12 12 15 20 21 23 24 24 26 24 23 27 32 34 34 32 31 30 30 34 33 30 26 23 22 24 29 26 21 22 26 29 31 33 34 36 35 34 32 33 31 30
12 18 18 24 26 25 25 27 26 24 25 27 29 28 26 26 26 25 27 30 27 18 17 21 22 20 18 18 19 21 24 27 30 33 34 36 37 37 36 36 35 33 32 30
22 23 25 26 28 26 28 24 25 28 31 28 26 25 25 22 18 20 21 15 15 22 23 18 17 19 21 23 24 25 29 32 34 36 38 39 39 39 39 36 35 34 33 30
21 23 27 28 28 24 25 27 29 28 26 25 22 18 15 14 13 14 15 14 13 15 18 20 21 21 24 29 31 31 33 35 37 39 41 42 40 38 38 38 37 33 30 31
25 26 27 25 25 25 26 25 23 22 17 15 14 14 13 12 10 9 11 13 15 18 21 24 26 28 30 32 35 38 41 42 42 43 44 41 39 40 39 36 35 34 31 29
26 24 25 25 25 23 21 19 14 12 12 10 9 9 10 11 11 13 15 17 20 22 25 28 31 33 35 38 40 42 43 43 43 37 36 38 41 44 39 38 36 33 32 29
24 24 23 21 18 16 13 11 11 10 9 9 10 11 11 12 14 16 18 21 24 27 30 34 38 41 43 43 44 47 47 45 43 40 36 39 42 39 37 36 35 35 33 29
22 18 14 13 10 10 10 11 10 10 11 12 12 12 14 16 18 20 23 26 29 32 36 40 44 47 49 50 50 51 50 49 47 44 42 40 35 33 32 32 32 34 31 28
14 12 10 9 10 10 10 10 11 12 13 13 14 16 18 21 23 27 30 33 37 42 46 49 50 50 51 53 53 53 51 49 46 38 37 35 32 33 32 33 33 30 28 29
11 10 10 10 10 10 11 12 13 14 14 16 17 19 21 25 28 32 36 40 44 48 50 51 53 55 55 53 50 48 45 42 40 37 35 38 35 30 30 32 31 26 25 28
11 10 11 11 11 12 13 14 15 16 17 19 21 23 26 30 34 38 42 46 49 50 51 52 53 55 51 48 47 44 42 39 35 30 29 30 28 29 29 29 29 27 25 24
11 11 12 12 13 14 15 16 17 19 21 23 25 27 30 34 38 43 47 49 50 52 51 51 52 48 46 44 43 42 39 34 24 30 27 26 32 32 34 30 31 30 28 28
12 13 14 15 16 16 17 19 21 22 24 26 28 31 35 40 44 48 50 50 51 50 49 48 46 44 45 44 44 43 39 35 31 31 28 27 29 33 35 32 29 28 27 26
15 16 16 16 17 19 20 20 23 26 26 29 33 37 41 45 47 48 49 49 48 47 45 45 44 44 45 44 43 39 36 34 31 30 33 34 35 35 33 29 27 26 25 24
17 16 16 18 20 20 21 22 25 28 30 34 38 42 46 48 48 48 48 47 46 44 43 43 43 43 41 39 37 35 33 31 28 27 28 29 29 28 27 26 26 25 24 23
17 18 19 20 22 23 23 26 28 31 34 38 42 45 47 48 48 46 45 43 42 41 41 41 41 39 37 35 34 33 31 28 26 25 25 24 24 24 24 24 24 23 24 24
19 21 22 23 23 24 26 29 31 35 39 42 44 46 47 47 45 44 41 40 39 39 38 37 36 35 34 33 32 31 30 28 27 26 24 23 22 22 22 22 22 22 23 24

GFSNGP_700_spd_039.txt.gz
Wind_Speed
15 16 13 10 15 8 14 16 19 17 13 10 8 4 9 4 6 5 7 11 16 24 25 27 30 33 36 36 38 39 39 39 41 43 46 48 44 43 37 31 26 31 27 28
15 18 16 13 13 19 15 14 14 12 17 12 9 7 10 10 11 13 14 18 19 18 24 25 28 31 33 32 34 39 39 40 43 46 46 48 49 47 35 28 29 31 25 30
13 15 18 19 24 22 20 21 18 18 11 16 15 10 5 7 12 15 19 17 19 22 21 26 31 32 31 32 35 39 42 44 47 49 51 56 46 37 30 31 34 23 27 30
8 9 0 14 8 8 6 4 6 9 8 9 7 9 10 13 16 18 20 20 17 18 19 21 25 28 30 33 36 39 42 46 49 52 55 46 44 33 31 26 23 28 31 32
8 15 10 12 10 11 10 6 8 13 14 9 8 12 16 20 18 17 17 19 19 19 23 28 25 28 30 34 37 40 44 49 54 56 57 48 31 27 27 22 25 28 32 33
12 5 7 7 10 10 9 8 10 12 14 14 14 16 18 13 15 19 21 24 27 31 34 34 33 33 34 35 38 42 50 55 54 55 39 28 42 28 23 25 27 32 32 33
18 10 7 8 10 10 9 7 12 13 12 13 19 20 18 17 22 26 28 30 30 32 32 32 30 32 35 38 41 46 50 51 45 38 39 34 28 26 24 28 32 31 31 31
13 9 9 13 13 12 12 15 14 13 17 21 20 18 20 20 24 27 27 30 31 30 27 30 31 34 37 41 43 40 42 37 33 24 27 22 19 23 29 31 32 33 33 31
8 5 7 10 14 14 13 14 17 22 21 19 20 19 21 23 25 28 29 27 25 25 24 24 27 30 33 34 32 28 22 21 22 17 18 21 27 30 31 32 33 34 34 32
9 6 7 17 18 19 19 20 20 17 21 22 20 19 20 23 26 26 24 23 23 25 25 26 28 26 19 14 16 17 17 18 19 21 24 28 30 32 33 35 36 36 35 32
15 14 14 17 18 19 21 23 20 21 23 22 20 22 24 23 21 20 22 23 23 25 26 22 15 18 20 16 15 17 20 22 24 27 29 32 33 35 36 37 37 37 35 34
19 23 25 26 26 25 23 22 22 24 22 21 23 24 22 22 24 24 23 20 20 18 17 18 15 13 15 18 20 22 23 26 29 32 34 36 38 39 38 39 36 35 35 36
22 21 22 22 23 24 25 24 25 23 23 25 23 22 21 19 15 13 12 12 13 13 12 13 14 16 21 24 26 28 30 30 33 36 38 41 43 43 43 41 38 36 37 35
24 24 24 23 23 24 25 26 25 24 24 22 21 16 13 11 10 10 10 10 11 14 15 17 19 22 25 28 32 35 38 41 44 45 44 44 44 42 38 35 41 42 41 35
24 27 26 24 23 25 25 24 25 24 21 16 12 11 10 9 10 10 10 12 14 16 19 22 25 27 30 32 35 38 41 44 45 47 48 47 43 40 39 40 37 47 42 35
25 26 25 24 24 24 23 23 22 17 11 12 11 10 11 11 12 12 13 15 17 20 24 27 30 34 37 41 43 46 48 49 49 49 48 46 44 42 39 39 42 45 41 36
25 24 23 25 25 24 21 16 10 11 11 10 11 11 12 12 14 15 17 20 23 26 29 32 36 40 44 47 49 51 52 53 52 51 48 45 42 39 37 37 37 38 37 33
25 24 23 23 20 15 10 11 11 11 11 11 12 13 14 15 17 19 21 24 27 30 33 38 42 46 48 49 51 53 53 52 49 46 43 40 37 32 35 32 31 34 36 31
22 18 16 16 11 8 10 10 11 11 12 13 15 16 17 18 21 23 26 29 32 36 41 45 48 49 50 53 53 52 51 48 44 42 39 37 32 28 29 32 32 29 26 27
17 13 9 10 10 10 11 10 12 13 14 15 17 18 20 22 24 27 30 35 39 43 46 49 49 50 51 51 50 47 45 44 43 42 39 32 27 28 28 27 26 28 27 23
12 13 12 11 10 10 11 12 13 14 15 16 18 20 22 25 28 32 35 39 43 46 48 49 49 50 50 49 46 45 44 45 44 40 35 30 25 27 24 26 30 31 27 26
14 12 10 9 10 11 12 14 15 16 18 19 20 23 26 29 32 35 40 44 46 47 48 49 48 47 45 44 44 44 44 43 40 38 34 31 33 28 28 25 24 24 27 28
11 10 10 10 12 12 13 15 17 18 20 22 24 26 29 32 35 39 43 45 47 47 47 47 45 42 41 42 42 41 41 39 37 36 33 30 29 30 32 35 32 28 25 24
10 11 12 13 14 13 15 18 19 20 23 26 28 30 33 35 39 42 44 44 45 44 44 42 41 40 39 39 39 37 36 35 34 33 31 28 27 27 27 28 27 25 24 23
12 13 15 15 15 16 18 21 23 23 25 28 29 32 36 39 41 42 42 43 43 42 40 39 38 38 37 37 35 34 33 33 32 31 29 27 26 25 24 23 23 23 23 23
14 14 16 18 19 19 21 22 23 26 28 29 31 36 40 41 41 41 40 41 40 39 38 37 36 36 35 34 33 32 31 31 30 29 28 27 26 25 24 22 21 20 20 20
16 17 19 20 20 22 24 24 26 29 30 31 36 39 40 41 40 39 39 38 38 36 36 34 34 33 32 31 30 30 29 29 28 28 27 26 25 24 23 23 22 21 20 19

GFSNGP_700_spd_042.txt.gz
Wind_Speed
13 14 10 8 9 12 10 8 14 17 19 13 12 7 11 11 13 12 14 15 16 19 22 24 25 27 29 32 30 30 29 31 30 35 40 43 43 48 51 53 55 51 40 36
21 22 22 14 14 17 19 15 13 9 9 12 9 10 10 11 17 17 14 14 15 19 21 23 24 24 27 28 29 30 32 33 37 39 39 44 49 56 59 54 55 43 40 45
19 20 19 19 25 22 22 25 19 18 12 9 14 14 14 13 13 13 13 16 18 18 20 20 19 20 24 27 30 33 34 35 36 41 44 48 53 57 58 49 33 40 37 27
12 12 1 13 14 12 13 15 15 13 16 15 15 11 7 7 9 12 15 16 15 18 19 19 22 23 26 30 33 36 37 38 40 44 48 51 58 50 34 40 38 26 27 25
7 14 11 10 9 14 14 12 12 14 17 13 9 7 11 11 11 12 14 17 19 19 19 20 24 30 27 28 31 34 36 40 46 51 51 53 33 40 35 26 24 23 24 28
12 5 7 13 20 17 16 15 17 14 12 11 10 11 15 16 20 19 20 21 23 25 27 24 23 22 24 27 30 33 37 43 50 40 40 39 37 23 24 21 23 25 29 30
24 15 11 17 12 15 17 15 19 17 17 16 15 17 22 22 21 21 20 20 21 21 23 21 22 23 27 31 34 39 38 42 33 34 28 26 25 24 24 24 28 30 32 33
21 14 13 16 21 23 17 17 17 16 13 13 19 20 20 21 20 18 18 19 21 22 20 22 23 24 26 27 30 33 34 33 31 28 26 28 25 27 28 30 33 33 35 36
17 9 14 13 20 20 18 13 11 12 13 18 17 19 20 20 18 18 20 21 21 22 23 26 29 28 28 30 30 29 26 27 25 25 25 28 30 31 32 34 36 38 39 40
15 13 13 14 14 14 13 13 13 16 17 18 21 22 20 19 21 24 25 21 22 25 28 28 27 26 26 22 22 24 24 23 24 27 29 30 32 35 38 39 39 40 42 42
19 17 18 18 18 18 18 18 19 19 20 23 24 22 21 23 25 24 23 24 25 26 25 24 19 19 20 21 20 20 21 24 27 30 32 34 36 39 41 42 42 42 42 42
25 22 20 19 21 21 21 21 22 22 24 25 24 22 23 23 24 25 25 26 24 21 17 17 18 18 18 19 21 24 26 28 31 35 37 39 42 43 43 44 44 42 39 36
21 20 18 21 23 24 25 25 24 26 25 24 23 24 23 23 23 23 21 18 17 17 16 17 18 19 20 23 26 30 33 36 39 42 45 46 47 47 49 47 44 41 37 34
19 19 20 22 24 24 25 26 27 26 26 25 25 23 22 19 16 15 16 17 17 17 18 19 20 23 26 29 32 35 38 41 43 45 47 49 50 51 51 51 49 45 41 36
19 19 21 23 25 26 26 27 28 27 24 23 19 16 15 15 15 15 16 17 18 19 21 22 24 28 31 33 36 39 42 44 46 47 49 50 50 50 49 47 46 42 38 39
20 22 24 26 26 27 27 28 26 24 22 19 16 15 15 15 15 15 16 17 19 21 24 27 29 32 35 39 42 44 45 47 49 51 50 49 47 45 42 40 39 36 34 32
24 26 25 25 25 26 26 24 24 21 17 16 15 15 15 15 15 16 18 20 22 25 28 31 33 36 40 43 45 46 49 51 52 51 49 47 44 41 39 36 32 28 30 28
28 28 27 25 24 24 22 21 18 15 15 14 14 15 14 15 17 19 20 23 26 29 32 34 37 40 43 46 48 50 51 51 50 48 46 45 45 42 39 35 29 25 22 25
27 27 26 24 22 20 17 15 13 12 12 13 13 13 15 17 19 21 23 26 28 31 34 37 40 44 46 48 49 49 50 48 46 45 45 43 42 39 35 31 28 27 26 25
25 22 18 17 17 15 14 12 13 11 11 13 14 15 18 20 21 24 27 29 31 35 39 42 44 45 47 48 49 48 47 46 45 45 43 41 39 36 33 30 28 26 25 29
18 16 15 16 16 15 13 11 9 11 13 14 16 18 20 22 23 26 29 32 34 38 41 43 44 45 47 47 46 45 45 44 43 42 41 39 38 36 33 31 30 25 25 25
15 15 17 16 15 12 9 9 10 12 13 15 17 20 22 24 26 29 31 34 38 40 42 43 43 44 44 44 43 42 42 41 39 38 37 36 36 36 33 30 29 31 34 29
15 14 14 13 11 9 9 9 11 13 15 17 19 22 24 26 28 30 34 38 40 41 42 42 43 42 41 40 40 39 39 38 36 35 34 34 33 33 31 29 27 25 25 25
12 12 11 9 8 8 8 11 14 16 18 20 22 25 27 29 30 33 37 39 41 40 40 40 39 39 38 37 37 36 35 34 33 32 32 31 31 30 29 27 27 25 23 23
10 9 7 7 8 9 13 15 17 19 21 24 27 29 31 31 34 38 39 40 40 39 38 38 37 37 36 35 35 34 33 31 30 30 30 29 29 29 28 27 26 24 23 22
8 8 9 10 11 14 17 20 22 24 26 27 30 31 32 35 38 39 39 39 38 37 37 36 35 35 34 33 32 31 30 29 29 30 29 30 30 29 29 27 26 24 23 22
13 14 14 15 17 19 22 24 25 26 28 30 31 33 36 38 38 38 38 38 37 36 36 35 34 33 33 31 30 28 28 28 30 31 32 32 32 32 31 29 28 25 23 22

GFSNGP_700_spd_045.txt.gz
Wind_Speed
20 17 17 17 13 15 18 17 18 22 23 18 18 14 12 11 16 16 14 15 16 16 17 20 24 26 27 28 25 27 31 32 29 32 31 32 34 43 37 47 47 53 55 41
17 17 17 19 19 18 18 19 19 17 16 14 17 16 14 13 16 18 19 19 18 17 18 21 24 25 27 26 25 29 31 30 32 31 31 34 42 44 48 53 54 37 36 41
18 19 22 23 30 31 28 26 26 25 22 19 19 17 18 17 16 18 17 15 15 17 18 19 18 17 17 19 19 24 28 31 32 33 36 40 44 47 54 46 37 40 42 28
17 18 5 31 31 30 31 33 33 34 31 24 19 21 19 17 16 15 15 15 16 16 16 17 17 18 17 19 23 26 28 31 33 34 37 41 46 49 40 37 44 35 28 25
11 18 19 11 17 18 22 21 18 18 18 22 22 19 17 14 12 12 14 15 16 17 17 18 19 22 24 23 24 26 29 32 36 39 41 45 46 34 44 38 32 30 28 30
14 7 8 19 19 21 17 15 18 16 15 18 18 15 11 10 12 14 14 16 18 20 22 24 24 24 23 24 25 27 31 37 44 47 44 32 39 43 33 31 32 34 35 36
26 16 15 18 15 13 22 19 22 20 18 16 14 13 12 15 17 18 19 19 19 20 22 25 26 25 25 26 26 27 33 33 29 36 41 40 34 34 34 32 35 38 40 40
26 20 15 16 17 24 20 25 16 15 19 18 15 15 19 21 20 20 20 22 23 23 25 27 26 26 26 28 31 30 29 36 36 34 32 33 34 33 35 38 40 42 43 44
21 23 21 14 18 24 26 17 13 10 12 14 15 20 21 20 21 22 22 22 24 26 26 24 28 30 31 31 30 31 33 29 28 30 32 32 34 36 39 41 43 45 47 47
22 25 24 19 15 17 18 17 13 12 14 16 20 20 21 22 22 21 22 25 27 25 25 29 31 32 33 28 24 24 25 27 29 29 31 34 38 41 43 45 47 49 50 51
24 23 18 17 16 16 16 16 15 16 18 20 21 23 24 23 23 25 26 28 26 25 26 28 28 23 21 22 24 25 26 26 29 32 36 38 40 43 46 47 49 51 52 53
31 23 22 17 15 16 18 20 21 22 23 24 24 25 27 27 27 27 28 27 26 28 27 22 21 22 22 23 24 25 27 30 33 37 40 44 47 49 49 50 50 52 52 52
25 19 18 19 19 19 21 24 26 26 26 27 28 28 27 27 27 27 27 27 25 22 20 20 21 21 23 24 26 29 33 36 40 43 46 49 50 52 55 54 53 52 51 47
22 21 21 20 21 22 23 25 27 27 27 28 28 27 26 26 25 25 23 21 20 19 19 20 21 23 25 27 30 34 37 40 43 46 48 50 52 54 55 55 54 50 45 43
23 23 21 20 22 23 25 25 27 28 29 28 27 26 25 23 21 20 19 19 19 19 20 21 24 26 29 31 34 37 40 43 46 48 50 52 53 53 52 50 48 46 42 38
21 21 22 24 26 26 27 28 29 29 28 27 25 23 21 19 18 18 18 19 19 20 22 24 26 29 32 34 37 40 43 45 48 50 52 53 52 51 50 49 47 44 40 36
24 25 25 27 28 28 28 29 31 30 28 25 22 19 17 17 16 17 18 19 20 22 24 26 29 32 34 37 40 43 45 47 50 51 52 51 50 49 48 47 45 42 36 31
30 32 31 29 28 27 27 28 28 26 24 20 18 17 15 15 16 17 18 20 22 25 27 29 31 34 37 40 42 44 46 49 50 50 49 48 47 46 45 43 41 39 36 30
33 32 28 26 26 25 25 26 25 22 20 18 17 16 15 15 17 18 20 22 25 27 28 31 33 36 39 41 43 45 47 47 47 47 46 45 44 43 40 39 38 37 35 32
30 28 27 26 25 24 23 21 19 21 20 18 15 11 14 17 18 20 22 24 27 29 30 33 36 39 40 42 43 45 46 46 45 44 44 43 41 39 37 35 37 38 34 30
26 24 23 22 21 20 20 20 20 18 15 11 10 13 17 19 20 22 25 27 29 30 33 35 38 39 41 42 44 44 44 43 42 42 41 39 36 34 34 34 34 34 32 31
18 17 16 16 18 18 17 16 15 12 10 10 14 17 19 21 23 25 27 29 31 32 35 38 39 40 41 42 43 43 43 42 40 39 37 35 33 32 31 31 32 31 30 30
10 10 12 16 17 17 17 15 10 9 10 13 17 19 21 22 24 27 29 30 32 36 38 39 40 40 41 42 42 42 41 40 37 36 34 32 32 31 31 31 31 31 30 28
8 10 14 16 17 16 11 10 9 10 14 17 18 20 22 24 27 29 30 33 36 39 39 40 40 41 42 41 40 40 39 37 35 34 32 31 32 32 33 33 33 32 31 29
12 14 14 13 11 10 10 9 11 14 16 18 20 22 24 27 29 31 34 37 40 40 40 40 40 41 41 40 38 37 37 35 33 32 31 32 34 34 35 35 35 34 32 29
9 9 10 9 10 12 12 13 16 18 20 22 24 25 28 31 33 34 37 41 41 41 40 39 40 40 39 37 35 35 35 33 31 31 32 34 36 35 34 34 34 32 31 29
8 8 10 12 14 15 17 20 21 23 24 26 28 30 32 34 35 38 41 42 42 41 40 39 39 38 37 35 34 34 33 31 30 31 34 35 34 33 32 33 32 31 29 28

GFSNGP_700_spd_048.txt.gz
Wind_Speed
26 23 20 18 21 25 27 23 21 22 23 20 18 18 17 14 15 17 17 17 17 14 16 17 19 20 21 24 28 27 26 25 28 27 28 30 32 33 37 37 37 46 47 41
22 22 20 18 19 16 14 17 21 21 24 18 16 16 18 18 16 15 18 20 19 19 19 19 20 22 24 25 27 28 25 25 26 27 30 33 32 39 38 40 44 45 36 35
23 20 19 22 24 24 25 28 28 28 28 25 24 21 19 17 18 19 20 19 18 17 17 21 22 21 21 19 20 21 23 26 26 28 32 33 37 38 39 45 44 34 39 39
18 17 4 26 27 26 31 33 32 33 35 33 34 31 24 22 21 18 16 15 15 18 21 23 21 21 22 22 22 24 25 24 25 29 32 36 40 44 45 42 30 39 34 31
15 18 23 20 26 23 16 20 22 26 27 28 28 25 21 19 17 15 14 17 20 21 22 22 23 23 23 25 24 22 23 25 27 30 33 36 44 45 34 39 39 33 33 31
16 7 8 26 19 22 22 31 25 17 16 15 19 20 18 14 12 14 16 18 19 21 22 23 23 23 22 23 23 24 23 25 28 30 35 32 31 40 41 35 34 36 33 37
26 17 17 20 15 14 17 26 17 16 16 16 19 17 16 14 12 15 19 21 21 21 21 22 23 25 27 26 26 24 25 29 31 30 30 35 35 34 33 35 36 37 40 42
26 18 15 23 22 27 26 19 17 19 16 21 19 17 15 15 17 20 21 20 21 22 23 25 28 29 27 26 28 31 31 30 30 33 35 31 31 34 34 36 39 43 46 48
28 28 27 18 15 15 19 22 18 13 12 18 18 16 16 18 20 20 20 21 22 24 26 28 30 27 28 29 31 34 33 28 27 27 29 32 32 34 37 40 44 48 50 52
30 30 30 29 25 24 20 16 17 12 12 14 15 16 18 20 20 21 23 24 24 27 28 29 27 27 29 34 27 23 24 26 27 28 29 32 35 38 42 45 48 51 53 56
33 34 34 26 22 19 18 16 16 15 14 15 16 18 20 21 23 24 25 25 26 28 28 26 28 29 27 23 23 24 24 26 28 30 33 36 38 41 44 47 50 54 56 59
32 29 27 20 15 17 18 17 16 16 17 17 19 21 23 25 26 27 26 27 28 28 27 29 27 23 22 23 23 24 26 28 31 34 37 40 43 45 47 49 52 54 55 55
33 24 20 17 17 17 17 16 17 18 20 23 25 26 27 27 28 27 27 28 28 28 26 23 22 23 23 23 24 26 29 32 35 38 40 43 46 49 51 51 53 53 52 51
30 25 24 21 19 18 20 20 20 22 25 27 28 29 29 28 27 27 27 27 26 22 21 21 21 21 22 24 27 30 33 35 37 40 42 45 47 50 54 57 58 57 51 47
31 28 24 21 19 20 21 21 22 24 26 29 30 29 28 27 27 26 25 22 20 20 19 20 21 22 24 27 29 32 34 36 39 41 43 46 49 52 53 53 53 51 49 45
24 29 25 24 22 22 22 23 24 26 28 30 29 28 28 26 26 23 20 19 18 18 19 20 22 24 27 29 32 33 36 38 41 43 45 48 50 51 51 50 49 48 47 46
24 23 23 24 23 23 25 25 26 27 28 29 30 27 27 26 21 19 18 16 17 19 20 22 24 27 29 31 33 35 38 40 41 43 46 48 49 50 49 47 46 45 43 40
26 26 26 25 24 24 24 25 26 28 28 28 25 26 25 21 18 17 18 16 18 20 22 25 27 30 31 33 35 37 39 40 42 44 47 48 48 47 46 44 42 40 38 36
26 29 31 29 27 24 26 25 25 25 26 25 26 24 21 20 20 17 14 16 20 22 25 28 29 31 33 35 37 38 39 41 43 45 46 46 46 45 43 41 38 36 35 35
33 30 28 25 25 24 24 21 22 23 25 26 25 23 20 18 15 12 15 20 23 25 27 29 30 32 34 36 37 38 40 41 43 44 46 45 44 42 40 38 36 34 33 33
24 24 23 24 22 23 23 23 24 24 25 25 19 17 15 12 11 16 21 23 25 27 29 30 32 34 36 37 38 39 40 42 43 44 44 43 42 40 37 35 34 34 33 33
20 20 19 19 18 16 17 20 21 20 18 17 17 12 9 12 16 21 23 25 27 29 30 32 34 36 37 38 38 39 41 42 42 42 42 41 40 37 35 35 35 36 35 36
18 14 11 10 11 15 16 14 14 16 17 12 9 10 13 18 21 23 26 27 28 29 31 33 35 37 38 39 39 40 41 42 42 41 40 39 37 36 36 36 38 37 36 36
8 7 7 8 11 13 14 14 15 13 9 9 11 14 19 22 24 25 26 27 29 31 33 35 38 39 40 40 40 41 41 41 40 39 38 36 35 35 37 38 37 36 35 34
3 5 7 10 11 13 14 12 11 11 12 14 18 21 23 25 26 27 28 30 32 34 36 39 40 40 41 41 41 41 40 39 38 37 36 34 34 35 36 35 35 35 34 33
4 5 7 8 9 10 11 14 16 17 20 22 24 26 27 29 30 31 32 34 36 38 39 41 42 42 42 41 41 39 38 37 36 35 34 34 33 35 34 33 33 34 33 32
3 4 6 9 12 14 16 18 20 23 25 27 29 31 33 34 34 34 35 37 39 40 42 43 43 42 41 40 39 38 36 35 34 34 33 32 32 33 32 31 33 33 32 31

GFSNGP_700_spd_051.txt.gz
Wind_Speed
26 27 24 25 26 21 20 23 25 25 24 17 17 12 13 17 17 15 16 19 19 16 16 15 17 18 19 20 22 24 27 28 27 27 27 28 28 31 28 29 36 35 46 38
27 26 25 25 23 18 17 19 24 23 23 17 18 14 13 16 18 16 16 17 22 21 21 21 22 23 23 23 25 26 28 28 28 26 26 28 27 26 31 36 31 39 41 36
23 24 23 23 25 23 21 22 23 27 29 26 25 24 21 20 17 17 18 20 23 23 22 21 21 20 22 23 24 24 23 23 25 28 28 26 29 30 35 36 39 41 33 34
20 19 7 23 23 22 25 26 28 33 35 30 27 26 25 24 23 23 25 24 21 18 18 18 20 22 23 23 23 23 24 27 29 29 28 26 32 36 31 36 35 31 37 36
17 21 22 21 23 21 20 35 28 26 18 22 24 25 25 24 23 22 18 16 17 18 19 21 22 22 22 22 23 24 25 26 27 27 29 31 28 32 32 29 34 35 31 31
13 11 9 24 23 23 20 37 29 24 22 19 18 21 21 21 20 17 16 15 16 18 19 20 19 19 20 20 22 23 24 26 25 24 27 30 25 29 31 32 29 31 30 32
31 21 23 22 20 19 17 32 20 17 14 15 15 13 13 18 18 16 15 16 17 17 18 18 19 19 21 23 24 24 24 25 24 27 27 26 27 28 27 29 30 32 36 38
30 22 16 28 23 26 30 23 21 18 13 14 14 16 19 19 16 16 15 15 16 17 17 18 19 21 24 24 23 25 26 28 28 24 22 23 25 27 28 31 34 37 41 43
30 31 30 24 23 24 26 23 18 19 13 15 17 20 20 19 17 15 16 16 16 17 18 20 22 24 25 25 26 27 27 21 21 22 23 24 27 29 31 35 39 42 44 47
31 32 32 31 31 31 30 24 23 15 14 14 19 21 20 18 16 16 17 17 18 19 20 22 24 25 27 27 26 21 20 21 21 22 25 27 30 33 35 38 40 43 47 50
35 32 31 31 29 31 30 24 22 18 17 19 21 21 19 18 18 17 18 19 20 21 22 24 25 27 27 25 21 20 20 20 22 24 27 29 32 34 37 40 43 46 49 53
35 29 28 23 24 24 22 21 22 20 19 21 22 20 20 19 19 20 21 22 22 23 25 26 26 26 24 20 20 19 20 22 25 28 31 33 34 36 38 40 43 47 50 53
28 24 26 26 25 21 21 20 22 20 19 18 19 20 22 22 22 23 23 24 24 25 27 26 26 21 20 19 19 20 23 26 29 31 33 34 37 39 41 42 45 48 51 52
24 23 32 30 25 22 22 21 22 23 23 23 24 24 25 26 26 25 26 26 27 27 27 23 20 19 19 19 21 23 26 29 31 33 34 37 39 40 42 45 48 50 52 52
22 27 28 24 26 24 23 23 25 25 24 24 25 27 28 28 27 29 27 26 28 26 22 20 19 18 20 22 24 27 29 31 32 34 36 38 39 41 43 47 50 52 52 50
28 31 28 27 27 26 26 24 25 26 26 27 29 30 30 30 31 28 27 29 27 22 20 17 18 19 22 24 27 29 31 32 33 35 37 38 40 42 45 48 50 51 50 48
28 31 30 26 27 25 29 28 27 28 29 31 33 32 31 30 27 26 28 28 23 19 17 19 18 20 24 27 28 30 31 33 35 37 38 39 40 43 46 48 48 47 45 43
30 31 31 27 26 26 29 31 31 32 33 36 37 33 33 29 26 27 27 24 20 20 19 16 18 23 25 27 29 31 33 35 36 37 38 39 41 44 46 46 45 43 41 38
29 30 24 25 26 28 26 25 27 30 34 35 33 28 24 26 27 27 23 20 19 17 15 17 21 25 27 29 31 32 34 36 36 37 38 40 42 43 44 43 41 39 38 37
30 21 25 27 27 25 25 28 29 29 31 28 25 25 25 26 26 20 17 17 12 13 17 21 24 27 29 30 32 34 35 36 37 38 39 40 41 42 41 40 39 37 37 37
18 23 28 28 23 21 21 20 20 22 25 24 23 23 23 17 15 16 12 10 13 17 21 24 26 28 30 32 33 34 36 37 38 38 39 40 40 40 39 38 36 36 38 38
15 14 12 10 10 13 16 17 21 23 22 20 20 16 14 15 13 9 11 15 19 21 23 25 27 29 31 32 34 36 37 38 39 39 39 40 40 39 38 36 35 36 38 36
7 8 9 8 9 10 14 16 16 14 15 14 13 14 14 11 11 14 18 20 22 24 25 27 29 30 32 34 36 37 38 39 39 39 39 39 38 37 36 35 35 36 36 35
5 2 2 3 3 6 8 9 11 12 13 14 14 12 13 16 18 21 24 25 27 28 29 31 33 34 35 36 37 38 38 39 39 39 38 37 37 36 35 35 35 35 34 34
1 2 3 4 5 7 9 11 12 12 12 13 16 19 20 22 25 27 29 31 33 34 35 36 36 37 38 38 39 39 39 39 39 38 37 36 35 34 33 33 33 33 32 33
2 2 4 6 8 9 8 9 11 14 18 19 21 23 25 28 31 33 35 36 37 38 39 40 39 39 40 40 40 39 39 38 38 37 35 34 33 32 32 31 31 31 30 31
3 3 3 4 5 8 11 14 16 18 21 23 25 28 30 33 35 37 38 40 41 41 41 41 41 41 41 40 40 39 38 37 36 34 33 32 31 31 30 29 29 29 29 29

GFSNGP_700_spd_057.txt.gz
Wind_Speed
29 24 20 21 27 26 27 25 25 21 21 17 16 18 15 15 13 13 18 17 14 13 19 20 20 22 17 20 21 21 21 21 23 25 28 31 33 34 32 33 32 32 32 34
32 27 25 24 24 25 26 24 26 26 26 18 19 18 17 15 18 17 17 20 22 22 27 26 27 26 25 22 23 25 24 25 29 30 32 33 32 32 30 30 29 33 33 32
27 23 25 26 26 26 26 25 24 26 23 18 16 17 18 17 19 23 22 21 22 27 27 27 30 29 27 28 27 29 30 28 28 29 28 28 28 30 31 34 34 33 35 33
20 21 14 22 20 23 27 26 24 24 22 21 19 20 19 21 23 29 29 28 27 24 24 25 28 31 31 28 25 24 25 27 28 28 27 29 31 32 33 35 34 31 30 29
21 23 19 22 21 19 21 22 22 24 22 21 21 23 30 29 28 28 28 28 29 28 26 26 26 24 23 22 23 24 26 27 26 27 27 30 31 32 31 29 28 27 26 26
14 20 19 28 23 16 17 25 19 20 20 19 17 23 21 22 22 24 26 28 28 26 25 25 23 22 22 23 23 24 25 25 25 26 27 27 27 27 26 24 24 23 23 25
25 15 17 18 18 19 18 31 14 15 16 16 17 17 22 23 23 22 22 23 26 26 25 23 22 21 22 23 24 24 24 25 25 26 26 27 25 23 23 22 23 23 24 26
23 23 20 18 20 23 25 15 16 16 16 19 22 23 21 22 22 21 21 24 28 26 24 22 22 22 23 23 23 23 24 25 25 26 26 24 23 22 22 22 23 26 28 29
21 17 23 19 25 21 21 19 19 20 18 22 26 23 23 25 24 23 24 26 28 27 24 22 22 23 23 23 23 25 25 26 26 25 23 22 22 22 23 24 26 29 30 31
28 29 21 16 19 20 25 21 21 25 24 25 26 25 25 25 25 25 27 28 29 27 25 23 23 24 25 25 26 26 26 26 25 23 23 23 23 23 25 26 29 31 32 33
28 25 22 26 31 30 22 24 22 23 23 22 26 26 24 25 26 27 28 30 29 27 25 25 26 26 26 27 28 29 28 27 25 24 24 24 24 26 27 28 30 31 33 35
27 22 25 30 24 32 28 24 24 24 23 25 26 26 25 26 28 29 30 31 31 30 28 27 28 28 29 29 31 30 29 28 26 25 24 25 26 27 27 30 30 32 34 36
28 26 28 27 19 23 29 30 27 23 24 25 28 27 26 29 30 33 33 33 34 32 31 31 31 32 32 32 31 30 30 27 26 24 24 25 26 28 32 29 30 33 34 37
24 27 30 26 28 26 28 29 31 28 29 26 28 28 29 31 35 36 36 36 36 36 35 36 36 35 35 34 32 31 28 25 24 24 25 26 27 28 29 31 34 37 39 37
23 29 30 30 27 24 25 30 31 32 31 34 30 31 32 34 36 40 40 40 40 40 40 40 39 39 39 35 33 27 24 22 25 26 26 26 27 28 30 32 33 35 37 40
25 28 25 31 32 30 29 30 29 30 33 30 32 34 36 38 40 41 42 43 43 44 45 44 44 42 37 31 26 23 24 26 24 24 26 27 28 29 30 32 33 35 38 40
22 23 28 36 35 36 33 33 33 36 36 34 32 34 40 44 44 45 47 48 49 48 46 47 46 39 26 24 26 24 22 19 22 26 27 28 29 30 31 32 34 36 39 41
26 26 29 32 32 34 34 36 39 36 34 36 38 43 44 47 48 48 48 49 49 50 50 43 34 33 27 21 21 19 20 21 24 27 29 30 30 31 32 34 36 38 40 42
36 35 32 33 32 34 36 38 38 40 42 39 40 41 41 42 45 45 45 45 42 35 31 27 22 20 21 22 21 20 21 23 26 29 31 31 32 33 35 36 38 39 41 42
41 45 43 42 46 48 46 44 45 41 38 35 36 37 37 39 40 37 31 25 23 23 24 22 22 21 21 20 21 23 25 27 29 31 32 34 35 36 38 39 40 41 42 43
25 25 28 29 29 27 27 31 28 23 23 24 23 23 24 23 20 18 18 20 20 20 19 19 19 20 21 24 26 28 30 31 32 34 36 37 38 39 40 41 42 42 43 43
9 9 10 11 11 11 11 9 7 6 6 7 7 7 9 10 12 15 16 17 16 16 18 20 22 24 26 28 30 33 35 36 38 39 40 40 41 41 42 42 42 43 43 42
3 2 3 4 5 4 3 5 7 7 6 5 3 5 8 10 11 10 10 11 15 19 22 24 25 27 30 32 35 37 38 40 42 42 43 43 43 42 42 42 42 43 42 40
3 3 4 5 6 8 8 9 6 4 2 2 2 3 4 6 8 10 14 18 22 24 26 29 31 33 36 38 40 41 43 44 44 44 44 43 42 42 41 42 42 41 40 38
6 7 8 9 7 6 5 3 0 2 3 4 4 6 8 11 16 19 22 25 28 31 33 34 37 39 40 42 43 44 44 44 44 43 43 42 42 41 41 41 40 38 37 34
7 5 4 3 2 2 2 3 3 4 5 8 11 14 17 20 23 26 28 31 33 36 38 40 41 42 43 44 45 45 46 46 45 44 42 41 40 40 39 38 37 35 33 32
3 2 3 2 2 2 3 5 8 10 13 16 19 22 24 27 30 32 34 36 38 39 41 43 44 46 47 47 47 47 46 45 44 42 40 40 39 38 36 35 33 31 30 29

GFSNGP_700_spd_060.txt.gz
Wind_Speed
32 28 27 26 27 27 30 27 23 26 22 19 17 15 16 9 13 17 16 13 13 16 14 15 18 20 20 20 19 17 18 20 19 21 21 23 25 28 31 33 33 33 32 34
37 30 35 25 29 31 27 29 26 25 26 21 19 14 15 11 14 15 16 16 17 17 21 21 22 22 22 23 22 23 22 22 22 24 27 28 30 32 33 33 33 32 31 32
34 32 30 36 32 28 25 30 27 28 24 22 19 18 15 18 16 18 16 17 18 21 24 29 29 24 25 28 27 25 25 25 28 30 32 32 32 33 32 31 31 32 33 34
21 26 23 30 30 30 27 25 24 24 23 21 20 18 16 16 15 21 25 24 23 28 31 31 31 32 27 31 30 30 31 32 32 28 28 30 30 29 29 30 32 33 33 32
18 27 26 23 22 19 21 27 26 27 25 22 21 19 18 19 19 26 33 35 30 32 35 34 29 28 26 29 32 31 27 26 26 28 28 27 26 28 30 31 32 32 30 28
11 9 14 25 25 24 25 28 24 21 21 22 21 19 18 20 22 27 27 25 27 29 31 31 29 28 26 25 24 24 24 25 26 26 25 26 28 29 31 31 29 27 27 27
16 13 17 21 27 24 27 27 17 20 22 23 23 20 22 21 21 21 25 26 25 27 28 28 28 26 25 25 24 24 25 25 25 25 27 27 29 30 31 29 28 27 27 27
13 9 18 11 24 31 30 27 26 14 16 15 18 20 21 21 22 22 24 25 25 25 25 26 27 27 26 24 25 25 25 26 26 27 28 29 29 30 29 28 28 26 26 27
19 23 17 15 26 18 22 18 19 13 20 17 23 25 22 22 24 25 26 25 26 26 26 27 29 27 26 26 26 27 28 27 27 28 29 30 29 29 28 26 27 26 27 28
18 23 27 16 16 18 23 22 24 21 13 19 26 26 23 22 25 25 25 27 27 28 28 30 31 30 29 28 28 28 28 28 29 30 31 31 29 28 26 25 26 27 28 29
24 26 22 19 19 23 23 25 23 23 22 23 26 24 23 24 25 25 25 27 29 30 32 33 33 32 30 29 29 30 31 32 32 32 31 32 28 27 26 26 27 29 29 30
22 22 22 26 26 27 27 32 30 32 32 24 25 23 24 26 26 25 26 28 32 34 36 37 36 33 32 32 33 34 33 33 33 33 33 31 28 29 27 26 27 27 28 30
30 28 27 30 29 26 22 23 23 26 29 26 27 27 26 26 27 27 30 30 33 36 39 40 39 37 36 37 37 37 35 34 35 35 32 30 30 28 27 27 26 26 28 30
20 22 27 32 34 29 25 25 23 26 29 31 30 29 26 27 30 31 33 34 37 39 40 40 41 41 41 41 41 38 37 40 39 34 30 28 26 26 28 27 27 28 29 30
22 22 28 32 29 28 29 27 22 24 28 30 29 30 32 34 33 35 38 39 40 42 43 44 44 45 44 44 44 45 46 45 36 29 25 25 26 24 23 26 28 30 32 34
28 31 28 32 29 26 31 31 30 29 27 29 30 31 34 34 37 41 42 42 43 46 48 48 48 47 47 48 48 47 45 35 25 25 27 26 23 23 24 26 29 31 31 33
26 24 27 26 25 31 32 31 31 31 28 29 28 30 34 39 41 43 45 46 48 50 51 51 48 48 48 49 48 45 32 25 24 25 26 23 23 24 26 28 30 32 33 35
30 31 32 26 28 31 30 30 33 32 30 33 35 35 38 39 42 45 47 49 51 51 50 47 47 46 42 33 25 24 25 25 25 24 24 23 25 27 28 31 32 34 36 37
38 36 32 31 33 34 33 31 31 32 32 35 36 38 39 36 38 42 44 44 43 40 38 33 25 20 22 24 24 23 22 23 23 24 25 26 29 30 32 34 36 37 38 40
42 42 43 43 44 45 44 42 43 43 41 34 30 29 29 30 32 33 31 28 25 21 18 18 20 20 20 20 20 22 22 24 26 28 29 31 34 36 38 39 40 40 40 41
25 26 29 32 33 32 32 33 34 30 25 23 20 18 16 17 17 15 10 8 10 12 14 15 16 16 17 19 21 23 25 27 29 32 34 35 37 39 40 42 42 43 43 42
8 10 10 10 10 10 9 6 4 2 3 3 5 6 4 3 2 3 5 8 9 10 10 12 15 18 21 24 26 29 31 33 34 37 38 40 41 42 43 44 44 43 42 41
4 4 5 7 7 7 8 10 11 11 11 10 8 5 2 0 2 3 4 6 8 10 14 18 22 25 28 31 33 35 36 38 40 41 42 43 43 43 43 43 42 41 41 40
7 7 8 10 11 10 9 11 10 9 6 4 2 1 1 2 4 6 8 12 16 19 22 25 28 30 33 35 37 39 40 42 43 44 44 44 44 44 44 43 42 40 39 38
7 9 9 10 7 6 6 6 3 2 1 1 1 3 5 8 11 14 17 21 24 27 28 32 33 35 37 39 41 42 44 45 46 46 46 45 44 42 41 40 39 38 37 35
7 6 5 4 2 2 2 2 3 4 6 7 10 12 14 17 19 22 25 27 29 33 35 36 38 40 41 44 45 46 47 47 47 46 45 43 41 39 38 38 36 35 33 31
1 2 2 3 3 4 5 6 8 10 12 15 18 20 22 24 26 28 31 32 35 36 38 39 42 43 43 43 43 44 44 45 45 44 42 39 37 35 34 33 32 30 29 28

GFSNGP_700_spd_063.txt.gz
Wind_Speed
38 30 23 33 26 32 35 34 29 28 21 20 17 21 16 17 12 22 17 17 19 20 14 16 17 22 30 31 24 19 20 19 18 18 18 18 18 20 23 26 28 30 31 30
47 33 34 24 30 33 29 31 31 29 28 26 15 22 23 18 20 21 26 24 21 22 22 18 16 18 20 20 23 23 22 20 20 20 21 21 22 25 28 30 30 30 31 30
35 38 31 35 36 34 33 24 30 29 27 22 22 23 21 13 19 20 20 25 23 22 26 26 23 22 24 23 24 24 24 25 26 25 25 25 28 30 31 30 31 30 29 30
25 27 14 24 33 24 26 30 28 27 18 16 21 21 26 21 21 19 21 22 24 26 28 28 29 29 23 23 28 30 31 30 28 28 28 31 32 28 30 30 29 28 29 31
23 29 20 42 25 23 25 29 26 29 25 21 16 19 25 20 18 21 23 23 25 28 33 34 34 35 33 28 29 32 32 33 31 32 33 30 28 30 29 28 28 29 30 31
9 6 15 19 30 27 21 29 21 18 20 18 20 32 26 24 20 21 23 24 27 30 33 35 34 32 32 33 29 30 30 33 30 28 27 28 29 29 27 27 28 29 29 29
8 5 15 4 22 27 21 21 23 19 22 22 25 24 23 25 24 21 22 23 26 28 29 31 30 30 30 30 27 27 26 26 26 26 27 28 28 28 28 28 29 30 30 29
14 8 9 12 17 24 40 23 25 23 20 17 19 14 14 19 26 23 22 24 24 26 28 29 28 27 26 25 24 25 25 24 25 27 28 28 28 29 29 30 30 30 31 32
11 19 17 19 11 16 22 26 19 20 29 36 23 13 22 23 21 23 23 24 25 24 26 27 26 25 25 25 26 26 25 25 26 27 28 29 30 30 30 30 30 30 31 32
12 19 20 18 22 20 28 21 18 14 18 23 20 25 24 27 23 24 24 25 24 24 24 27 27 26 27 29 29 27 27 27 29 30 30 30 31 31 31 31 32 32 31 30
21 26 16 16 16 22 25 29 23 16 13 16 21 24 23 25 25 25 25 25 25 25 24 27 29 30 31 32 32 31 31 31 32 33 34 33 32 32 31 33 33 32 31 30
27 21 16 16 13 13 17 14 16 22 23 27 33 31 32 31 27 26 25 26 26 25 26 29 32 33 35 37 37 36 35 35 36 37 37 37 35 35 35 33 32 31 30 29
28 28 25 25 27 24 27 26 25 26 29 27 30 30 27 27 26 26 27 28 28 28 30 32 36 38 40 42 43 41 40 40 40 40 40 39 38 38 35 32 29 28 28 28
21 22 27 25 25 31 29 30 28 27 25 24 28 28 27 28 28 29 29 27 32 33 34 37 39 42 44 46 47 46 45 44 43 43 43 42 39 34 29 27 28 31 29 26
27 25 24 20 21 29 33 31 25 26 27 22 23 25 27 32 31 32 34 34 35 38 39 40 41 45 47 49 50 49 47 43 41 41 42 39 32 28 27 31 33 31 29 28
31 33 31 30 31 34 35 32 27 27 27 29 28 27 29 30 34 33 33 36 39 40 42 44 45 47 50 51 50 47 43 43 46 44 38 29 26 28 30 32 30 28 28 29
30 30 30 29 27 30 30 22 24 28 25 26 28 29 28 29 29 30 33 35 39 43 45 47 48 49 49 49 48 48 45 36 29 28 28 27 27 28 29 28 27 29 31 30
28 25 22 22 23 29 30 28 28 23 20 18 18 21 24 26 27 27 32 40 36 41 43 44 45 42 38 37 35 31 27 27 27 25 24 25 27 27 27 28 31 32 33 36
30 29 28 29 30 30 29 27 27 28 27 28 28 30 30 29 30 31 31 34 33 34 33 34 32 30 28 23 20 21 21 21 22 23 24 25 27 29 30 32 34 35 37 38
38 39 39 38 37 37 36 36 38 39 39 38 34 31 29 25 24 26 27 26 25 25 24 19 14 13 13 14 15 17 18 20 22 24 26 29 31 33 35 36 37 38 39 41
18 19 19 19 20 20 22 25 25 24 22 18 17 17 13 13 15 16 16 12 8 6 5 6 8 10 11 12 16 19 22 25 28 30 32 34 36 37 38 40 41 42 43 43
3 4 5 5 5 6 6 4 4 4 6 6 7 8 7 6 5 4 3 2 2 4 6 8 9 12 15 19 22 26 28 31 34 36 38 39 40 41 42 43 44 45 44 43
9 9 10 10 10 9 10 10 11 11 10 10 9 8 6 4 3 2 1 1 3 6 9 12 16 20 23 26 30 32 35 37 39 40 42 43 44 45 46 47 46 45 44 43
9 10 10 11 11 10 8 11 10 9 8 7 6 5 3 2 2 4 6 9 12 16 19 22 25 28 30 33 36 37 39 41 43 44 45 46 47 47 46 46 45 44 43 41
9 9 10 9 7 7 7 7 6 5 5 4 4 4 5 7 9 12 15 18 20 23 26 28 30 32 35 37 39 40 41 43 44 45 45 45 45 44 43 43 42 41 39 37
6 5 4 4 4 5 5 5 4 5 6 7 10 12 14 16 18 19 22 24 27 28 30 32 34 35 36 38 39 40 41 42 42 42 42 41 40 39 38 36 35 34 33 32
1 1 1 2 3 3 4 5 7 10 12 14 16 17 19 21 23 25 26 28 29 31 32 33 33 33 34 34 35 35 34 35 35 35 34 33 31 29 28 28 28 27 26 26

GFSNGP_700_spd_069.txt.gz
Wind_Speed
28 23 28 30 30 29 39 39 33 35 41 42 34 29 27 22 26 22 22 20 20 22 18 18 15 14 15 16 14 16 21 22 22 21 18 19 17 16 18 21 24 26 25 26
24 20 20 34 36 37 35 35 30 38 40 31 29 28 26 25 29 31 23 21 24 24 25 23 20 16 16 18 17 15 14 18 20 22 20 18 18 18 21 23 24 26 25 25
8 6 16 22 48 39 42 39 29 32 33 32 32 31 33 26 25 34 30 30 29 26 28 25 24 15 15 15 16 17 16 20 23 24 23 23 23 22 24 23 25 27 28 29
16 20 5 19 19 32 39 39 43 34 28 26 26 26 27 29 31 28 32 28 30 21 22 25 24 21 20 20 21 21 20 19 22 25 27 26 26 28 29 28 30 30 31 33
7 8 25 46 19 14 23 42 40 44 26 30 29 33 24 21 23 30 26 29 33 27 23 24 25 23 23 24 25 25 25 23 22 24 26 27 29 32 32 32 32 33 34 29
10 4 6 39 38 14 27 38 27 36 39 26 32 34 29 22 22 23 23 25 27 29 26 24 23 24 26 27 27 28 27 27 27 28 28 29 30 30 32 33 34 33 30 31
22 10 17 25 21 20 17 22 17 12 23 31 35 32 33 28 21 22 27 25 23 26 24 24 26 27 26 26 26 26 27 30 30 29 28 28 27 27 30 31 28 29 29 30
12 10 9 14 14 13 15 20 22 15 17 21 26 34 29 25 21 20 20 23 25 27 28 23 20 21 24 25 26 26 29 30 30 28 28 28 27 29 28 28 29 30 30 30
11 8 9 12 13 18 13 10 18 28 23 21 24 21 24 19 21 21 24 24 21 19 16 16 16 18 20 21 23 27 29 29 27 27 27 26 27 27 28 29 30 31 32 33
32 33 23 19 18 14 20 17 21 26 26 16 14 27 30 22 19 20 24 16 17 17 17 18 19 20 20 22 24 26 27 27 27 26 26 27 29 31 32 33 34 35 35 35
32 34 41 37 35 24 24 22 21 24 35 26 21 18 24 25 23 19 20 19 19 19 19 21 23 24 23 24 25 27 27 28 28 28 29 31 33 34 35 36 37 38 39 39
25 25 32 26 22 23 24 22 19 14 10 17 17 29 26 22 21 19 21 22 22 23 22 24 25 25 27 26 25 26 27 28 29 31 33 35 37 38 39 40 40 41 41 41
34 21 20 20 16 22 24 24 19 17 17 18 17 19 22 27 24 14 21 28 24 23 24 23 23 25 28 28 28 26 25 28 31 33 36 38 40 41 42 43 43 44 45 46
30 24 21 18 17 18 20 21 22 24 21 20 20 20 18 18 19 15 25 27 27 27 26 26 27 28 30 34 33 30 28 28 29 33 36 38 41 43 44 45 46 48 49 48
16 14 18 20 21 20 20 22 24 20 19 18 20 23 24 23 23 22 24 27 28 26 25 26 26 30 31 29 30 29 30 30 30 31 36 38 37 36 37 40 42 43 42 41
31 26 24 22 21 21 21 23 23 22 24 24 24 22 19 18 21 21 23 22 24 23 26 28 29 28 27 25 26 29 32 36 36 34 33 32 33 34 36 37 37 37 37 37
30 30 29 27 25 28 28 27 26 26 25 24 23 21 22 18 17 18 19 21 24 28 30 29 27 26 26 29 33 36 35 34 32 31 31 33 35 36 36 34 33 32 32 33
24 25 24 26 27 27 30 28 27 28 27 24 19 22 22 20 19 20 21 24 27 28 26 27 29 34 35 36 34 31 29 29 30 31 32 32 30 28 28 28 29 30 32 35
18 24 24 24 25 24 25 26 26 27 26 24 24 25 23 24 26 26 27 27 27 31 33 34 32 30 27 25 24 24 25 27 27 25 24 24 24 26 27 29 31 34 36 39
19 23 23 24 29 30 27 26 27 27 27 27 25 22 22 25 25 25 27 26 27 26 24 22 18 18 18 20 21 21 19 18 18 20 21 23 25 28 31 34 37 39 42 45
15 16 14 16 17 16 16 16 16 16 16 17 15 15 16 16 15 14 11 9 10 10 12 13 13 11 10 11 12 14 16 18 20 23 26 29 32 35 38 41 44 46 48 50
5 5 4 4 3 4 2 1 0 0 1 2 3 3 3 5 5 3 4 3 2 2 3 4 6 8 11 14 17 20 23 26 29 32 35 37 39 41 43 45 47 48 48 49
9 11 11 12 12 12 12 12 12 11 8 7 7 7 6 5 4 4 3 3 4 5 7 10 13 17 20 23 26 29 31 33 35 37 38 40 40 41 41 41 42 42 42 43
12 11 10 11 11 10 7 10 9 8 7 7 6 7 7 6 6 6 8 10 12 15 17 20 22 24 27 29 31 32 34 35 35 35 35 35 35 35 36 37 37 38 38 38
10 9 9 9 6 6 7 8 8 6 5 5 6 7 8 10 12 14 15 17 19 21 23 24 26 28 29 30 30 30 30 30 30 31 32 32 32 33 33 33 32 32 31 30
7 6 6 6 5 5 5 4 3 5 7 9 11 12 13 14 16 17 19 21 22 23 24 25 25 25 26 27 27 27 28 28 28 28 28 28 28 29 28 28 28 28 28 28
3 3 3 3 4 5 7 8 10 11 12 13 14 15 16 18 19 20 20 21 21 21 21 22 22 23 23 24 25 25 25 25 25 25 26 26 26 26 26 26 26 27 27 27

GFSNGP_700_spd_072.txt.gz
Wind_Speed
11 14 19 22 22 26 26 33 35 33 34 31 29 28 29 25 22 21 21 20 22 22 19 15 13 11 9 8 10 12 14 19 22 22 22 25 24 22 22 24 26 20 33 37
19 18 19 22 30 27 32 31 33 38 42 34 32 29 22 21 20 21 24 27 24 22 21 20 16 17 15 9 8 10 12 12 15 20 22 24 23 21 21 21 22 22 23 28
17 18 17 22 3 8 22 32 36 39 33 22 26 29 22 24 24 25 25 29 25 27 29 24 21 19 21 15 11 11 11 12 14 16 21 24 25 23 22 23 25 26 27 29
9 5 3 15 18 14 21 20 23 34 41 40 36 26 22 22 23 28 26 30 31 32 30 27 20 20 23 22 17 17 17 16 20 22 21 23 25 27 27 27 28 29 31 33
5 7 20 29 26 26 22 33 20 27 32 37 33 34 32 24 23 21 19 20 22 27 29 32 25 24 25 26 20 21 22 21 21 25 23 22 24 27 27 30 32 34 35 36
11 5 6 9 10 14 23 39 30 26 26 27 31 40 33 30 24 26 27 23 18 24 26 32 31 28 26 26 24 24 27 23 24 29 25 23 26 27 30 33 34 35 40 41
19 7 15 24 17 12 12 23 16 15 21 17 23 34 37 32 28 28 30 25 28 26 27 28 32 30 26 24 25 29 29 27 27 26 29 30 31 32 33 35 35 34 35 37
16 9 12 1 6 5 14 19 17 22 18 10 13 19 26 29 27 24 20 25 23 27 26 28 31 27 29 28 29 29 29 28 29 30 31 33 33 32 32 31 26 31 34 40
17 15 11 9 12 18 22 25 16 20 23 13 13 10 15 22 26 30 27 25 29 22 18 15 20 21 22 25 26 27 26 27 29 30 31 30 27 31 24 25 33 36 37 37
22 29 22 19 21 33 34 30 26 20 13 24 29 25 21 21 24 20 22 25 25 22 20 16 15 16 19 23 25 22 24 25 27 28 29 29 31 27 27 31 36 37 36 36
31 29 30 25 26 31 27 29 22 22 13 20 18 20 31 28 18 25 26 26 23 16 16 19 19 19 22 24 23 27 25 24 26 27 28 29 27 26 29 33 35 35 37 38
28 26 28 27 23 24 26 21 19 16 14 15 18 19 19 35 21 18 18 20 28 29 24 27 24 25 24 22 24 28 27 26 27 26 23 22 23 27 30 32 34 36 39 41
30 31 33 34 31 28 21 22 20 26 22 21 17 19 17 19 16 17 27 27 28 26 23 27 31 26 22 22 22 26 27 28 30 32 26 23 24 26 29 31 34 36 38 39
33 37 34 30 26 22 21 15 18 21 24 23 21 20 17 17 19 21 20 21 25 18 20 23 24 25 25 23 24 26 26 26 29 27 21 18 22 24 26 27 29 30 32 35
25 30 32 29 23 22 20 18 20 22 20 19 19 18 20 22 22 24 22 24 21 21 28 27 26 27 21 20 23 26 24 23 21 20 22 25 28 28 26 26 27 29 31 34
26 28 30 29 20 18 20 18 19 23 24 23 24 24 24 23 22 20 20 21 25 28 30 30 28 27 27 27 27 21 20 23 25 26 26 27 27 27 28 28 30 33 35 36
20 21 24 22 24 23 25 26 25 26 28 27 25 25 24 19 20 18 19 22 22 23 24 26 27 28 27 28 24 24 25 28 28 28 28 27 26 28 30 32 33 33 32 32
21 18 19 20 21 22 23 26 26 26 25 25 23 24 25 27 23 22 21 22 23 25 26 29 30 29 27 27 26 27 27 26 24 23 24 26 27 28 28 27 26 26 27 29
22 18 17 18 20 24 28 27 23 22 22 24 26 25 23 26 26 24 25 24 23 24 24 25 26 26 25 20 16 17 17 19 21 22 22 22 22 22 22 23 25 27 30 33
24 23 20 22 23 25 27 27 25 25 25 24 24 22 22 22 23 20 20 19 19 17 17 13 11 10 11 12 14 14 15 15 16 16 17 19 21 23 27 30 32 35 38 40
14 16 17 17 16 16 15 13 12 13 14 14 13 13 12 13 12 7 7 7 7 6 7 7 7 8 8 9 10 11 12 15 17 20 23 26 29 32 34 36 37 39 40 41
7 7 7 6 4 3 2 2 2 2 3 3 4 4 3 1 2 0 2 1 1 1 1 3 5 7 10 12 15 18 21 24 26 28 30 31 33 34 35 35 36 36 37 37
8 8 9 9 9 9 11 11 10 9 8 8 9 9 8 8 6 4 4 5 6 7 9 12 14 17 19 21 23 25 26 28 30 30 31 31 31 31 31 31 31 32 33 33
13 12 12 12 12 10 8 11 10 10 10 9 8 8 6 5 4 6 9 11 13 14 16 18 19 21 23 25 26 26 27 27 27 26 26 26 27 27 28 29 29 30 30 30
10 10 10 9 7 5 7 8 7 5 5 5 7 8 9 10 11 12 14 15 16 18 20 21 22 22 23 23 23 23 23 24 24 24 25 26 26 26 27 27 27 27 27 27
5 5 4 4 3 3 4 5 6 8 11 11 12 13 13 15 16 17 18 18 19 19 20 20 20 20 20 21 21 22 22 23 23 24 24 25 25 25 25 25 25 25 24 25
1 1 1 3 4 6 8 10 10 11 12 13 14 15 16 16 17 17 16 16 17 17 17 18 18 18 19 20 21 21 22 22 23 23 23 23 24 24 24 24 24 24 25 25

GFSNGP_700_spd_075.txt.gz
Wind_Speed
6 5 10 13 15 18 19 18 22 20 25 23 24 24 21 21 18 22 17 14 15 20 20 16 15 13 12 8 11 15 17 17 18 23 27 25 29 26 29 35 28 28 31 37
14 13 17 20 19 19 27 28 31 27 30 25 13 18 23 22 23 24 22 16 20 24 21 19 19 17 18 15 12 14 15 14 14 17 22 23 28 27 29 28 29 30 30 31
8 9 12 16 18 4 6 8 16 22 22 23 27 23 17 14 19 26 22 21 21 27 28 23 23 20 19 19 18 15 12 12 16 18 17 18 22 26 30 30 27 28 30 30
9 5 7 13 14 14 15 16 23 23 23 22 23 31 32 26 21 23 22 24 26 28 33 33 31 26 25 24 24 21 16 16 16 19 20 21 21 25 28 30 29 30 31 32
6 12 17 14 11 16 19 23 21 25 26 28 24 24 32 28 21 25 23 20 21 25 29 32 35 32 27 28 27 28 25 22 19 20 22 24 24 24 29 31 34 34 34 35
8 4 5 7 10 5 13 24 18 19 19 23 24 20 19 28 32 25 27 27 22 24 25 27 30 35 33 32 30 30 29 25 24 24 25 28 29 28 28 30 32 36 38 39
15 9 14 18 19 17 6 11 13 15 15 18 13 11 11 17 25 30 26 29 35 27 25 25 29 31 34 37 35 31 31 29 27 30 30 33 33 30 31 33 34 36 39 40
17 9 12 6 7 1 10 12 15 11 9 19 17 11 6 15 10 18 29 32 31 31 39 30 31 34 34 38 38 30 31 31 33 33 31 32 34 35 36 38 38 38 39 41
14 12 5 7 8 18 22 23 26 22 11 19 13 16 14 12 8 11 18 21 27 23 26 27 31 30 32 36 31 37 30 32 33 32 33 34 34 36 37 40 38 34 34 30
23 26 26 23 26 29 29 31 30 29 25 20 20 10 9 18 22 22 18 19 16 26 28 24 27 32 34 29 26 26 26 28 29 34 32 30 30 32 31 30 32 32 28 34
27 26 27 25 25 29 24 25 30 32 31 23 21 11 12 15 16 21 25 26 17 16 24 27 22 22 21 24 29 32 29 28 28 29 28 29 29 29 29 27 25 29 31 32
27 27 28 28 27 29 29 27 27 22 21 22 21 18 13 17 18 17 15 30 20 18 30 20 20 20 22 26 25 24 25 25 27 30 28 30 28 27 27 26 28 31 30 30
31 28 30 34 33 32 27 27 25 22 19 21 17 21 19 18 20 17 17 17 18 22 26 34 35 28 32 32 34 34 29 30 28 26 27 25 24 24 25 26 26 29 31 33
22 27 32 32 30 31 30 26 26 24 22 18 19 17 19 21 19 18 21 21 21 19 23 26 35 38 33 30 31 34 30 26 22 24 19 16 15 16 18 18 21 25 28 28
19 21 26 31 30 24 26 21 18 20 19 12 15 17 18 21 23 24 23 22 24 23 24 27 25 26 22 23 19 18 17 15 15 20 18 17 18 20 23 25 28 30 29 28
20 25 22 25 27 27 30 32 20 21 18 20 21 21 21 23 25 25 24 24 24 24 23 25 27 30 28 29 27 24 23 22 18 21 22 21 23 27 29 29 27 27 28 30
21 24 18 19 25 26 25 25 28 21 24 26 25 25 24 23 23 23 24 25 22 22 22 21 23 25 26 26 23 23 23 23 21 23 26 24 24 25 25 25 27 29 30 30
28 28 27 25 20 22 24 25 26 23 23 24 24 23 24 26 26 26 27 29 29 24 24 22 23 24 22 19 17 15 17 16 15 18 19 19 21 23 24 25 25 25 24 24
27 26 25 26 24 21 22 21 22 22 23 25 24 23 24 25 25 25 23 26 22 18 21 20 20 15 10 10 10 10 11 12 14 15 16 17 18 18 18 18 19 22 25 28
22 22 24 24 23 20 17 17 17 14 14 14 16 17 16 16 15 13 12 12 14 11 9 8 6 6 7 7 7 8 9 9 9 10 11 13 16 19 22 24 27 28 30 32
15 14 14 14 13 12 11 9 8 6 6 6 6 5 5 4 3 2 1 4 3 2 2 1 2 4 4 5 6 7 10 13 15 18 20 22 24 25 26 27 28 29 29 30
6 4 3 2 1 2 2 3 4 4 6 6 5 5 6 4 6 7 5 5 6 6 5 5 5 7 9 12 15 17 19 20 21 22 23 24 24 24 25 25 25 26 26 27
7 10 10 11 11 10 11 11 11 11 9 10 10 11 10 9 8 6 5 6 7 9 11 13 15 15 16 17 18 19 20 21 21 22 22 21 21 22 22 23 23 24 24 24
13 13 12 12 12 12 9 11 11 10 9 8 6 5 5 6 7 10 12 13 13 13 14 15 16 17 18 18 18 18 18 18 18 18 19 19 20 20 21 22 22 22 23 23
9 8 8 9 7 5 5 6 5 3 3 5 7 9 10 10 11 11 12 13 14 14 15 15 15 15 15 15 16 16 17 17 17 18 19 20 21 21 22 22 22 22 22 22
5 4 4 3 1 1 3 4 6 9 10 9 10 11 11 12 13 13 13 13 13 14 14 14 15 15 15 16 16 17 17 18 18 19 20 20 21 20 20 20 20 21 21 21
1 0 2 4 6 7 8 9 9 10 11 12 12 13 13 13 13 13 13 12 12 13 13 13 14 14 15 16 16 17 18 18 18 19 19 19 19 19 19 20 20 20 20 20

GFSNGP_700_spd_078.txt.gz
Wind_Speed
6 4 4 7 10 11 12 12 13 17 18 18 18 18 21 24 21 22 19 13 18 17 20 22 23 22 19 21 23 26 27 29 30 28 28 32 34 32 33 35 32 33 33 32
12 12 11 15 15 15 17 19 21 21 22 20 20 20 20 23 21 23 21 19 21 21 22 24 26 24 23 21 20 17 21 23 24 26 27 29 36 36 34 35 33 37 42 41
14 9 11 16 22 20 17 11 9 10 11 8 11 14 20 24 19 20 21 19 21 24 24 27 27 25 28 26 26 24 20 20 24 25 24 24 27 31 34 36 36 38 39 40
6 5 9 10 8 10 15 11 10 14 12 14 18 20 18 19 31 29 22 20 27 28 27 26 28 33 29 30 29 28 28 26 26 24 21 21 23 25 26 30 34 37 40 40
8 16 18 17 10 10 12 10 14 12 12 12 17 18 6 19 26 35 34 27 25 28 29 29 31 32 34 35 35 32 34 32 30 27 24 22 23 24 25 27 28 34 37 40
9 8 6 1 10 14 13 9 3 5 7 9 11 10 9 13 21 27 31 32 30 32 26 21 23 30 35 38 39 38 34 37 37 34 31 29 28 29 31 32 30 32 36 38
22 11 8 7 7 13 10 2 7 8 12 13 14 13 12 11 11 14 24 36 29 30 37 32 28 29 28 35 38 41 39 36 40 41 39 33 34 35 36 34 33 32 35 37
19 13 12 9 4 8 8 9 12 15 15 17 14 15 18 18 13 12 14 21 34 34 34 36 37 37 33 30 33 40 43 46 43 41 41 41 38 38 37 36 37 38 39 40
12 12 7 9 3 12 18 21 22 21 21 21 20 19 20 23 26 19 18 17 16 21 33 35 34 34 43 40 34 36 39 44 46 42 43 45 44 39 38 38 40 41 42 43
8 9 9 12 21 21 25 26 27 27 28 29 27 25 20 18 14 14 19 20 21 18 16 28 32 33 33 34 35 41 37 40 41 40 41 46 43 37 36 37 40 41 43 42
15 15 19 17 26 24 24 25 23 23 25 26 28 31 29 21 20 18 17 18 21 24 23 21 19 21 25 33 34 32 31 32 33 34 36 38 34 33 33 36 36 36 36 38
16 19 22 24 29 28 27 30 31 27 25 23 21 19 18 21 24 24 16 19 17 15 19 25 22 17 17 21 26 29 28 29 32 35 38 40 45 41 35 33 31 31 31 31
25 22 25 28 29 29 29 28 27 27 26 23 23 21 19 22 25 21 15 18 19 22 21 24 26 28 33 28 26 25 27 29 29 32 34 33 36 33 34 32 31 27 28 29
26 26 24 25 24 26 30 30 30 32 27 24 24 24 20 16 15 15 16 17 22 24 25 24 23 22 22 24 26 21 21 22 25 25 28 28 23 21 22 22 22 24 25 25
22 21 23 23 24 22 23 26 30 25 22 19 21 19 21 14 16 22 24 22 27 26 24 24 23 24 26 27 26 24 30 27 21 16 22 23 21 23 21 20 21 22 24 27
19 23 25 26 28 25 27 29 29 28 28 28 25 22 20 21 21 23 23 24 26 25 24 23 23 23 24 26 30 32 32 26 25 28 30 25 23 24 23 24 26 27 26 24
27 26 27 27 27 26 27 29 29 27 27 27 30 27 25 27 26 22 23 23 24 25 27 26 23 21 22 25 26 23 22 23 26 26 26 26 25 24 19 19 21 22 23 25
31 31 30 31 30 30 28 30 28 26 25 23 22 18 17 18 20 21 24 26 25 25 25 25 23 21 17 19 18 15 13 11 13 13 13 13 13 16 18 20 21 22 24 25
27 26 24 25 25 26 26 27 31 26 21 20 17 17 18 19 20 20 19 18 17 16 17 16 16 12 8 8 7 7 7 9 10 11 12 14 15 17 17 17 18 20 22 25
23 22 22 22 24 24 24 22 22 20 18 16 11 10 10 11 11 11 9 9 10 11 8 5 4 4 4 3 4 4 4 5 6 7 9 11 13 16 18 21 23 25 26 27
18 17 16 16 15 15 15 13 11 10 9 6 2 2 2 2 2 1 1 3 3 3 2 2 2 2 2 3 4 6 8 11 13 15 16 18 19 20 21 22 23 23 24 25
6 5 4 4 3 4 5 5 6 5 6 7 6 6 6 6 8 8 6 6 5 5 3 3 5 8 10 12 13 15 16 16 17 18 18 19 19 19 20 20 21 21 22 23
5 6 7 9 9 9 11 12 12 11 10 10 10 10 8 6 4 2 3 4 6 7 9 11 12 12 13 14 14 14 15 15 15 16 16 17 17 18 18 19 20 20 21 22
10 10 10 10 11 11 10 12 11 10 8 6 3 1 2 4 6 7 9 9 9 10 11 12 13 14 14 15 15 15 15 15 15 15 16 16 17 17 18 19 19 19 20 20
7 7 7 7 6 4 4 4 3 0 2 3 5 7 8 8 9 10 11 12 12 12 12 12 13 13 13 13 13 13 13 14 14 15 16 16 17 17 18 19 19 20 20 21
2 2 2 2 0 2 4 5 5 6 7 7 8 9 10 11 12 12 12 12 12 12 12 11 11 11 12 12 13 13 14 15 15 16 16 17 18 18 18 19 20 20 21 21
2 3 4 6 8 8 8 8 8 9 9 10 11 11 11 11 11 11 11 10 11 11 11 11 12 13 14 15 15 16 17 17 17 18 18 18 18 18 19 19 20 20 20 20

GFSNGP_700_spd_081.txt.gz
Wind_Speed
11 7 4 5 8 11 15 17 16 15 14 14 14 13 15 16 18 20 22 20 13 13 15 18 21 27 30 30 29 31 34 36 36 35 34 32 34 34 34 35 36 35 35 35
12 13 11 13 13 15 17 17 18 19 22 21 20 16 16 19 20 21 19 21 18 17 16 20 24 24 28 28 27 28 29 30 31 31 34 35 35 35 36 38 38 38 39 39
16 10 10 14 18 20 18 17 17 20 13 8 6 7 10 14 16 18 20 20 20 26 17 18 22 25 26 29 30 30 28 25 24 27 30 30 32 34 35 38 40 40 39 41
13 8 11 13 9 5 11 15 11 10 10 6 8 11 12 15 20 20 27 30 28 25 25 27 25 27 28 32 31 32 34 33 30 28 27 29 31 32 31 32 35 37 38 38
14 16 19 20 10 9 11 15 8 9 8 7 8 8 8 4 13 17 15 21 33 29 29 32 32 28 29 32 35 36 35 37 36 35 33 32 32 31 28 28 29 31 32 34
9 14 11 19 6 8 11 13 3 4 5 7 8 7 14 15 18 16 14 17 22 36 32 32 33 29 30 24 29 39 39 38 40 43 42 40 37 35 33 32 30 32 33 33
22 15 9 7 4 3 12 6 1 2 4 7 8 11 17 18 20 19 20 18 20 25 33 34 35 37 34 31 29 25 28 38 46 44 40 39 42 48 42 41 38 36 37 37
18 10 18 10 8 10 5 1 3 5 9 14 13 14 15 17 18 20 19 20 26 24 25 35 38 39 40 39 38 37 35 33 39 45 48 49 56 50 50 44 44 45 44 42
17 16 5 7 13 7 7 8 11 13 16 20 21 21 20 21 16 17 17 21 25 30 27 21 27 42 41 37 36 39 44 40 36 38 41 46 43 56 52 52 49 46 45 45
12 10 12 4 12 10 12 16 19 21 22 24 25 26 28 29 29 25 22 23 22 20 24 26 25 21 25 35 37 41 46 46 37 41 45 40 46 49 50 50 49 44 47 50
14 10 9 5 5 20 16 21 22 23 24 25 26 25 23 25 24 22 25 27 25 23 19 19 24 27 21 21 27 31 35 38 43 38 41 49 47 46 47 41 44 47 48 47
9 12 10 9 17 19 22 28 30 29 28 27 26 25 24 23 23 22 28 28 27 24 22 19 23 26 30 26 20 18 21 25 24 25 30 34 39 42 35 43 36 30 35 38
20 18 19 24 28 28 25 28 29 30 29 26 25 26 25 25 24 27 28 25 25 23 24 19 23 24 24 26 27 23 18 23 27 27 25 27 27 31 37 38 43 46 49 45
19 18 22 26 30 27 25 27 25 27 30 30 28 28 25 26 27 28 22 20 20 25 24 19 22 26 25 23 22 25 27 24 25 11 19 20 29 32 28 27 27 27 30 31
22 23 25 23 21 23 26 25 27 26 25 27 27 25 26 23 25 26 28 26 24 26 28 27 27 29 27 24 24 24 29 27 27 30 32 19 18 19 23 21 22 25 23 23
22 24 25 23 24 25 27 26 26 26 27 28 30 29 29 30 28 27 27 25 26 27 27 27 29 29 27 25 25 26 26 29 30 26 28 25 24 25 25 26 21 19 18 18
23 28 29 31 33 32 31 30 29 29 30 29 28 28 28 30 29 29 25 26 28 26 26 27 28 27 26 26 27 25 22 20 20 21 21 18 18 17 14 12 12 12 13 15
30 31 30 29 28 28 30 30 29 29 30 30 27 26 26 26 25 23 19 14 18 19 20 19 19 17 15 15 14 12 10 9 8 9 9 10 10 11 12 14 15 16 17 18
27 27 28 26 25 24 25 25 24 25 25 24 20 18 19 19 18 13 10 9 12 13 15 15 12 8 8 7 5 5 5 6 5 6 7 8 9 10 11 12 13 15 18 21
25 25 24 23 22 22 22 22 22 20 19 16 13 12 12 11 11 10 7 6 8 9 8 6 4 3 3 3 4 4 4 5 6 7 8 10 12 15 17 19 21 22 23 24
21 20 19 18 17 16 16 15 13 10 9 8 6 5 5 5 4 2 2 4 4 3 2 2 1 1 2 4 6 8 9 10 11 12 14 15 17 18 19 20 21 21 22 23
11 10 9 8 7 6 6 5 5 5 5 5 5 5 4 4 4 4 3 2 1 1 1 3 5 6 8 9 10 11 12 13 15 15 16 17 17 17 18 18 18 19 19 20
2 1 2 2 3 4 5 6 7 7 6 7 7 7 6 4 3 2 3 4 6 6 8 9 10 11 13 14 14 15 15 16 16 16 16 16 16 16 16 17 18 19 20 20
4 5 5 6 6 6 6 6 7 6 5 3 2 2 4 5 5 6 7 8 9 10 11 12 13 13 13 14 14 15 15 15 15 15 15 15 16 16 17 18 18 18 19 20
2 2 2 2 2 1 1 2 3 5 6 7 7 6 7 8 9 10 12 12 12 13 13 13 14 14 14 14 14 14 14 15 15 16 16 16 16 17 17 17 17 18 18 19
3 3 3 3 4 6 8 9 10 10 9 9 10 10 11 12 12 12 12 12 12 12 13 13 13 13 13 14 14 15 15 16 16 16 17 17 17 17 17 18 18 18 19 19
7 8 8 9 11 12 13 12 11 11 12 12 12 12 12 12 12 12 12 12 12 12 13 13 14 14 15 16 16 17 17 17 17 17 18 18 18 18 19 19 19 19 20 20

GFSNGP_700_spd_084.txt.gz
Wind_Speed
11 15 10 4 13 15 24 28 20 15 18 14 6 9 8 7 10 11 13 13 10 8 7 13 21 18 20 24 28 27 30 30 29 29 29 30 30 29 29 31 30 30 30 30
15 10 11 12 9 11 9 15 11 9 15 12 15 16 12 10 9 9 10 12 11 15 17 15 7 25 25 23 27 32 33 34 35 34 33 33 35 37 36 34 34 35 36 36
15 11 13 13 13 12 10 9 10 14 15 10 8 4 4 7 10 13 15 15 17 18 21 20 20 7 23 26 25 27 29 28 29 30 29 27 29 31 33 36 35 35 35 38
15 13 4 9 3 5 6 14 16 16 8 5 7 2 5 7 12 15 17 19 23 26 27 25 24 26 24 19 27 28 27 28 31 32 32 31 30 29 31 33 34 35 36 37
10 12 16 19 7 4 5 7 9 11 4 4 2 8 6 7 14 8 14 15 14 20 31 36 27 25 24 22 25 26 32 30 32 31 38 38 36 31 31 34 34 34 34 34
8 9 5 9 20 12 12 13 6 4 1 3 5 5 2 10 14 8 14 15 20 24 25 22 29 31 26 23 31 30 28 32 32 34 36 36 39 35 40 42 39 37 37 36
21 13 7 11 5 7 11 6 6 3 4 4 3 7 17 13 10 10 12 10 15 20 30 21 24 27 33 33 33 32 30 27 29 31 31 35 42 44 44 46 38 43 42 45
18 11 15 3 6 8 8 8 6 4 2 4 3 5 8 11 10 7 7 18 20 24 27 25 26 26 27 34 37 37 34 38 35 37 36 34 35 39 50 54 52 51 53 51
14 16 6 8 12 13 13 8 3 5 6 8 11 13 13 16 17 19 24 26 24 24 25 24 24 25 30 30 32 37 40 35 34 42 44 45 44 43 38 44 54 53 52 55
20 14 11 9 15 14 10 8 12 8 12 15 15 18 17 20 20 21 24 24 24 26 27 27 26 24 24 29 35 32 32 33 35 41 39 41 44 48 42 40 46 48 50 55
10 9 15 12 8 7 7 12 12 15 19 22 23 24 23 25 22 23 23 21 23 25 28 29 30 29 26 26 26 28 35 19 21 27 35 37 41 42 42 46 44 47 50 51
7 6 4 4 4 9 17 21 22 24 25 26 27 27 26 30 26 26 25 23 24 27 27 29 32 33 28 27 26 26 26 31 20 18 23 34 42 45 45 43 47 50 54 57
6 4 12 19 23 20 23 25 25 25 25 25 26 28 29 30 28 30 29 28 27 27 28 25 27 26 24 24 24 25 27 26 29 32 31 13 16 21 33 37 41 43 36 49
12 13 18 21 24 22 24 23 24 23 23 25 26 25 24 26 26 26 27 29 29 27 28 27 26 28 31 27 26 25 23 22 24 21 20 30 33 25 19 22 19 17 22 17
14 19 20 19 24 25 21 20 24 25 24 23 23 24 25 27 28 28 29 30 29 28 30 28 26 26 28 29 29 28 26 25 26 25 24 25 28 22 22 20 19 22 24 20
20 24 25 25 23 25 28 28 30 30 28 27 27 27 27 26 27 27 28 30 31 31 34 29 29 27 26 27 29 29 26 25 25 26 25 21 19 18 19 19 18 17 15 12
20 23 21 23 26 29 29 28 29 29 30 30 30 29 29 28 27 27 28 28 28 28 28 23 21 23 26 28 26 22 20 16 16 15 12 12 12 11 12 12 11 11 11 11
31 29 27 27 26 26 28 27 28 28 28 29 28 28 26 25 24 23 23 24 21 21 16 15 13 7 10 12 12 12 10 9 8 7 7 7 7 8 9 9 10 12 13 14
26 27 26 25 25 26 25 25 25 26 25 25 25 24 22 20 18 16 15 15 14 13 13 14 13 7 5 6 6 6 6 6 6 7 7 7 7 8 8 9 11 13 15 17
22 24 24 23 23 22 21 21 21 20 20 19 18 16 15 13 11 11 10 10 9 10 9 8 6 3 2 2 2 3 4 5 6 7 8 9 11 12 13 15 16 17 18 19
20 19 18 17 16 15 14 14 13 12 12 11 10 10 9 8 7 5 3 4 6 5 4 3 2 2 4 5 6 7 8 9 10 11 13 14 15 16 16 17 17 17 17 18
14 13 11 11 9 7 6 5 4 3 3 3 3 3 3 4 4 3 2 1 2 3 4 5 6 8 9 10 11 12 12 13 13 13 14 15 15 15 16 16 16 16 16 17
7 7 7 7 6 5 4 3 2 3 3 2 2 2 2 2 3 5 6 6 6 6 8 10 11 12 13 14 14 15 15 15 15 15 15 15 15 15 15 16 16 17 18 18
6 6 6 5 5 4 4 4 3 2 2 3 4 6 7 8 8 8 7 8 9 10 12 13 14 14 15 15 15 15 15 16 16 16 16 16 16 17 17 18 18 18 18 18
6 5 5 4 4 4 4 6 7 9 10 11 11 11 9 8 9 10 11 12 12 13 13 13 14 14 14 14 14 14 15 15 16 16 16 16 17 17 17 17 18 18 18 19
9 9 9 9 9 9 11 12 13 13 13 12 12 12 12 12 12 13 13 13 13 13 13 13 13 13 14 14 15 15 16 16 16 16 16 17 17 18 18 18 19 19 19 19
11 12 12 12 13 15 16 16 16 15 14 14 14 14 14 13 13 13 12 12 12 12 13 13 14 14 15 15 15 16 16 16 17 17 18 18 19 19 20 20 20 20 20 20

GFSNGP_700_spd_087.txt.gz
Wind_Speed
11 10 11 17 10 7 24 30 15 9 13 15 8 12 9 15 9 13 9 12 8 4 1 2 14 17 15 13 12 15 24 21 20 22 23 24 25 24 25 25 25 24 25 25
13 7 8 14 9 5 9 16 22 21 17 7 3 1 5 15 9 13 13 14 16 17 17 15 7 12 19 17 18 18 16 20 29 28 28 29 31 32 32 32 33 32 31 29
6 7 15 9 12 11 10 6 6 8 5 2 2 12 9 10 9 10 12 14 19 19 19 22 25 16 16 22 25 22 19 17 19 25 31 31 29 28 28 29 32 33 34 36
15 19 4 2 2 3 1 4 12 12 9 8 7 9 5 3 4 9 11 13 16 18 21 23 21 23 17 16 28 28 28 24 22 23 25 27 33 30 29 29 30 32 32 34
10 8 15 17 2 1 3 7 8 7 10 12 5 6 7 4 2 4 7 9 13 15 14 15 17 25 26 26 23 23 27 31 30 29 29 28 30 30 33 35 33 31 32 34
8 7 5 10 3 12 11 5 1 5 11 16 15 9 9 1 6 8 13 15 18 18 26 21 17 17 16 25 27 25 28 30 33 35 34 34 32 28 31 41 38 36 35 35
26 10 7 7 11 8 14 8 9 10 10 12 8 10 5 7 10 16 18 18 19 21 23 23 18 17 19 21 20 23 27 26 33 38 38 38 35 34 35 34 35 38 41 40
24 9 11 6 4 7 13 19 19 14 11 11 11 7 8 8 10 12 14 15 18 20 19 20 21 21 18 17 19 22 24 26 31 33 35 40 41 38 37 35 31 31 32 41
16 15 6 7 10 14 14 21 15 10 12 9 9 10 15 14 17 20 19 20 22 25 26 27 26 24 23 23 24 24 25 26 30 31 35 42 44 44 47 47 46 41 43 40
13 13 12 13 12 16 17 14 12 12 8 9 11 13 15 14 17 19 18 20 21 22 22 22 24 27 27 27 27 28 27 28 30 29 33 36 43 44 43 44 42 41 46 51
15 16 21 18 12 14 13 6 4 9 11 12 14 17 20 19 20 21 22 24 25 25 25 24 24 25 26 27 28 30 32 32 30 27 30 31 37 37 40 43 41 48 51 54
13 6 17 12 1 10 9 9 11 13 16 15 16 17 20 19 19 21 21 23 24 25 26 26 25 24 25 28 26 26 27 27 28 27 23 23 30 27 29 29 40 47 43 50
6 7 7 12 13 11 11 15 16 14 14 14 15 16 18 19 20 20 20 21 22 24 25 26 26 26 26 28 29 29 27 26 25 25 23 26 22 20 22 32 31 29 22 20
3 5 7 9 14 14 14 16 15 13 14 16 17 18 19 20 21 22 23 24 25 26 26 26 26 27 28 29 28 29 27 27 26 24 24 25 21 25 23 19 20 16 17 14
13 9 12 18 19 20 18 18 21 21 22 22 22 22 23 24 25 25 25 25 24 25 27 29 31 31 32 31 31 28 23 21 24 25 22 23 23 20 17 15 14 13 10 9
14 14 16 20 22 20 18 19 25 26 26 25 24 25 26 26 27 27 27 26 25 24 23 25 25 27 25 23 22 22 23 22 20 20 18 16 15 13 10 9 9 8 7 5
21 20 20 22 25 26 26 25 25 25 26 27 26 26 26 26 26 26 25 24 23 21 19 18 19 20 21 20 19 16 11 11 11 10 9 9 8 8 8 9 8 8 8 8
24 24 25 26 24 26 26 27 26 27 27 25 25 24 23 22 22 21 20 19 17 15 13 13 12 12 13 12 11 10 7 4 4 4 4 5 6 6 6 6 7 7 8 9
17 18 19 21 22 23 26 27 26 26 26 24 23 22 21 18 16 15 14 13 12 11 11 11 10 8 8 7 5 4 4 3 3 3 3 3 4 6 8 9 11 12 13 14
19 20 20 21 21 21 22 23 22 22 21 19 18 16 14 12 11 10 9 9 9 9 9 8 6 5 4 4 4 4 5 6 7 8 8 9 10 12 13 14 15 16 17 17
16 16 16 16 15 15 14 14 13 12 11 10 9 8 7 6 6 6 6 6 6 5 5 5 5 6 7 8 8 8 8 9 11 11 12 13 14 15 15 16 17 17 18 18
12 11 11 10 9 8 7 6 5 4 4 3 4 4 4 4 5 4 4 4 5 6 7 7 7 6 8 9 10 10 11 12 12 13 13 14 14 15 15 16 16 16 17 18
8 9 9 9 8 7 6 6 5 5 4 3 3 3 4 5 6 7 9 9 10 8 7 7 8 9 11 12 12 11 11 12 13 13 13 14 14 14 15 16 16 16 17 17
7 7 6 6 5 4 4 4 4 5 5 7 8 9 10 11 11 11 10 9 8 8 9 10 12 13 13 12 12 12 12 13 14 14 14 15 16 16 16 16 17 17 17 17
7 7 7 7 7 7 7 8 9 10 11 12 12 12 11 10 10 10 10 10 11 11 12 12 12 12 12 12 13 13 14 14 14 15 15 15 16 16 16 17 17 17 18 19
12 12 12 12 12 12 13 14 15 14 13 13 13 13 12 12 13 12 12 12 12 12 12 12 12 12 13 13 13 14 14 14 15 15 15 15 16 17 18 18 19 19 20 20
13 13 13 14 15 16 17 17 16 15 15 14 14 13 14 14 13 12 12 12 11 11 11 12 12 13 13 13 14 13 14 15 15 15 16 17 17 18 19 20 21 21 22 22

GFSNGP_700_spd_090.txt.gz
Wind_Speed
16 15 15 15 16 11 12 27 12 6 13 15 18 17 3 13 10 5 5 5 11 10 6 4 14 17 15 15 12 3 1 7 18 19 20 20 20 20 20 21 21 23 24 25
14 11 9 18 22 18 15 13 17 31 27 13 13 8 11 9 10 7 5 6 8 3 7 5 7 7 8 18 21 18 13 8 7 10 18 23 24 25 26 26 27 28 29 30
6 9 22 14 11 17 11 7 4 4 5 13 9 8 13 11 7 5 9 11 11 11 12 10 12 12 15 16 18 21 20 22 23 21 20 20 18 22 26 27 29 30 30 32
10 16 6 10 6 10 15 8 14 8 9 11 24 19 14 15 10 10 13 15 8 8 11 17 19 19 19 20 22 23 25 28 29 30 32 28 25 22 21 24 26 27 28 29
15 12 19 25 7 7 8 5 7 15 22 19 19 16 15 12 6 4 3 4 6 7 5 8 10 12 13 19 25 24 24 25 25 30 30 33 33 28 27 28 28 25 28 31
15 5 4 7 4 8 8 5 5 10 15 19 18 16 12 8 3 2 5 8 10 9 11 14 17 15 14 14 13 16 20 21 24 30 34 34 34 32 31 33 35 33 32 32
25 15 12 14 9 7 14 8 13 14 15 18 16 14 14 11 3 7 10 10 10 10 10 12 12 13 11 12 14 14 17 18 18 22 27 31 35 36 36 37 34 34 36 32
24 13 14 24 17 9 12 19 17 16 12 11 12 14 9 8 8 11 12 14 15 16 16 17 19 20 19 18 16 16 17 17 19 23 24 26 29 36 39 39 37 38 39 38
13 18 16 15 14 12 18 19 18 14 15 14 10 8 7 7 11 14 16 19 19 19 19 19 21 20 19 20 21 22 22 22 23 22 22 23 23 28 32 37 40 43 44 44
14 13 16 15 12 18 19 19 16 15 10 8 7 9 11 12 13 15 16 17 19 20 21 22 23 24 23 22 22 22 24 26 25 25 26 25 27 28 27 28 37 40 40 44
16 14 12 14 16 14 18 13 4 1 3 9 11 11 13 14 15 17 19 20 20 20 21 22 23 23 23 23 24 25 25 27 28 28 26 27 26 24 27 28 28 33 41 41
5 17 17 12 6 5 5 5 5 6 7 9 9 10 13 14 15 17 18 18 18 18 19 20 21 22 24 25 25 26 27 28 30 30 30 29 28 28 30 27 26 27 30 32
13 11 4 5 9 7 4 3 4 5 8 9 10 11 12 14 14 15 16 17 18 20 21 22 23 23 23 23 26 28 29 31 31 32 33 35 36 33 27 26 27 23 23 22
7 9 4 1 5 5 7 6 5 6 9 12 14 17 17 17 18 19 20 20 21 22 24 24 24 24 25 25 26 27 29 30 30 31 29 27 27 28 26 24 22 21 21 20
6 9 10 10 8 12 14 13 13 13 14 16 19 20 20 20 21 22 22 23 23 24 25 25 26 25 25 26 26 25 25 24 24 26 25 25 27 23 23 19 18 15 13 12
13 14 14 17 18 16 17 18 19 20 21 20 20 20 21 22 23 23 23 24 24 25 24 24 24 24 23 21 20 19 18 22 26 27 24 21 18 16 13 10 9 8 7 6
17 18 21 22 21 21 24 25 23 22 22 22 21 21 22 22 21 21 22 22 22 21 21 20 19 18 18 16 15 15 15 14 14 14 13 10 8 7 6 5 5 5 5 6
18 20 19 21 22 21 21 21 23 23 24 25 25 24 23 22 21 20 19 19 18 17 16 15 14 14 15 15 14 12 11 10 8 8 7 7 7 6 6 5 5 5 6 8
15 16 16 17 18 19 20 21 21 22 22 21 21 21 20 19 18 17 16 15 15 14 14 14 13 12 12 11 10 9 7 6 6 5 6 7 7 7 8 10 11 12 13 14
13 13 14 15 16 16 17 17 17 16 16 15 14 13 12 12 12 12 12 12 12 12 11 11 10 9 8 8 8 8 9 9 9 10 10 10 11 13 13 14 14 15 15 16
12 12 12 12 12 11 11 11 10 9 9 8 8 8 7 7 7 8 8 9 9 9 10 9 9 9 10 10 10 10 9 9 9 10 11 13 13 14 15 16 16 16 16 17
7 8 8 8 8 8 7 7 6 6 5 5 5 5 5 5 6 6 7 8 8 9 10 11 10 10 8 7 8 9 11 12 13 13 14 15 15 16 15 16 16 16 16 18
8 9 9 10 9 8 7 6 5 5 5 5 6 6 8 9 10 11 11 12 12 12 12 10 8 8 9 10 11 12 13 13 14 14 15 15 16 16 16 16 17 17 17 17
10 10 10 9 9 8 8 7 7 8 9 11 11 12 12 12 12 12 12 11 10 10 9 9 10 11 12 13 13 14 14 14 14 15 15 16 16 16 17 17 16 17 17 18
10 11 11 11 11 11 11 11 12 13 14 14 14 14 13 12 12 11 12 12 12 13 13 13 13 13 14 14 14 14 14 14 14 15 15 16 16 16 16 16 17 18 18 19
13 12 12 12 12 12 13 13 14 15 15 15 14 14 14 14 14 14 14 14 14 13 13 13 13 14 14 14 15 15 15 15 14 14 14 16 16 16 17 18 18 20 21 22
14 14 13 13 14 16 17 17 17 16 16 15 16 15 15 15 14 14 14 13 13 13 13 14 14 14 14 14 14 14 14 13 14 14 15 16 17 18 19 20 21 21 22 24

GFSNGP_700_spd_093.txt.gz
Wind_Speed
8 12 11 18 17 17 19 18 16 18 11 13 16 18 21 10 18 17 8 9 16 18 24 24 22 19 15 15 14 10 8 12 17 23 23 22 21 20 21 22 21 22 22 22
9 7 11 17 20 18 21 19 17 19 24 16 13 15 14 18 16 19 15 11 13 14 14 12 10 14 12 12 14 10 13 15 15 14 19 21 22 23 24 25 26 27 28 29
8 11 19 12 10 13 17 15 16 13 10 13 22 8 17 16 14 12 11 13 7 2 4 1 5 8 11 13 16 19 19 24 24 20 20 19 20 19 20 23 26 28 31 32
9 12 3 6 11 15 8 17 19 16 15 9 14 19 18 15 10 8 5 4 2 1 2 3 7 10 12 13 15 18 20 21 23 27 27 30 29 29 26 25 26 25 25 21
5 7 16 18 3 11 15 17 15 11 12 12 10 13 15 10 12 13 9 8 9 4 2 2 4 7 9 11 14 17 20 22 23 24 24 26 30 31 30 35 29 26 28 26
12 3 3 4 5 8 11 15 6 11 18 24 25 19 11 17 14 9 8 7 3 2 6 6 5 7 7 9 11 14 16 14 14 20 25 27 28 30 31 30 30 33 36 31
23 12 12 22 22 14 10 5 10 9 8 13 18 8 10 15 12 8 1 1 3 5 7 9 10 11 11 11 11 13 14 15 14 14 17 20 25 29 31 32 32 33 34 35
8 8 11 19 20 15 11 13 14 13 12 12 13 14 13 8 4 6 6 8 9 11 14 16 15 15 16 16 16 16 17 18 18 19 19 19 20 23 26 30 33 37 37 37
11 7 15 16 8 12 9 12 16 15 15 13 10 9 8 6 8 8 10 13 15 16 16 16 17 19 19 18 17 16 17 18 20 21 22 23 23 21 19 19 21 27 34 36
14 13 16 16 10 9 15 20 22 21 18 14 11 9 10 10 12 14 15 17 18 17 18 18 19 19 20 21 20 19 18 19 19 19 20 21 21 22 24 24 24 24 25 26
6 16 17 15 12 15 21 19 20 14 15 11 8 10 11 14 17 17 17 17 18 19 18 18 18 18 19 20 21 21 21 21 22 24 24 25 26 24 25 25 27 29 28 28
2 8 11 13 11 11 8 5 9 6 2 3 6 10 12 11 14 16 17 17 17 17 17 17 16 17 18 19 20 21 22 23 24 26 27 27 29 30 27 27 28 26 25 26
6 13 8 7 4 1 1 2 2 4 4 5 8 10 12 13 15 16 17 18 18 18 19 20 19 19 20 20 21 23 24 25 26 27 28 29 30 32 34 32 26 26 25 23
8 5 3 5 4 2 1 3 7 10 12 12 13 16 17 18 20 20 21 22 21 21 21 22 22 22 23 23 23 24 26 26 27 27 27 27 28 31 33 32 29 28 27 25
8 10 10 9 9 9 10 10 9 12 14 17 19 21 20 20 21 21 21 22 23 23 23 24 25 24 24 24 24 24 24 24 23 23 23 24 26 27 28 28 25 22 19 17
9 13 15 16 15 16 18 17 18 19 20 21 20 21 21 22 23 23 24 24 24 24 23 23 23 23 23 22 22 22 21 21 21 20 20 20 21 20 18 16 15 14 12 11
18 18 19 17 19 21 22 23 23 23 22 21 22 22 22 22 23 23 24 24 24 24 23 22 21 20 20 19 18 18 17 17 17 16 16 15 13 13 13 12 11 11 11 10
17 18 20 18 16 17 17 18 20 20 20 21 21 22 22 22 22 23 22 22 22 21 20 19 18 18 18 18 17 17 16 15 14 14 13 12 12 11 10 9 10 10 10 11
17 16 16 16 15 14 14 15 16 17 17 16 15 15 16 16 16 16 16 17 17 17 17 17 16 16 16 15 14 13 13 12 11 11 10 11 11 11 12 13 14 14 14 15
13 14 15 16 16 16 16 17 16 15 14 14 14 14 13 12 12 12 12 12 13 14 13 13 13 13 13 13 12 11 11 12 12 12 12 12 12 12 12 13 15 16 17 18
13 12 11 10 10 10 10 10 10 10 10 10 10 10 9 9 9 9 10 10 11 11 11 12 12 13 13 13 13 12 11 11 11 11 11 12 12 13 14 16 17 18 19 19
7 7 8 9 10 10 10 10 9 9 9 9 8 8 8 8 8 9 10 11 11 12 13 14 14 14 14 13 13 12 11 11 11 12 13 15 16 16 16 17 18 19 19 19
9 11 11 12 11 11 11 10 10 9 9 9 10 11 12 13 13 13 13 13 14 14 15 15 14 13 12 11 11 11 12 13 14 15 16 16 17 17 18 18 19 19 19 19
13 13 14 14 14 14 13 14 14 14 14 15 15 16 16 16 15 15 14 14 13 13 12 11 11 11 12 12 13 14 15 15 16 16 17 17 17 17 17 17 17 17 17 18
14 15 15 15 15 15 15 15 15 16 17 17 17 17 17 16 16 15 14 14 14 14 14 14 15 15 14 15 15 15 16 16 17 17 17 17 16 16 17 17 17 17 18 19
13 13 13 14 15 15 16 16 17 18 18 18 18 18 17 17 17 16 16 16 16 16 16 15 15 15 16 16 16 16 16 16 16 17 17 16 16 16 17 18 19 19 20 21
15 15 15 15 16 16 17 18 18 18 18 17 17 17 17 17 16 16 16 15 15 15 16 15 15 16 16 16 17 17 16 16 16 16 16 16 17 18 19 20 21 22 22 23

GFSNGP_700_spd_096.txt.gz
Wind_Speed
3 7 8 9 12 16 19 24 20 23 24 19 12 16 10 13 15 10 19 11 8 11 18 25 30 28 25 22 21 19 16 16 15 16 21 21 20 19 18 19 18 18 18 18
11 9 7 15 18 9 13 14 24 23 23 15 20 13 11 7 7 9 19 24 22 19 12 13 24 21 19 19 16 18 14 13 10 10 12 15 18 18 18 20 21 22 23 24
5 7 13 16 4 12 15 12 18 20 27 20 10 13 10 12 9 9 8 13 17 20 14 14 18 16 16 21 17 23 19 17 16 15 17 12 13 14 13 13 14 13 14 20
5 8 2 2 10 12 12 12 14 19 12 12 12 16 15 20 13 11 6 4 7 9 18 14 6 6 9 11 13 13 12 14 17 19 21 24 31 30 25 25 28 25 24 23
2 3 14 7 6 3 20 14 16 16 10 10 4 12 12 10 11 9 7 8 10 11 14 14 5 4 3 2 5 9 15 18 20 21 21 21 24 31 34 35 32 31 33 33
5 2 3 5 10 6 19 13 6 11 12 8 5 13 7 2 15 8 7 14 11 10 8 6 6 6 4 4 5 6 6 8 11 14 18 22 25 26 27 28 32 35 37 37
16 8 9 17 18 19 8 8 11 8 10 13 7 3 11 4 5 11 9 5 4 4 4 3 8 9 8 9 10 11 11 12 12 12 13 15 18 20 23 26 28 29 29 31
5 6 8 8 11 8 10 14 15 12 11 17 11 10 11 6 5 2 2 2 2 4 7 10 12 12 14 14 13 13 14 17 18 19 18 17 18 19 21 24 26 28 30 31
10 7 15 17 14 8 6 12 12 12 13 10 9 7 3 4 4 2 2 6 9 10 13 14 15 16 18 17 16 15 15 17 17 19 20 21 20 19 18 19 20 21 24 25
13 7 12 12 10 9 8 11 14 15 17 11 13 8 2 4 4 6 11 13 14 15 16 17 19 19 19 19 19 18 18 18 18 19 20 20 21 21 21 21 22 22 23 25
1 8 9 11 10 10 12 15 19 19 11 10 14 16 11 8 10 12 15 16 16 14 14 16 17 17 17 17 16 16 16 17 18 19 19 19 21 21 21 21 23 24 26 27
6 10 9 7 8 7 8 8 10 14 10 9 6 5 5 11 12 13 13 15 14 14 16 17 17 18 18 18 18 18 18 18 19 20 21 20 21 22 23 23 22 23 24 25
4 2 4 3 1 1 3 2 3 4 5 6 8 9 10 14 14 15 16 16 15 17 18 19 19 21 21 22 22 22 21 22 22 23 23 23 24 24 22 23 23 22 20 21
4 6 5 3 6 8 6 7 9 12 15 15 14 14 16 19 20 19 20 19 20 20 20 21 21 21 22 22 22 22 23 22 21 21 21 21 22 23 22 23 22 22 21 21
9 9 10 11 13 13 14 14 14 14 15 17 19 20 20 21 21 20 20 21 22 22 22 22 22 22 22 22 21 21 20 20 19 19 20 20 21 21 21 20 20 19 18 17
11 10 11 16 18 19 20 21 21 22 22 22 24 24 23 23 23 23 23 23 23 22 22 21 21 21 20 20 19 19 19 19 19 18 18 18 18 18 18 17 17 17 16 15
16 18 20 20 21 22 23 24 23 22 23 23 24 24 23 23 24 24 24 23 23 23 23 21 20 20 19 18 18 18 17 17 17 17 16 16 15 15 14 14 14 14 14 14
18 18 19 20 21 20 20 21 22 22 22 23 23 23 24 24 23 23 22 22 22 21 20 20 19 19 18 18 17 17 17 16 15 15 14 14 13 13 13 13 13 12 12 13
14 14 14 15 16 16 17 19 20 21 22 22 22 21 21 21 21 21 20 20 20 19 19 19 18 17 17 16 16 15 14 13 12 12 12 12 13 13 13 14 14 14 13 13
10 10 11 10 10 10 10 11 11 12 12 13 13 14 16 16 17 17 17 17 17 17 16 16 15 15 15 14 14 14 14 14 14 14 14 14 14 14 13 13 13 13 14 16
9 9 9 9 10 10 10 10 10 9 9 9 10 10 10 10 10 10 11 11 11 11 12 12 12 13 13 14 14 14 14 13 13 12 12 12 13 13 14 15 16 17 17 17
10 12 13 14 15 16 16 15 15 15 14 13 13 12 12 12 12 12 12 13 13 14 14 14 14 14 15 15 14 14 14 13 13 13 13 14 14 16 17 17 18 18 18 19
12 14 15 16 17 17 17 17 17 17 17 17 17 17 17 17 16 16 16 15 15 15 15 14 14 13 13 12 12 12 12 12 13 14 15 16 17 17 18 18 19 19 19 19
15 16 18 19 19 19 19 19 18 18 18 18 18 18 19 19 18 17 17 16 16 16 15 14 14 14 14 14 14 14 15 16 16 16 17 17 17 17 18 18 18 17 17 17
17 17 18 18 18 18 18 19 19 19 19 19 19 19 19 19 18 18 18 17 17 16 16 16 16 16 16 16 16 16 17 17 17 17 17 17 17 17 17 17 17 17 17 18
16 17 18 18 19 19 19 20 20 20 21 21 20 20 19 19 19 18 18 17 17 17 17 16 16 16 16 16 16 16 17 17 17 17 16 16 15 15 16 16 17 18 19 20
17 17 17 18 18 18 19 20 20 20 19 19 19 19 18 18 17 17 17 16 16 16 15 15 15 16 16 17 17 16 16 16 16 16 15 15 16 17 18 18 19 20 20 21

GFSNGP_700_spd_099.txt.gz
Wind_Speed
10 5 1 2 4 5 11 14 12 20 23 25 21 19 15 12 15 16 9 19 9 4 11 17 25 34 38 37 34 30 26 22 21 20 23 23 21 19 18 17 15 15 14 13
5 4 1 9 10 13 7 10 16 20 25 19 23 20 14 11 11 11 5 22 23 19 13 14 19 22 31 32 28 26 25 24 23 19 17 18 19 18 17 17 16 15 16 16
3 3 7 8 6 6 6 7 12 16 19 23 18 12 14 9 11 13 7 10 22 22 22 21 26 23 23 25 24 24 22 23 24 17 14 15 15 15 14 14 14 14 15 16
2 4 2 3 9 7 7 9 13 16 17 18 15 15 16 12 13 13 6 7 8 23 19 15 16 17 24 27 22 23 21 21 22 20 21 22 19 17 15 14 14 16 17 19
2 2 8 9 5 3 13 14 13 10 11 9 13 4 15 13 9 4 8 13 14 10 18 23 18 12 8 5 3 12 9 7 14 20 21 21 21 25 26 28 32 37 40 32
3 2 2 3 5 11 17 10 6 11 10 9 16 17 6 2 10 8 15 17 16 14 13 16 19 15 9 2 6 5 2 5 7 9 9 13 17 20 22 25 30 36 38 39
3 2 6 10 11 10 2 7 12 12 13 17 13 15 6 4 5 11 8 9 9 8 9 12 8 7 3 3 2 5 8 8 8 8 11 12 14 15 16 19 21 24 26 28
2 2 3 3 15 12 9 9 12 13 14 15 18 13 10 3 8 5 7 8 4 1 1 2 3 4 5 7 8 10 10 10 11 13 14 16 17 18 20 21 22 23 24 25
2 4 16 22 20 10 8 7 10 11 13 11 7 3 1 2 2 4 4 2 6 6 6 7 8 8 9 10 11 12 14 15 15 15 15 16 16 17 19 21 23 23 25 27
6 3 5 7 7 8 7 10 9 7 8 12 10 9 7 6 3 2 4 4 10 12 12 11 11 11 12 12 13 14 14 15 16 17 16 17 18 18 19 19 21 22 23 25
3 4 4 6 8 8 7 7 11 14 13 12 13 13 15 14 13 9 10 11 10 11 12 13 12 12 12 12 12 13 14 14 15 17 17 18 20 20 21 21 22 22 23 23
5 6 4 5 5 5 5 8 11 10 9 9 8 9 7 8 9 11 11 13 15 13 12 13 13 14 13 14 14 15 16 16 17 19 19 20 21 22 23 23 24 25 26 26
2 1 2 2 0 2 4 6 8 10 12 13 12 10 11 12 13 14 15 18 18 18 18 18 16 16 17 17 17 17 18 18 19 20 21 22 22 22 22 22 23 23 23 23
5 4 6 6 8 9 9 10 12 15 16 17 18 17 16 17 18 18 18 17 17 17 19 19 18 17 18 19 20 20 19 20 20 21 21 21 20 21 21 21 21 20 20 20
11 10 11 11 11 14 16 16 16 18 19 21 22 23 23 22 22 21 21 20 20 21 21 21 21 20 20 20 20 20 20 20 20 19 19 19 19 19 19 18 17 17 17 16
10 11 9 11 15 19 21 22 22 22 23 24 24 23 24 24 25 23 23 23 22 22 22 21 21 21 20 21 20 20 20 20 19 18 18 18 18 17 18 18 17 16 15 14
16 17 18 19 20 20 20 21 21 22 22 22 22 22 22 22 22 22 23 23 23 23 22 22 21 21 20 20 20 20 20 19 19 18 18 18 17 17 16 15 14 13 12 12
18 18 18 18 20 19 19 19 19 20 21 22 22 21 20 21 22 22 21 21 21 21 22 22 21 21 21 20 19 18 18 18 17 17 17 16 15 14 13 13 12 12 13 13
13 14 14 15 16 17 18 18 18 18 19 20 20 19 19 18 18 18 18 19 19 19 19 19 18 17 18 17 17 17 16 15 14 14 14 14 14 14 14 15 15 15 15 15
9 11 12 12 10 10 11 12 14 15 16 16 17 17 18 18 18 17 17 16 16 16 16 16 15 15 14 14 14 14 14 14 15 15 16 16 17 16 15 15 14 14 15 16
6 5 6 8 9 10 11 12 13 14 15 15 16 16 17 17 17 17 16 16 15 15 14 14 14 14 14 14 14 14 14 14 15 15 15 14 14 14 14 14 15 15 16 17
3 6 8 10 13 14 15 15 15 15 15 15 15 15 16 16 16 16 16 16 17 17 16 16 15 15 15 15 15 15 15 15 14 14 14 14 14 14 15 15 16 17 17 18
8 11 13 15 16 17 18 17 17 17 17 17 16 16 16 15 15 15 15 15 15 15 15 15 15 14 14 13 13 13 12 12 12 13 14 14 15 16 17 17 18 18 18 18
14 16 17 19 19 19 19 19 18 18 18 18 18 18 17 17 16 16 15 15 15 14 15 15 14 14 14 13 13 13 14 14 15 15 16 16 17 17 17 18 18 18 18 17
15 16 17 18 18 18 19 19 20 20 20 20 20 19 18 18 17 17 17 16 16 16 15 14 14 15 15 15 15 15 15 16 16 16 16 16 17 17 17 17 17 17 17 17
15 16 17 17 17 18 18 19 19 20 20 20 19 19 18 17 16 16 15 15 15 15 14 14 14 14 14 14 14 15 15 15 15 15 15 15 16 16 16 16 16 17 18 19
17 18 18 18 17 18 19 19 19 19 18 17 17 17 16 16 15 15 14 14 13 13 13 13 13 14 14 14 14 14 14 14 14 14 14 14 15 16 17 17 18 18 18 19

GFSNGP_700_spd_102.txt.gz
Wind_Speed
13 12 11 11 8 5 2 5 6 11 17 19 18 18 21 15 20 17 20 22 9 13 9 20 30 38 44 40 34 37 40 39 37 30 27 27 27 25 24 22 20 18 17 15
11 7 6 4 2 4 3 3 7 10 12 14 20 19 12 13 14 13 17 22 8 17 18 13 17 26 27 33 37 39 40 37 30 25 24 21 23 26 25 23 22 21 19 18
4 2 0 4 7 4 2 3 5 11 15 18 20 18 14 11 8 13 11 8 4 20 28 22 21 21 22 24 27 32 32 32 29 30 28 26 24 26 25 24 23 22 21 20
3 2 3 5 2 4 3 6 8 8 13 12 18 14 12 10 14 12 14 9 8 7 19 22 28 29 26 25 22 25 26 27 27 27 30 35 26 17 18 24 23 23 21 21
2 5 7 7 5 6 7 5 8 8 8 9 11 14 14 10 4 1 8 10 6 6 10 17 18 20 23 19 23 23 25 26 26 24 28 30 23 27 26 23 21 21 21 23
2 2 3 3 5 10 8 3 2 9 10 13 12 10 14 6 3 6 11 12 17 15 17 18 14 15 13 13 9 11 21 23 18 19 23 23 22 26 28 29 30 32 32 32
3 3 3 0 8 9 2 5 12 12 12 14 15 10 12 10 9 2 4 10 5 5 8 10 12 14 11 13 9 5 8 6 4 3 7 9 11 13 16 16 17 20 22 23
3 1 1 4 15 7 3 7 10 11 11 13 17 9 10 2 5 5 2 6 6 6 6 6 4 4 5 5 2 2 1 2 5 7 8 11 12 12 13 15 16 17 19 20
2 1 8 17 11 5 6 6 6 7 8 9 11 8 5 4 8 7 4 8 4 6 9 9 8 6 5 5 6 7 8 9 13 12 10 11 14 16 16 18 19 19 20 20
3 4 7 6 4 4 6 5 8 8 10 11 13 12 9 10 10 9 8 7 7 9 10 9 9 8 9 8 7 7 8 11 12 14 14 15 16 17 18 18 19 21 22 22
4 7 7 6 6 7 7 7 8 9 10 10 10 11 13 12 10 11 10 9 11 11 10 10 11 11 11 11 10 10 9 10 11 12 13 15 16 17 18 19 20 20 21 22
6 7 8 6 5 4 4 6 8 8 7 7 8 9 10 10 9 8 9 12 13 14 15 14 14 13 13 13 14 14 12 12 13 14 15 16 17 18 19 20 22 23 24 24
2 3 4 3 2 1 5 7 7 10 11 11 11 11 12 12 13 13 14 15 15 15 14 15 15 16 16 15 15 15 16 15 15 16 17 18 18 19 20 21 21 21 22 24
6 5 6 7 8 9 9 11 12 14 16 17 17 16 16 16 17 18 18 18 18 18 17 17 16 16 16 18 18 18 17 17 17 17 18 19 20 21 21 21 22 23 23 24
9 9 10 10 10 10 13 16 18 18 19 19 19 19 19 19 20 21 21 21 20 19 19 19 19 18 18 18 18 18 19 19 19 19 19 19 20 21 21 22 22 22 22 23
10 10 8 9 12 16 18 20 21 20 20 20 21 20 20 19 19 18 19 20 20 20 20 20 20 20 20 20 20 19 19 20 20 20 20 20 20 20 21 21 21 21 21 21
15 15 16 15 15 15 16 17 18 18 18 19 20 20 19 19 19 20 20 19 20 20 21 21 21 21 20 19 19 20 20 20 20 20 21 21 21 21 21 21 21 21 20 20
16 16 15 14 13 14 14 15 16 17 16 16 16 17 17 17 17 17 18 18 18 18 18 19 19 20 20 20 19 19 19 19 20 20 20 20 20 20 20 19 19 18 18 17
11 13 13 13 13 14 15 15 15 16 17 18 18 18 18 17 17 16 16 17 18 18 18 17 15 15 16 16 17 17 17 18 18 18 18 18 18 18 18 18 18 18 19 20
8 8 9 10 9 10 12 15 17 18 20 21 22 21 21 20 19 19 19 18 18 17 17 17 17 16 15 15 15 15 15 16 16 17 17 18 18 19 19 19 19 19 18 17
6 6 6 8 11 13 15 16 18 19 19 20 20 21 21 21 21 21 21 20 19 18 18 17 17 17 17 16 16 16 16 16 16 17 17 17 17 17 16 16 17 17 18 18
4 6 8 10 13 15 17 18 19 20 20 20 20 19 19 20 20 20 20 20 19 19 18 18 17 17 17 17 17 17 17 17 17 17 17 17 17 16 16 16 16 17 17 18
7 10 12 15 18 20 21 21 21 21 21 20 20 20 20 20 20 20 19 19 18 18 17 17 17 16 16 16 16 16 16 16 16 15 15 15 15 16 17 17 18 19 20 20
10 13 15 17 19 19 18 18 18 18 19 20 20 20 20 20 19 19 19 19 19 19 19 19 18 18 17 17 16 16 16 16 17 17 17 18 18 19 19 20 20 20 20 20
11 14 15 16 16 16 16 17 17 18 18 19 19 19 19 18 18 18 18 18 18 17 17 17 17 17 17 17 17 17 17 17 17 18 18 18 19 19 19 19 19 19 19 19
13 15 17 18 19 19 18 19 19 19 19 18 18 17 17 16 16 16 16 16 15 15 15 15 15 15 15 15 16 16 16 17 17 17 17 18 18 18 18 18 18 18 19 19
17 19 20 20 20 19 19 19 20 20 19 18 18 17 16 15 14 14 13 13 13 13 14 14 14 15 15 15 15 15 16 16 16 17 17 17 17 17 18 18 18 19 20 20

GFSNGP_700_spd_105.txt.gz
Wind_Speed
11 15 16 13 11 7 4 1 3 8 10 13 18 24 25 21 21 18 20 20 26 26 16 18 21 22 24 26 26 28 31 38 44 43 43 40 34 29 27 27 25 21 20 19
15 14 13 11 6 1 1 2 6 7 9 16 19 18 17 14 17 14 18 18 19 21 13 17 17 17 21 24 26 33 34 43 42 43 42 38 31 30 28 28 28 26 24 23
6 7 9 9 6 5 5 8 8 11 8 12 15 18 20 16 11 12 14 13 14 14 19 6 19 17 17 21 23 25 29 34 41 44 42 37 31 30 29 28 29 30 29 27
5 6 4 7 7 5 6 8 8 8 8 9 12 18 19 14 12 10 11 9 5 8 5 16 16 17 23 22 24 27 31 32 34 38 35 33 30 29 28 32 41 31 31 32
3 6 13 9 7 5 4 5 7 8 10 9 13 12 15 12 8 6 10 10 10 16 11 6 17 15 15 21 24 28 32 35 35 34 33 33 33 31 28 32 36 31 30 31
4 5 3 8 5 11 4 1 5 10 10 11 11 5 9 10 10 5 7 10 10 14 16 19 14 14 16 12 9 22 26 15 25 29 28 28 29 28 35 37 28 27 28 30
4 2 4 3 9 3 4 4 11 9 10 14 10 7 8 8 9 8 5 5 5 12 14 15 18 18 15 12 15 9 11 5 9 15 24 22 26 25 19 18 25 29 25 31
2 1 3 1 10 4 3 5 6 7 9 11 12 12 11 9 11 10 8 4 3 6 8 9 11 14 19 18 15 12 8 6 10 9 6 4 4 0 2 6 9 10 14 15
5 2 5 9 8 6 4 4 5 6 8 10 11 12 11 9 11 10 11 9 8 8 13 13 10 7 8 10 12 8 9 8 8 4 5 8 4 7 9 11 12 14 15 15
4 3 4 6 5 4 5 5 6 8 9 11 11 11 11 11 13 14 13 13 9 8 11 13 11 10 9 6 5 7 9 9 8 9 10 9 12 13 15 16 15 14 16 18
5 6 6 6 5 5 7 6 6 8 8 8 8 8 9 9 10 10 10 8 10 11 12 13 14 12 10 10 9 8 8 9 9 9 9 11 13 16 16 17 18 18 20 20
7 8 8 8 6 5 4 5 7 7 7 8 8 9 10 10 11 11 12 11 11 14 15 15 14 14 15 13 12 11 10 11 12 12 12 12 13 13 14 16 18 20 21 21
4 5 5 5 3 3 6 7 7 9 10 11 11 11 12 13 12 13 14 15 16 15 14 16 17 16 16 16 16 15 14 13 13 14 15 15 16 16 16 17 18 19 20 21
6 6 5 7 8 9 9 8 10 12 14 14 15 15 15 15 16 15 15 16 18 17 18 18 18 19 19 18 18 18 17 16 16 16 16 17 17 18 18 19 20 20 21 22
6 7 8 8 8 9 12 14 14 14 14 15 17 17 18 18 17 17 18 19 18 18 18 18 18 19 20 22 21 20 20 20 19 18 18 19 19 20 20 21 21 21 21 22
11 11 11 12 13 13 15 15 15 16 16 15 16 16 16 16 17 18 18 19 20 23 23 21 20 19 19 20 22 23 23 22 22 22 21 21 21 21 21 21 22 22 22 22
15 14 14 13 13 13 14 14 14 15 16 16 17 17 18 18 18 19 20 20 20 20 21 23 23 22 21 20 19 20 21 22 23 23 22 22 22 22 22 22 21 21 22 22
14 13 12 12 12 12 12 13 13 13 13 13 15 16 17 18 19 20 20 21 21 21 20 20 20 21 21 21 20 19 19 20 21 21 22 21 21 21 22 22 22 22 22 22
10 9 9 9 10 10 10 10 12 14 16 18 19 21 22 22 22 22 22 22 22 23 23 22 21 19 19 20 20 19 19 19 18 19 20 21 21 22 22 22 22 22 22 23
7 8 8 9 9 10 13 16 18 20 21 23 24 25 25 26 26 26 25 24 24 23 22 22 21 21 19 18 18 18 19 19 19 19 19 19 20 21 22 22 23 23 23 23
5 5 6 8 11 14 17 19 21 22 23 25 25 25 25 25 24 24 24 24 23 23 22 21 21 20 19 19 18 18 18 18 19 19 20 20 20 20 20 20 20 19 20 20
4 7 10 12 14 17 19 22 24 25 26 26 26 26 25 24 24 23 22 23 22 21 21 21 21 21 21 20 20 19 18 17 17 18 18 18 18 19 19 19 20 20 20 20
7 9 12 15 18 21 23 24 25 25 24 23 22 22 22 23 23 24 25 21 22 22 22 21 21 21 21 20 20 20 19 19 18 18 17 17 17 17 17 18 18 19 19 20
10 12 15 17 19 21 21 22 22 21 22 21 21 22 22 23 24 21 22 21 22 22 22 22 21 21 21 21 21 21 20 20 20 20 20 20 20 20 20 20 21 21 21 21
12 14 15 17 19 20 22 22 23 22 22 23 23 23 22 21 21 22 21 20 20 21 20 20 20 20 20 20 20 20 20 19 20 20 20 20 21 21 21 21 21 21 21 21
13 15 17 19 21 23 24 23 23 23 23 23 23 21 21 20 20 20 19 19 19 19 19 19 18 19 19 19 19 19 19 19 19 19 19 19 19 20 20 20 20 20 20 20
15 17 19 21 22 23 23 23 23 23 23 22 21 20 19 18 18 17 17 17 17 17 17 17 18 18 18 18 19 19 19 19 19 19 19 19 19 19 19 19 19 19 20 20

GFSNGP_700_spd_108.txt.gz
Wind_Speed
10 13 15 10 10 8 5 3 5 9 18 17 21 21 19 17 15 12 11 18 18 23 25 26 10 17 21 24 19 21 22 19 24 36 34 36 38 43 40 33 28 27 24 20
22 17 21 15 8 11 9 13 14 15 21 16 18 18 16 16 14 11 13 14 19 21 21 23 8 17 18 16 17 18 22 24 28 33 38 37 44 46 40 32 30 29 28 25
15 16 16 17 17 19 20 17 10 16 13 12 14 17 21 16 15 14 13 13 15 16 16 16 10 7 14 17 16 16 20 24 25 30 35 36 42 42 37 37 34 33 33 31
3 5 4 12 16 16 16 17 16 9 11 10 13 15 18 13 11 13 14 15 20 20 19 18 15 16 24 8 18 18 18 22 25 29 35 38 44 44 43 41 37 35 32 29
3 3 15 8 10 11 12 14 11 10 11 11 11 9 11 13 10 12 11 13 14 16 19 18 16 13 14 22 7 20 24 28 31 34 37 39 42 41 41 44 36 34 32 28
1 5 1 7 7 4 3 9 10 7 11 11 6 8 10 11 12 10 6 6 10 13 16 18 17 15 11 9 18 15 9 17 29 23 32 39 37 39 40 43 40 41 42 45
5 4 6 8 6 2 3 4 8 9 8 8 6 9 9 11 12 12 11 9 8 11 12 14 17 21 18 18 14 13 19 15 11 9 11 11 19 12 24 35 36 34 37 35
10 7 4 10 5 4 7 5 5 6 8 8 9 9 9 10 11 12 12 10 7 5 10 13 13 14 15 16 20 20 17 18 15 17 14 6 10 9 7 7 17 15 23 28
6 4 7 9 10 10 5 4 4 7 9 11 11 11 10 10 11 12 12 11 11 11 9 10 13 12 12 13 12 11 12 12 15 18 13 11 11 9 10 7 5 6 6 7
5 6 6 7 6 5 4 4 5 7 10 11 11 11 11 11 11 11 12 12 10 9 10 10 11 11 12 12 12 12 12 11 8 8 9 10 14 15 14 9 10 6 8 8
4 4 7 5 7 5 4 4 5 7 8 9 10 11 12 13 13 12 11 13 13 12 11 11 11 10 11 11 12 10 10 11 12 11 10 9 9 9 11 13 11 10 14 16
5 9 8 7 6 5 4 6 6 6 7 8 10 12 13 14 15 15 13 13 14 15 15 14 13 13 12 12 12 13 13 12 11 11 11 12 11 11 11 12 13 14 15 17
4 5 6 4 3 4 5 8 7 8 10 11 11 12 14 15 16 17 17 17 16 17 18 18 17 15 15 15 14 14 14 14 14 15 14 13 13 13 14 14 15 15 15 16
5 6 5 5 6 7 9 8 9 12 14 14 14 14 14 14 15 17 18 20 19 17 15 17 19 20 19 18 18 17 17 16 16 16 16 16 16 16 16 15 15 15 16 17
4 6 6 6 6 7 9 11 13 14 14 14 13 14 14 15 15 16 17 18 20 21 20 17 17 19 20 20 20 20 20 19 18 18 18 18 18 18 18 19 19 19 19 19
9 10 9 11 11 11 12 13 13 13 14 15 15 16 17 17 17 17 17 18 19 21 21 22 21 19 20 21 21 21 22 22 22 21 20 20 20 21 20 20 21 21 21 21
16 13 11 11 11 11 12 12 12 14 14 15 15 15 17 18 20 21 22 22 22 23 23 23 22 22 21 20 22 22 21 21 22 22 21 21 20 20 20 20 20 21 22 22
15 13 13 12 11 11 12 13 13 13 14 16 18 19 20 22 22 23 24 24 24 24 25 25 25 24 23 23 21 20 20 21 21 21 21 20 20 21 21 20 20 20 21 22
11 10 9 9 10 9 9 10 13 15 18 20 22 23 25 26 27 27 27 27 27 27 26 25 24 23 23 23 22 21 21 20 19 20 21 21 21 22 22 22 22 21 21 21
5 6 6 7 8 11 13 15 18 20 22 23 24 24 26 27 27 28 28 25 25 26 25 24 24 23 22 23 22 20 20 21 21 20 20 19 20 20 21 22 22 22 22 22
3 4 5 8 10 13 16 18 20 22 24 26 28 29 30 30 29 29 29 32 25 27 26 23 23 23 22 22 22 21 20 20 19 20 20 20 20 19 19 20 20 20 20 20
3 6 9 12 14 16 18 21 24 26 27 28 28 27 26 26 25 25 24 24 25 23 24 22 23 23 23 23 22 21 20 20 19 19 18 18 18 18 18 18 18 18 18 18
6 10 13 15 18 20 21 22 23 24 24 24 24 24 24 25 24 25 26 23 24 24 23 22 22 21 21 21 21 22 21 21 20 19 18 18 17 18 17 18 18 18 18 19
11 14 15 17 18 20 20 23 25 26 27 26 24 25 25 25 26 25 23 21 21 22 21 22 22 22 21 21 20 20 20 20 19 19 19 19 18 18 18 18 19 18 18 19
12 14 16 18 21 22 25 27 29 29 28 27 25 24 23 24 23 24 23 23 21 21 21 19 20 21 20 20 20 20 20 19 19 19 19 18 18 18 18 18 18 18 18 18
13 15 17 20 22 25 28 31 31 30 29 28 30 28 26 25 24 23 22 20 20 19 19 19 18 19 20 20 20 19 19 19 19 19 19 19 18 18 18 18 17 17 17 17
15 18 20 22 23 25 28 30 29 27 27 26 26 27 26 24 23 22 21 20 20 20 20 20 20 20 20 20 20 20 19 19 19 19 19 18 18 18 18 17 17 17 18 18

GFSNGP_700_spd_111.txt.gz
Wind_Speed
7 7 12 10 16 11 14 9 12 18 31 24 24 22 19 15 10 8 9 10 13 16 20 20 19 12 18 22 22 26 26 28 33 35 35 33 35 36 38 36 34 31 28 24
34 25 23 29 21 20 27 23 22 22 24 19 19 19 13 14 13 10 11 13 14 15 16 16 18 10 12 17 25 23 23 24 23 30 30 29 29 37 37 36 31 30 31 28
7 9 17 25 23 24 26 25 21 23 14 11 12 15 17 14 14 14 14 16 17 18 19 19 19 19 11 11 15 16 17 17 23 28 23 38 34 35 33 32 28 34 38 35
4 6 5 13 21 22 24 22 20 16 15 15 12 16 15 12 12 10 9 10 13 15 17 20 19 18 17 16 13 6 19 19 21 27 27 29 35 37 33 31 28 33 35 41
3 4 11 11 14 16 13 20 17 17 14 12 10 11 12 13 12 8 8 10 12 14 16 18 18 18 18 16 12 12 4 19 22 25 27 33 36 38 35 40 39 38 42 45
9 4 5 10 9 6 10 17 13 12 11 11 6 6 9 11 11 11 10 10 9 12 15 15 16 18 19 22 18 10 12 19 6 23 26 31 31 36 36 41 39 41 43 41
19 7 6 11 6 6 4 4 9 9 8 6 3 6 8 10 11 11 11 11 9 9 12 15 16 15 15 15 17 21 16 14 15 8 12 14 7 25 25 18 37 41 39 40
8 6 4 16 5 5 9 5 5 5 7 8 8 9 8 9 9 10 11 10 11 11 11 11 14 14 14 14 15 15 15 17 18 16 13 14 16 10 8 7 4 6 14 22
7 7 9 11 13 12 7 4 4 6 8 9 7 7 8 8 9 9 10 11 11 11 11 11 11 12 12 12 13 12 12 12 11 13 16 16 14 12 8 8 8 8 5 7
5 7 7 8 7 5 3 3 4 6 8 9 8 8 9 9 10 10 10 10 10 10 10 11 12 12 12 11 11 12 13 12 10 9 9 8 7 7 11 12 8 8 8 6
6 4 4 4 4 3 3 4 6 5 6 9 11 10 11 12 11 11 11 12 12 12 12 12 12 12 12 12 12 11 12 12 13 12 10 10 9 9 8 8 12 10 9 8
2 6 5 4 3 2 2 4 5 7 7 9 12 12 13 14 14 14 13 12 12 13 14 14 14 15 15 14 14 13 12 13 13 12 13 12 11 11 11 10 10 10 13 15
4 5 4 3 2 2 3 6 4 6 9 12 13 15 14 15 15 15 15 15 14 13 14 15 15 16 16 17 17 16 15 15 15 16 15 13 13 13 12 12 12 13 12 12
3 5 4 2 2 5 8 9 7 9 11 13 14 13 13 14 15 16 16 17 16 16 16 15 17 18 17 18 20 20 19 17 17 17 18 18 16 15 15 14 14 14 14 14
1 4 5 5 5 7 9 10 10 11 12 12 13 14 14 14 15 15 17 17 18 19 19 18 17 17 19 19 19 20 20 22 22 20 19 19 19 18 18 18 18 18 17 16
5 8 10 8 8 8 8 9 10 10 11 12 12 13 13 16 18 19 20 22 22 23 24 23 22 21 19 20 23 22 21 20 21 22 22 22 21 20 20 20 20 20 19 18
12 11 8 7 8 7 8 8 9 9 10 11 13 16 18 19 21 23 24 25 26 27 26 26 26 25 24 21 20 23 24 22 21 22 21 21 21 20 19 20 21 21 20 19
13 12 9 7 7 7 8 8 9 11 14 16 18 20 22 23 24 24 25 26 26 26 27 25 25 25 25 23 20 19 20 22 23 22 21 22 22 22 20 18 19 19 20 19
8 8 6 6 6 6 7 9 11 14 16 19 21 22 23 24 25 25 26 27 27 27 25 26 24 24 24 23 21 20 19 17 20 22 21 20 21 21 21 20 20 19 18 19
1 1 2 4 6 9 11 13 15 17 18 19 21 24 27 28 30 30 28 27 27 28 24 22 23 22 22 21 19 19 19 19 17 18 19 22 20 21 21 20 20 19 19 17
2 2 3 6 9 11 13 15 18 21 24 25 26 26 26 25 25 26 27 25 25 25 23 23 22 22 21 20 20 19 19 18 17 17 17 17 18 20 20 19 18 18 18 18
3 4 6 10 14 16 17 19 20 21 23 25 26 27 27 27 25 24 23 25 25 25 23 22 21 21 21 20 20 19 19 19 18 17 17 17 17 16 16 17 17 18 18 17
4 8 11 13 14 16 18 19 22 24 26 27 28 28 28 28 27 25 24 23 24 24 22 22 21 20 19 19 19 19 18 18 18 17 17 17 17 17 17 17 17 18 18 18
6 9 11 13 15 16 19 21 24 27 28 27 26 25 24 26 27 26 24 23 22 21 20 20 20 19 18 17 18 18 17 17 17 16 16 16 16 16 16 17 17 17 18 18
8 10 12 14 16 17 19 23 26 29 31 32 28 24 22 21 23 24 23 23 22 21 20 18 18 19 18 18 18 18 18 17 17 17 17 16 16 16 15 15 16 16 15 16
9 11 14 16 18 22 25 27 31 34 33 34 33 31 28 25 24 24 23 22 21 20 20 20 20 19 19 20 20 19 18 18 17 16 17 16 16 15 14 15 15 15 15 15
10 11 13 16 18 21 24 26 29 29 29 28 29 28 26 25 24 23 22 22 21 21 21 21 21 21 20 20 20 20 19 18 17 17 17 17 16 16 15 15 15 15 15 15

GFSNGP_700_spd_114.txt.gz
Wind_Speed
3 14 29 27 11 17 19 20 9 18 19 19 18 17 16 13 11 9 9 9 10 11 13 11 13 13 11 16 20 24 30 25 26 31 33 30 30 28 29 27 29 33 30 32
32 31 30 39 40 40 31 23 20 19 22 20 16 14 13 14 14 11 12 15 17 17 17 17 16 18 15 9 16 17 22 20 28 22 33 35 31 30 33 31 30 33 32 29
5 12 7 31 30 33 30 23 19 17 18 14 14 15 15 16 15 12 15 18 18 20 22 22 22 21 19 17 12 15 22 25 26 24 23 31 30 29 32 30 32 32 34 29
5 8 6 13 13 25 29 25 18 17 13 12 15 18 14 12 10 11 13 15 17 19 19 20 21 21 20 18 18 17 13 12 16 17 20 21 29 31 36 37 38 33 34 29
3 13 14 18 12 14 18 23 19 14 11 10 11 12 11 12 11 12 14 13 13 15 17 18 18 17 20 22 17 14 12 10 6 14 24 30 31 34 38 35 33 41 34 28
3 5 3 15 2 8 10 18 14 11 10 8 8 5 10 11 12 14 15 15 13 13 15 17 17 17 16 15 17 17 17 18 14 12 12 6 10 29 25 41 35 40 36 41
16 6 5 14 6 9 4 3 8 9 9 9 7 9 10 11 12 13 14 12 13 13 13 13 14 15 15 15 14 13 14 15 16 16 14 13 13 5 14 19 21 26 41 36
6 6 4 14 5 2 9 5 5 7 9 10 9 10 11 12 13 12 12 12 11 11 12 13 14 14 15 16 15 15 15 14 12 10 11 14 17 12 8 7 6 4 9 8
5 7 8 11 14 11 7 4 5 7 9 11 10 9 9 10 10 10 10 11 11 11 12 13 13 14 14 14 15 15 14 13 13 14 13 11 7 7 11 13 8 8 8 10
3 6 7 8 7 4 4 4 5 6 7 8 9 9 9 9 9 10 10 10 11 11 11 13 13 14 14 14 13 14 15 14 12 12 12 11 11 10 7 5 4 7 8 7
7 5 7 4 3 3 4 5 6 6 7 8 9 10 10 10 10 11 11 12 13 14 14 13 14 15 15 15 15 15 15 15 14 13 13 13 11 10 10 10 11 11 11 8
3 5 4 3 3 3 4 6 6 6 7 9 10 11 11 11 12 12 13 14 14 14 15 16 17 16 17 18 18 17 17 17 17 16 14 14 14 13 12 11 11 12 12 13
4 5 5 4 3 3 2 5 6 7 8 10 11 12 12 12 11 13 14 15 16 16 17 17 18 19 20 19 18 19 19 19 19 19 19 17 16 16 15 14 14 13 13 13
4 5 4 3 3 4 4 3 6 9 11 10 10 11 13 14 14 13 14 15 16 17 19 19 20 21 22 23 24 22 21 21 21 21 21 20 20 19 19 19 18 16 16 15
2 3 4 5 5 7 7 7 8 10 11 11 12 12 12 13 15 17 18 19 20 21 22 23 24 24 24 25 25 26 26 24 23 23 22 22 22 21 20 20 19 19 18 17
3 5 8 8 8 9 8 8 9 9 10 10 10 12 14 16 18 20 22 23 24 24 25 26 27 26 26 25 25 26 27 29 27 24 24 22 22 22 22 21 20 19 19 19
7 7 7 6 7 7 7 7 7 7 9 11 13 15 17 19 21 22 23 25 27 27 27 28 28 27 26 26 25 25 25 25 27 28 26 23 22 21 21 21 21 20 19 19
9 8 4 4 4 4 5 5 7 9 12 14 16 18 20 21 23 24 25 26 27 28 31 31 30 29 28 26 25 24 23 23 23 25 26 25 24 20 20 19 20 20 20 19
5 3 1 1 1 2 5 7 9 12 14 16 17 18 20 22 24 26 27 28 28 28 29 30 29 28 26 24 22 22 21 21 20 21 23 24 24 22 20 19 19 18 18 19
5 4 4 3 2 5 8 10 12 14 16 18 20 22 23 24 24 24 25 26 26 25 26 26 27 26 25 24 22 21 19 19 18 19 20 21 22 22 21 19 18 18 18 18
7 7 4 3 5 8 11 13 14 15 17 19 22 23 23 24 25 25 26 27 27 26 26 25 25 24 23 22 22 21 20 19 18 19 19 19 19 20 21 20 19 18 16 16
8 5 2 4 7 9 12 14 14 16 19 21 24 25 25 25 25 25 25 26 26 26 25 25 24 23 22 21 20 19 19 19 18 17 18 18 19 20 21 21 21 20 18 17
5 2 3 6 9 11 13 15 16 18 21 24 26 26 27 28 27 25 24 25 25 25 24 24 23 22 21 21 20 19 18 18 18 18 18 17 17 18 19 20 21 22 22 21
2 1 4 8 11 13 14 17 19 21 23 25 25 25 25 26 26 25 25 24 24 24 24 23 23 22 21 21 20 20 19 19 18 18 17 17 17 17 18 18 19 19 20 21
3 4 6 9 11 13 16 18 20 23 26 27 26 25 23 23 24 24 23 23 22 23 23 22 22 22 23 23 22 21 21 20 19 20 19 18 18 17 17 18 18 18 18 19
6 7 8 10 12 14 16 19 21 24 27 29 30 29 28 26 25 25 24 24 23 23 23 23 23 22 22 22 22 22 21 21 20 19 19 19 18 17 17 17 18 18 18 18
9 10 11 12 13 15 17 21 24 27 30 31 31 30 29 28 26 25 25 25 24 23 23 24 24 24 23 22 22 22 22 21 20 19 19 19 18 17 17 17 18 18 18 18